     2.11           OBSERVATION DATA    G (GPS)             RINEX VERSION / TYPE
teqc 2010Oct21 OPUS Account 20111028 17:14:11UTC            PGM / RUN BY / DATE
C 1528                                                      MARKER NAME
3087                                                        MARKER NUMBER
CSMIDDLETON NGS                                             OBSERVER / AGENCY
0220390614 TRIMBLE R7 2.32                                  REC # / TYPE / VERS
60165452 TRM41249.00 NONE                                   ANT # / TYPE
  -698750.2908 -5593551.3974  2974007.5770                  APPROX POSITION XYZ
        2.0000        0.0000        0.0000                  ANTENNA: DELTA H/E/N
     1     1                                                WAVELENGTH FACT L1/2
     5    L1    L2    C1    P1    P2                        # / TYPES OF OBSERV
    15                                                      LEAP SECONDS
  2011     8    25    17    27   30.0000000     GPS         TIME OF FIRST OBS
                                                            END OF HEADER
 11  8 25 17 27 30.0000000  0  8G07G08G11G13G19G23G24G28
   -285299.84458   -191147.12556  20468685.0634                   20468682.5554
   -385208.15658   -257956.47756  21490893.0004                   21490891.3754
   -347006.09457   -233209.09455  22037519.1254                   22037517.6844
      8882.21957      5868.43455  21854317.5084                   21854316.6844
    -30092.11757    -20407.63756  22060785.7504                   22060782.7074
     55002.10557     36662.76253  23740911.6884                   23740911.9454
   -375107.12957   -260406.95753  23387217.0944                   23387219.1054
   -303088.30958   -202467.14555  22748340.2114                   22748338.7114
 11  8 25 17 28  0.0000000  0  8G07G08G11G13G19G23G24G28
   -402921.04748   -282800.01647  20446302.4304                   20446300.2114
   -544405.03148   -382006.00046  21460598.9064                   21460597.2424
   -489983.56247   -344620.12145  22010311.3834                   22010309.7234
     12710.37948      8851.30945  21855046.8284                   21855045.1684
    -42233.73447    -29868.68745  22058474.6564                   22058472.1254
     77476.64846     54175.05143  23745187.8364                   23745188.2774
   -536331.88746   -386036.55143  23356536.2584                   23356539.2814
   -428372.50448   -300091.16845  22724499.3914                   22724497.5394
 11  8 25 17 28 30.0000000  0  8G07G08G11G13G19G23G24G28
   -520123.37148   -374126.52746  20423999.6254                   20423997.1214
   -703374.88748   -505878.60946  21430347.6094                   21430346.5634
   -632470.17247   -455648.66445  21983196.7974                   21983196.2274
     16943.80547     12149.96545  21855852.4224                   21855850.5514
    -53895.35547    -38955.73045  22056256.0474                   22056252.7344
    100094.46546     71799.01644  23749492.8054                   23749492.5784
   -697331.38346   -511490.64844  23325899.1254                   23325901.8674
   -553427.84048   -397536.85245  22700702.1024                   22700699.7624
 11  8 25 17 29  0.0000000  0  9G07G08G11G13G19G23G24G28G17
   -636922.55948   -465138.89146  20401773.4454                   20401771.0234
   -862133.30548   -629586.45746  21400136.8444                   21400135.6524
   -774481.21147   -566306.62145  21956172.8594                   21956172.1094
     21561.29747     15747.91045  21856731.2504                   21856730.2704
    -65097.91047    -47685.05545  22054124.5234                   22054121.1604
    122834.96147     89518.52344  23753820.8284                   23753821.8484
   -858120.65647   -636780.90244  23295302.9534                   23295304.4304
   -678273.13748   -494818.87945  22676944.9614                   22676942.9264
   -290451.03557   -206001.66854  24557795.3054                   24557797.3554
 11  8 25 17 29 30.0000000  0  9G07G08G11G13G19G23G24G28G17
   -753327.80548   -555844.29346  20379622.6174                   20379619.6604
  -1020689.16048   -753136.46946  21369964.7344                   21369963.4884
   -916024.82448   -676600.35245  21929238.2814                   21929236.5984
     26548.66848     19634.05945  21857680.1414                   21857679.4964
    -75854.89148    -56067.17245  22052077.7194                   22052074.0944
    145684.27347    107322.86344  23758168.4454                   23758170.3834
  -1018707.52747   -761913.46544  23264744.1724                   23264745.4534
   -802920.32848   -591946.54345  22653225.6954                   22653223.4344
   -485695.26247   -358139.89843  24520641.2424                   24520642.7154
 11  8 25 17 30  0.0000000  0  9G07G08G11G13G19G23G24G28G17
   -869351.00448   -646251.99646  20357543.6174                   20357540.9884
  -1179053.87948   -876537.53946  21339829.4774                   21339827.4304
  -1057112.69548   -786538.94545  21902389.9304                   21902388.3554
     31889.02747     23795.27745  21858696.1254                   21858695.7074
    -86182.94547    -64115.06645  22050111.8054                   22050108.5314
    168625.81346    125199.09444  23762534.3054                   23762536.4144
  -1179102.69547   -886896.64844  23234221.9454                   23234223.6524
   -927384.60947   -688931.66845  22629540.4924                   22629539.3134
   -680781.88746   -510155.38343  24483517.6414                   24483520.2274
 11  8 25 17 30 30.0000000  0  9G07G08G11G13G19G23G24G28G17
   -985000.84848   -736368.80546  20335536.4924                   20335533.9024
  -1337236.47748   -999796.73446  21309727.5704                   21309726.2544
  -1197752.78948   -896128.65645  21875626.9844                   21875624.8014
     37568.69948     28220.86745  21859777.0004                   21859776.0124
    -96095.85247    -71839.50845  22048225.5084                   22048222.1454
    191646.25846    143136.81643  23766915.4304                   23766917.2934
  -1339313.83247  -1011736.43744  23203734.5554                   23203736.8984
  -1051677.10547   -785782.95745  22605888.4144                   22605887.0864
   -875719.49246   -662054.75843  24446422.0394                   24446424.8634
 11  8 25 17 31  0.0000000  0  9G07G08G11G13G19G23G24G28G17
  -1100285.99248   -826201.41446  20313598.3834                   20313595.9064
  -1495245.14148  -1122920.37946  21279660.0864                   21279658.3164
  -1337952.68748  -1005375.33645  21848948.1174                   21848945.2814
     43574.55547     32900.64845  21860920.3364                   21860918.8754
   -105606.28947    -79250.30545  22046415.7584                   22046412.3794
    214732.21946    161125.57843  23771308.9144                   23771309.6644
  -1499348.15246  -1136438.44144  23173281.0864                   23173283.6804
  -1175809.15248   -882509.21145  22582266.8204                   22582265.0904
  -1070516.48047   -813844.58243  24409354.0474                   24409356.3554
 11  8 25 17 31 30.0000000  0  9G07G08G11G13G19G23G24G28G17
    360209.78548    311847.23046  20591521.5634                   20591518.6254
    -77661.67248    -18309.88346  21549417.1094                   21549415.4964
     97705.28548    113319.20345  22122144.6644                   22122141.8634
   1625313.91848   1265424.71145  22161915.7344                   22161914.1254
   1460693.55947   1141243.03945  22344472.5474                   22344468.9534
   1813290.51246   1406755.08243  24075504.4454                   24075504.2894
    -83786.82447    -33403.57444  23442653.2584                   23442655.8324
    275632.80547    248484.55545  22858467.2114                   22858465.1024
    310246.61746    262074.77343  24672103.7894                   24672107.2234
 11  8 25 17 32  0.0000000  0  9G07G08G11G13G19G23G24G28G17
    245632.09448    222565.89146  20569718.3984                   20569715.6804
   -235343.14548   -141178.55946  21519411.7584                   21519410.2194
    -41634.39148      4742.83245  22095628.8134                   22095626.5744
   1631935.05147   1270583.92245  22163176.0394                   22163173.8714
   1451951.65647   1134431.11345  22342809.4694                   22342805.8404
   1836471.33646   1424817.74643  24079916.3674                   24079915.4884
   -243486.43447   -157844.78544  23412263.5784                   23412265.8164
    151791.05147    151984.51245  22834900.8914                   22834898.6724
    115709.76646    110487.69543  24635085.1094                   24635087.5554
 11  8 25 17 32 30.0000000  0  9G07G08G11G13G19G23G24G28G17
    131395.72748    133550.52346  20547979.8054                   20547977.0354
   -392873.42648   -263929.42646  21489434.2504                   21489432.5314
   -180555.32448   -103507.23845  22069193.2274                   22069191.0704
   1638844.09047   1275967.47745  22164490.7424                   22164488.8404
   1443574.52047   1127903.41445  22341215.2894                   22341211.6914
   1859679.67646   1442901.86742  24084333.4534                   24084331.6024
   -403029.46947   -282163.98844  23381903.2424                   23381904.8324
     28077.17247     55584.10545  22811358.6724                   22811356.5784
    -78709.18746    -41007.48043  24598087.5704                   24598090.1334
 11  8 25 17 33  0.0000000  0  9G07G08G11G13G19G23G24G28G17
     17494.89148     44796.60546  20526305.0234                   20526302.2894
   -550257.79748   -386566.59446  21459485.0944                   21459482.8244
   -319062.79748   -211435.14145  22042836.1484                   22042834.1094
   1646030.18448   1281566.90645  22165857.8594                   22165856.8794
   1435551.69947   1121651.80945  22339688.3914                   22339684.6644
   1882905.57446   1460999.59842  24088752.0864                   24088752.7624
   -562420.27047   -406364.56244  23351571.8674                   23351573.5514
    -95516.94547    -40722.98845  22787839.9924                   22787837.3204
   -273015.59846   -192414.95743  24561112.6334                   24561114.4184
 11  8 25 17 33 30.0000000  0  9G07G08G11G13G19G23G24G28G17
    -96074.86348    -43699.32446  20504693.4924                   20504690.8754
   -707500.07848   -509093.04346  21429562.9144                   21429561.2624
   -457160.52748   -319043.75045  22016557.4454                   22016555.1094
   1653484.17247   1287375.09445  22167275.9534                   22167275.4264
   1427873.80947   1115668.98445  22338227.7814                   22338223.7464
   1906139.79746   1479103.82843  24093173.2894                   24093175.0004
   -721661.90247   -530448.92644  23321269.8444                   23321271.1524
   -218998.46147   -136942.32445  22764341.8834                   22764339.6804
   -467214.07446   -343738.29743  24524157.9384                   24524159.0634
 11  8 25 17 34  0.0000000  0  9G07G08G11G13G19G23G24G28G17
   -209318.00848   -131940.74646  20483144.1954                   20483141.1954
   -864604.35248   -631511.96146  21399667.1724                   21399665.1294
   -594852.21948   -426335.97345  21990355.1884                   21990353.4734
   1661196.86747   1293384.87945  22168743.7114                   22168742.9144
   1420532.34447   1109948.30145  22336830.7504                   22336827.4964
   1929373.08246   1497207.41443  24097594.9144                   24097596.4414
   -880757.60947   -654419.55944  23290995.1484                   23290995.2344
   -342374.64547   -233079.59044  22740864.2424                   22740861.8444
   -661308.39846   -494980.49643  24487223.4454                   24487224.5704
 11  8 25 17 34 30.0000000  0  9G07G08G11G13G19G23G24G28G17
   -322237.35248   -219929.87146  20461656.5474                   20461653.3874
  -1021573.36748   -753825.46946  21369796.8914                   21369795.2774
   -732139.98448   -533313.44945  21964230.2734                   21964228.2274
   1669160.21147   1299589.97345  22170259.4144                   22170258.5004
   1413519.34047   1104483.56645  22335495.9144                   22335493.0744
   1952598.08246   1515304.47343  24102015.8594                   24102016.7034
  -1039709.17247   -778277.85944  23260747.2894                   23260747.3164
   -465651.41447   -329139.39844  22717405.6414                   22717402.8054
   -855301.73446   -646144.01244  24450306.8284                   24450309.5394
 11  8 25 17 35  0.0000000  0  9G07G08G11G13G19G23G24G28G17
   -434839.14148   -307671.53547  20440228.6884                   20440226.2194
  -1178413.26648   -876038.36346  21339950.9774                   21339949.2664
   -869030.00848   -639980.99645  21938180.7664                   21938178.8364
   1677363.25448   1305981.85545  22171820.1254                   22171819.4804
   1406823.79747   1099266.19945  22334222.2894                   22334218.7624
   1975803.82847   1533386.51644  24106432.5704                   24106433.7194
  -1198521.78147   -902027.89844  23230525.6644                   23230526.7734
   -588837.74247   -425128.74644  22693963.5474                   22693961.7194
  -1049199.85947   -797233.31644  24413409.5944                   24413412.2974
 11  8 25 17 35 30.0000000  0  9G07G08G11G13G19G23G24G28G17
   -547126.34448   -395168.07846  20418861.1024                   20418859.0824
  -1335126.20748   -998152.35546  21310129.6644                   21310127.6254
  -1005524.15248   -746340.07445  21912207.0084                   21912204.8794
   1685797.40247   1312553.80145  22173425.5234                   22173425.1884
   1400438.16047   1094290.31645  22333007.0554                   22333003.5434
   1998982.58647   1551447.54344  24110843.8984                   24110845.1254
  -1357196.97347  -1025670.85544  23200331.4384                   23200331.8324
   -711939.50047   -521052.19945  22670538.8054                   22670536.0984
  -1243005.42647   -948250.51644  24376529.1954                   24376531.8134
 11  8 25 17 36  0.0000000  0  9G07G08G11G13G19G23G24G28G17
   -659103.23448   -482422.81246  20397552.7114                   20397550.3204
  -1491716.18048  -1120170.51646  21280331.6254                   21280329.7194
  -1141626.02748   -852393.47745  21886307.5634                   21886305.8554
   1694453.98048   1319299.06345  22175072.8754                   22175072.2544
   1394353.64847   1089549.07445  22331849.2114                   22331845.5594
   2022125.79347   1569480.85544  24115247.4924                   24115248.9844
  -1515737.74247  -1149209.10544  23170161.5704                   23170163.4734
   -834963.61747   -616915.13745  22647127.2114                   22647126.0474
  -1436722.61746  -1099198.82044  24339665.9224                   24339668.2344
 11  8 25 17 36 30.0000000  0  9G07G08G11G13G19G23G24G28G17
   -770772.75048   -569438.03546  20376302.9534                   20376300.1254
  -1648185.97748  -1242095.02046  21250556.2424                   21250554.7424
  -1277338.30148   -958143.28545  21860482.7114                   21860480.6174
   1703325.18447   1326211.57445  22176761.7734                   22176761.1054
   1388562.28147   1085036.25845  22330747.7734                   22330743.6454
   2045225.33246   1587480.15643  24119642.4844                   24119644.5784
  -1674145.86747  -1272644.00044  23140018.0004                   23140020.1914
   -957916.12547   -712722.25445  22623730.5164                   22623728.4734
  -1630354.38346  -1250080.57444  24302819.5634                   24302820.5474
 11  8 25 17 37  0.0000000  0  9G07G08G11G13G19G23G24G28G17
   -882135.59448   -656214.30146  20355111.1334                   20355108.8094
  -1804535.99248  -1363926.19546  21220804.0634                   21220802.6764
  -1412661.15648  -1063589.65645  21834731.3984                   21834729.3444
   1712405.40648   1333286.94545  22178489.3054                   22178488.6414
   1383058.75047   1080747.74645  22329700.1174                   22329696.6294
   2068275.94546   1605441.32443  24124029.1094                   24124031.0944
  -1832420.77047  -1395975.06244  23109898.6254                   23109901.3834
  -1080800.17647   -808476.05545  22600346.5634                   22600343.9844
  -1823901.15646  -1400896.08243  24265988.1024                   24265989.9804
 11  8 25 17 37 30.0000000  0  9G07G08G11G13G19G23G24G28G17
   -993193.92248   -742753.27747  20333977.4224                   20333975.3244
  -1960767.20348  -1485664.77346  21191073.9844                   21191072.5664
  -1547595.53548  -1168733.33245  21809054.6564                   21809052.8244
   1721687.41048   1340519.55545  22180255.7194                   22180254.9844
   1377836.62947   1076678.50845  22328706.4694                   22328702.8874
   2091271.32446   1623359.47344  24128405.4924                   24128407.4924
  -1990563.10547  -1519202.84844  23079805.0004                   23079807.6024
  -1203620.63347   -904180.27345  22576974.7034                   22576972.1524
  -2017364.54746  -1551646.61344  24229173.6644                   24229175.1724
 11  8 25 17 38  0.0000000  0  9G07G08G11G13G19G23G24G28G17
  -1103949.18448   -829056.09847  20312901.6484                   20312898.8204
  -2116880.82848  -1607311.76646  21161366.8524                   21161364.5514
  -1682142.71948  -1273575.27745  21783450.5704                   21783449.3984
   1731164.82048   1347904.41445  22182058.9774                   22182058.3244
   1372889.52047   1072823.57045  22327765.0704                   22327761.2384
   2114205.07846   1641229.55943  24132770.4384                   24132772.4454
  -2148573.40647  -1642327.73843  23049736.8984                   23049739.0084
  -1326381.97347   -999838.44545  22553613.6644                   22553611.6414
  -2210746.12946  -1702333.42243  24192373.5234                   24192375.7704
 11  8 25 17 38 30.0000000  0  9G07G08G11G13G19G23G24G28G17
  -1214406.13748   -915126.46947  20291882.0394                   20291879.2704
  -2272881.83648  -1728871.00046  21131680.7274                   21131679.0824
  -1816307.08648  -1378118.94145  21757919.4844                   21757918.3444
   1740828.25447   1355434.23045  22183898.8364                   22183897.7034
   1368207.94547   1069175.53945  22326874.1174                   22326870.7424
   2137068.09846   1659044.49643  24137121.2034                   24137123.7074
  -2306455.10546  -1765352.44144  23019693.2584                   23019694.6334
  -1449091.75847  -1095456.43445  22530262.8754                   22530260.8484
  -2404050.31646  -1852959.96543  24155588.6724                   24155591.2704
 11  8 25 17 39  0.0000000  0  9G07G08G11G13G19G23G24G28G17
  -1324566.92248  -1000966.05946  20270919.1254                   20270916.4844
  -2428771.23448  -1850343.25446  21102015.9384                   21102013.9414
  -1950090.06248  -1482365.42245  21732461.3284                   21732460.2074
   1750670.43047   1363103.32845  22185771.3364                   22185770.8204
   1363785.44547   1065729.38745  22326032.8204                   22326029.2894
   2159854.00845   1676799.35242  24141456.4534                   24141460.0314
  -2464208.94547  -1888277.46544  22989673.8914                   22989674.7034
  -1571754.77347  -1191037.98045  22506920.4694                   22506918.2934
  -2597278.96146  -2003527.62143  24118818.9144                   24118821.0234
 11  8 25 17 39 30.0000000  0  9G07G08G11G13G19G23G24G28G17
  -1434433.54748  -1086576.43746  20250012.3134                   20250009.9574
  -2584550.91848  -1971730.01646  21072371.9924                   21072370.1524
  -2083493.01648  -1586315.77045  21707075.8674                   21707074.1414
   1760684.58647   1370906.44145  22187676.4304                   22187676.3634
   1359615.19947   1062479.79745  22325239.2344                   22325235.6094
   2182555.39146   1694488.47342  24145777.3754                   24145779.7704
  -2621835.66447  -2011103.41844  22959678.0394                   22959679.6884
  -1694375.68048  -1286586.72745  22483586.8754                   22483584.5664
  -2790433.88347  -2154037.82843  24082063.0314                   24082064.2584
 11  8 25 17 40  0.0000000  0  9G07G08G11G13G19G23G24G28G17
  -1544007.25448  -1171958.55946  20229161.3364                   20229158.5354
  -2740221.01648  -2093031.38746  21042749.0634                   21042747.0514
  -2216516.39548  -1689970.34445  21681762.6954                   21681760.2704
   1770864.73047   1378838.88745  22189613.8444                   22189614.1604
   1355691.31347   1059422.17645  22324492.6954                   22324489.2854
   2205167.05146   1712107.63343  24150079.9224                   24150083.3014
  -2779335.15647  -2133830.25444  22929707.1954                   22929708.3714
  -1816958.48847  -1382105.75445  22460259.9694                   22460257.6724
  -2983516.08346  -2304491.34343  24045319.8524                   24045321.6334
 11  8 25 17 40 30.0000000  0  9G07G08G11G13G19G23G24G28G17
    -77865.12948    -29510.17246  20508158.9304                   20508156.1644
  -1320357.01648   -986643.84846  21312939.9844                   21312937.8244
   -773736.57848   -565726.31245  21956314.8364                   21956312.5084
   3356624.68447   2614495.85945  22491374.5314                   22491374.2544
   2927428.32847   2284152.27045  22623584.2034                   22623580.3524
   3803102.83246   2957252.04342  24454158.6564                   24454160.9574
  -1361281.85947  -1028853.59044  23199554.1024                   23199554.5474
   -364082.94147   -249994.92245  22736732.9064                   22736730.6844
  -1601099.67647  -1227283.66843  24308385.8134                   24308386.5274
 11  8 25 17 41  0.0000000  0  9G07G08G11G13G19G23G24G28G17
   -186853.02748   -114435.82047  20487419.2344                   20487416.7234
  -1475806.89848  -1107773.62946  21283358.8364                   21283356.5824
   -906000.07048   -668788.76245  21931146.3834                   21931143.8364
   3367121.57047   2622675.08645  22493372.0634                   22493371.8554
   2923982.77047   2281467.37945  22622928.5634                   22622924.9694
   3825520.80146   2974720.22743  24458424.8284                   24458427.4304
  -1518523.42647  -1151379.43044  23169631.3674                   23169632.3134
   -486598.48847   -345461.55545  22713419.0004                   22713417.4414
  -1794035.88347  -1377623.47344  24271670.7734                   24271671.7304
 11  8 25 17 41 30.0000000  0  9G07G08G11G13G19G23G24G28G17
   -295549.87948   -199134.68446  20466734.9924                   20466732.1524
  -1631148.09448  -1228818.70346  21253798.3524                   21253796.4344
  -1037884.78948   -771556.07045  21906049.1724                   21906047.1214
   3377767.64547   2630970.57845  22495398.1804                   22495397.4654
   2920768.02047   2278962.31645  22622316.8914                   22622313.5664
   3847833.65646   2992106.53943  24462671.0234                   24462672.8834
  -1675636.02047  -1273804.77744  23139733.6254                   23139734.8914
   -609085.88347   -440906.25045  22690110.7974                   22690108.2464
  -1986900.59047  -1527907.57044  24234969.3674                   24234970.7344
 11  8 25 17 42  0.0000000  0  9G07G08G11G13G19G23G24G28G17
   -403954.39148   -283605.74646  20446106.4924                   20446103.3874
  -1786378.52748  -1349777.46946  21224258.8204                   21224257.6334
  -1169388.72348   -874026.66445  21881024.7194                   21881022.7734
   3388559.69947   2639379.82844  22497451.9454                   22497451.2034
   2917780.44947   2276634.29745  22621748.3914                   22621745.1294
   3870038.53946   3009408.77043  24466896.6724                   24466899.3834
  -1832616.60947  -1396127.26244  23109860.8594                   23109863.0474
   -731546.65647   -536330.20345  22666806.7894                   22666804.8834
  -2179692.01247  -1678134.56644  24198282.4694                   24198284.2734
 11  8 25 17 42 30.0000000  0  9G07G08G11G13G19G23G24G28G17
   -512069.65248   -367851.41847  20425532.5474                   20425530.1454
  -1941500.82448  -1470651.96946  21194740.2814                   21194738.6024
  -1300514.74648   -976202.78945  21856072.4304                   21856070.2424
   3399489.36747   2647896.32444  22499531.7504                   22499530.9454
   2915012.39547   2274477.31345  22621221.9384                   22621218.0634
   3892126.88346   3026620.15243  24471099.8754                   24471102.0904
  -1989467.62147  -1518348.79744  23080013.8054                   23080015.8634
   -853986.80947   -631738.09845  22643507.0474                   22643504.7814
  -2372413.47747  -1828307.08244  24161608.5164                   24161610.5084
 11  8 25 17 43  0.0000000  0  9G07G08G11G13G19G23G24G28G17
   -619893.39148   -451869.93746  20405014.6724                   20405011.5394
  -2096512.10248  -1591439.98046  21165242.8834                   21165240.5664
  -1431259.84048  -1078082.08645  21831192.2274                   21831190.3914
   3410554.27747   2656518.20344  22501637.0004                   22501636.3754
   2912461.59447   2272489.62945  22620736.2894                   22620732.5124
   3914097.03546   3043739.35243  24475281.4064                   24475283.0354
  -2146185.27347  -1640466.39144  23050191.8674                   23050193.0084
   -976406.57047   -727130.10245  22620211.1484                   22620209.4384
  -2565062.28147  -1978422.96144  24124948.9224                   24124950.9184
 11  8 25 17 43 30.0000000  0  9G07G08G11G13G19G23G24G28G17
   -727426.14548   -535661.70746  20384551.3914                   20384548.9414
  -2251412.09448  -1712141.27346  21135766.1954                   21135764.1294
  -1561624.27747  -1179664.77745  21806384.5474                   21806382.8364
   3421748.69147   2665240.97344  22503768.1174                   22503767.0784
   2910122.55947   2270666.96545  22620290.8754                   22620288.1484
   3935944.00446   3060762.59043  24479438.7974                   24479440.9414
  -2302768.72347  -1762479.42644  23020394.0784                   23020395.9264
  -1098809.50447   -822508.98845  22596918.8204                   22596916.9304
  -2757638.62547  -2128482.37544  24088301.9924                   24088304.0164
 11  8 25 17 44  0.0000000  0  8G07G08G11G13G19G24G28G17
   -834668.64548   -619227.30946  20364144.2194                   20364141.1724
  -2406200.65648  -1832755.72746  21106311.0164                   21106308.8014
  -1691608.12548  -1280950.90645  21781649.3134                   21781647.9264
   3433067.56347   2674060.73044  22505922.0944                   22505921.4694
   2907990.35947   2269005.45345  22619885.0234                   22619882.1954
  -2459217.36747  -1884387.42644  22990622.6644                   22990624.1644
  -1221198.91047   -917877.35245  22573629.2734                   22573626.5044
  -2950142.64147  -2278485.44144  24051670.6024                   24051671.4064
 11  8 25 17 44 30.0000000  0  8G07G08G11G13G19G24G28G17
   -941622.27348   -702567.81646  20343791.4924                   20343788.6254
  -2560878.83648  -1953284.17646  21076876.6954                   21076874.7114
  -1821212.36348  -1381941.23045  21756986.3444                   21756985.1994
   3444504.37148   2682972.36344  22508098.5634                   22508097.9064
   2906058.67247   2267500.21545  22619517.6414                   22619514.3524
  -2615531.21147  -2006190.37144  22960877.7114                   22960878.7384
  -1343578.58247  -1013238.11745  22550341.1884                   22550338.5124
  -3142576.22747  -2428433.60544  24015051.6334                   24015052.3834
 11  8 25 17 45  0.0000000  0  8G07G08G11G13G19G24G28G17
  -1048286.45348   -785682.77346  20323494.0784                   20323491.5434
  -2715446.05547  -2073726.14546  21047463.0004                   21047461.8054
  -1950436.36748  -1482635.26645  21732395.8984                   21732394.2304
   3456054.70747   2691972.48444  22510296.6884                   22510296.1454
   2904323.45747   2266148.05145  22619187.4384                   22619184.3634
  -2771708.46947  -2127886.88344  22931158.0944                   22931158.8634
  -1465951.28147  -1108593.46145  22527054.4064                   22527051.8524
  -3334938.21146  -2578325.99643  23978445.2344                   23978447.3014
 11  8 25 17 45 30.0000000  0  8G07G08G11G13G19G24G28G17
  -1154658.43448   -868570.05946  20303252.1414                   20303249.5044
  -2869898.12948  -2194078.40246  21018071.9534                   21018070.0124
  -2079276.32448  -1583030.04345  21707879.0944                   21707877.1374
   3467716.85947   2701059.72344  22512515.8984                   22512515.1604
   2902783.34847   2264947.91045  22618894.1804                   22618891.1334
  -2927744.55547  -2249473.40644  22901464.9534                   22901465.5944
  -1588315.92647  -1203942.52745  22503769.2664                   22503766.4064
  -3527225.30546  -2728160.00443  23941854.5944                   23941855.8954
 11  8 25 17 46  0.0000000  0  8G07G08G11G13G19G24G28G17
  -1260736.76248   -951228.52047  20283065.8594                   20283063.4924
  -3024233.09048  -2314339.40246  20988703.0634                   20988700.9454
  -2207730.52348  -1683124.22345  21683434.6484                   21683432.9694
   3479487.55547   2710231.55944  22514755.5474                   22514755.0164
   2901435.12947   2263897.32445  22618637.8594                   22618634.4224
  -3083637.03947  -2370948.00844  22871799.9924                   22871800.4454
  -1710674.18447  -1299286.60945  22480484.8984                   22480483.1334
  -3719436.02046  -2877934.51643  23905278.2344                   23905280.1954
 11  8 25 17 46 30.0000000  0  8G07G08G11G13G19G24G28G17
  -1366526.66448  -1033662.23046  20262935.0474                   20262932.1914
  -3178455.43448  -2434512.65246  20959355.4614                   20959353.4454
  -2335803.95347  -1782921.70345  21659063.1644                   21659060.8164
   3491356.41447   2719479.86744  22517014.0234                   22517014.1024
   2900268.85547   2262988.51645  22618415.9384                   22618413.0704
  -3239389.96147  -2492313.88744  22842160.8284                   22842161.8754
  -1833034.04747  -1394631.94945  22457200.8134                   22457198.7034
  -3911575.43746  -3027653.45744  23868715.6484                   23868717.1024
 11  8 25 17 47  0.0000000  0  8G07G08G11G13G19G24G28G17
  -1472027.89548  -1115870.98846  20242858.7114                   20242855.7464
  -3332564.42648  -2554597.56646  20930029.7424                   20930027.6254
  -2463495.85247  -1882421.88745  21634764.0314                   21634761.6844
   3503318.98447   2728801.17644  22519290.2664                   22519290.6954
   2899280.48447   2262218.30145  22618228.0944                   22618224.8984
  -3395001.56247  -2613569.62544  22812549.2814                   22812550.0784
  -1955397.56647  -1489980.12945  22433915.6884                   22433913.3914
  -4103642.80946  -3177316.25044  23832165.8284                   23832167.5554
 11  8 25 17 47 30.0000000  0  9G07G08G11G13G19G26G24G28G17
  -1577245.70348  -1197858.91046  20222836.4454                   20222834.0704
  -3486564.45348  -2674597.57846  20900724.2894                   20900722.4924
  -2590811.31247  -1981628.72745  21610536.3674                   21610534.1374
   3515365.37547   2738187.81644  22521582.6174                   22521582.9534
   2898460.04747   2261578.96145  22618072.0084                   22618068.6294
   2705558.47714                  24114529.742
  -3550475.75447  -2734718.32844  22782963.4064                   22782964.5634
  -2077773.10547  -1585337.67245  22410628.8594                   22410626.4844
  -4295643.02046  -3326926.72344  23795630.0784                   23795631.2464
 11  8 25 17 48  0.0000000  0  9G07G08G11G13G19G26G24G28G17
  -1682180.44948  -1279626.26246  20202867.9064                   20202864.8834
  -3640454.96948  -2794512.26246  20871440.2584                   20871438.0904
  -2717750.11747  -2080542.07845  21586381.1334                   21586379.0784
   3527490.02747   2747635.43844  22523890.4534                   22523890.0824
   2897802.01647   2261066.14845  22617947.0944                   22617943.8204
                                  24080536.945
  -3705811.65247  -2855759.21944  22753404.2274                   22753404.6334
  -2200163.72347  -1680706.96945  22387338.2194                   22387335.8244
  -4487576.71147  -3476485.35944  23759105.3284                   23759107.3634
 11  8 25 17 48 30.0000000  0  8G07G08G11G13G19G24G28G17
  -1786828.42248  -1361170.14847  20182954.4304                   20182951.2624
  -3794231.28948  -2914337.95746  20842176.8054                   20842174.9844
  -2844307.93747  -2179158.55945  21562298.2424                   21562295.9414
   3539692.42647   2757143.62145  22526213.1804                   22526212.4734
   2897306.85547   2260680.27345  22617852.6024                   22617849.5904
  -3861003.94547  -2976688.22744  22723871.2814                   22723872.3284
  -2322567.47747  -1776086.49245  22364045.5784                   22364043.3714
  -4679439.10947  -3625988.47344  23722595.4144                   23722596.9264
 11  8 25 17 49  0.0000000  0  8G07G08G11G13G19G24G28G17
   -315766.87948   -214888.43747  20462888.0864                   20462885.1724
  -2372468.60948  -1806470.93746  21112729.4924                   21112727.8204
  -1395061.24647  -1049875.41045  21838079.7034                   21838078.5164
   5127386.57447   3994307.71944  22828341.0474                   22828340.6644
   4472388.82047   3488016.81345  22917580.4304                   22917577.2704
  -2440626.81647  -1869900.82043  22994160.6644                   22994161.3284
   -869563.75048   -643875.78145  22640543.0394                   22640540.6334
  -3295804.57447  -2547831.61344  23985893.0784                   23985893.9964
 11  8 25 17 49 30.0000000  0  9G07G08G11G13G19G26G24G28G17
   -419840.74648   -295984.97746  20443083.3914                   20443080.4884
  -2526014.78548  -1926117.30546  21083510.8594                   21083508.8594
  -1520856.33248  -1147897.55145  21814142.4144                   21814140.9844
   5139730.23047   4003925.96944  22830689.9304                   22830689.2934
   4472205.09847   3487873.60545  22917545.6254   22917542.2814   24278674.336
  -2595527.45346  -1990602.55944  22964683.3134                   22964684.0434
   -992001.82047   -739282.05145  22617244.1644
                                  22617241.2194
  -3487523.96547  -2697223.27044  23949409.5314                   23949410.7974
 11  8 25 17 50  0.0000000  0  9G07G08G11G13G19G26G24G28G17
   -523626.80548   -376857.24646  20423333.5084                   20423331.0904
  -2679443.73448  -2045672.32846  21054313.9614                   21054312.1844
  -1646268.67648  -1245621.46145  21790276.8914                   21790275.7234
   5152138.12947   4013594.28944  22833051.3834                   22833051.0594
   4472171.23847   3487847.16445  22917539.2034   22917536.6374
   4444591.285 6                  24244896.828
  -2750279.51647  -2111188.55143  22935235.1644                   22935235.8874
  -1114459.89147   -834703.91445  22593940.8134                   22593938.9804
  -3679170.62147  -2846558.23844  23912940.5084                   23912941.6454
 11  8 25 17 50 30.0000000  0  9G07G08G11G13G19G26G24G28G17
   -627120.80148   -457501.93047  20403639.2584                   20403636.5784
  -2832750.64148  -2165132.24246  21025140.8594                   21025139.2774
  -1771293.33247  -1343043.27745  21766486.0704                   21766483.5164
   5164609.84847   4023312.34444  22835425.0704                   22835424.4574
   4472287.04747   3487937.34045  22917561.6334   22917558.3834
   4267391.21146   3618506.10953  24211176.5394                   24211176.6374
  -2904877.34846  -2231654.34444  22905816.0394                   22905817.0594
  -1236936.49648   -930140.21145  22570634.1414                   22570631.8634
  -3870739.91846  -2995832.92644  23876485.4774                   23876486.5394
 11  8 25 17 51  0.0000000  0  9G07G08G11G13G19G26G24G28G17
   -730325.56648   -537921.23847  20384000.4384                   20383997.4414
  -2985937.20748  -2284498.39546  20995990.5944                   20995988.5234
  -1895933.14548  -1440165.19545  21742767.9774                   21742765.4964
   5177137.97747   4033074.35944  22837808.5084                   22837809.1684
   4472545.12547   3488138.38745  22917610.9924   22917607.4774
   4090482.56346   3480655.27043  24177511.5004                   24177512.1804
  -3059322.14146  -2352000.88744  22876426.5164                   22876426.9184
  -1359436.61347  -1025594.82845  22547323.3364                   22547320.6054
  -4062234.04746  -3145049.00844  23840044.9384                   23840046.8484
 11  8 25 17 51 30.0000000  0  9G07G08G11G13G19G26G24G28G17
   -833235.61348   -618110.89846  20364417.2034                   20364414.4734
  -3138997.05548  -2403765.81646  20966864.3134                   20966861.6914
  -2020182.13348  -1536982.57045  21719124.5784                   21719121.8634
   5189723.06647   4042880.74244  22840204.2734                   22840204.2624
   4472946.60547   3488451.18045  22917687.2194   22917683.9024
   3913872.26246   3343036.90243  24143903.7814                   24143903.6914
  -3213607.06647  -2472222.85944  22847066.5944                   22847067.2974
  -1481957.72747  -1121065.81245  22524007.8594                   22524004.9104
  -4253647.59846  -3294202.34044  23803620.4614                   23803621.7664
 11  8 25 17 52  0.0000000  0  9G07G08G11G13G19G26G24G28G17
   -935850.00848   -698070.19147  20344890.0164                   20344887.6644
  -3291928.58648  -2522933.25046  20937762.1484                   20937760.3014
  -2144039.70348  -1633494.97345  21695554.1724                   21695552.6134
   5202361.27347   4052728.52044  22842609.0784                   22842609.8674
   4473487.79747   3488872.83245  22917790.4924   22917787.0204
   3737561.93446   3205652.29343  24110353.2194                   24110353.6294
  -3367730.07047  -2592318.67644  22817738.8204                   22817738.6564
  -1604501.55147  -1216554.48445  22500688.6414                   22500686.5944
  -4444979.48047  -3443291.98844  23767211.3834                   23767212.6724
 11  8 25 17 52 30.0000000  0  9G07G08G11G13G19G26G24G28G17
  -1038166.26648   -777797.16447  20325420.2194                   20325417.4614
  -3444728.16048  -2641997.85246  20908685.5864                   20908683.2814
  -2267502.81248  -1729699.97345  21672060.3444                   21672058.5354
   5215050.50047   4062616.04744  22845023.9924                   22845023.9694
   4474166.64847   3489401.76245  22917919.2734   22917916.1604
   3561555.08247   3068504.19543  24076860.1484                   24076860.1564
  -3521687.25447  -2712285.26644  22788442.3054                   22788441.6724
  -1727067.94547  -1312060.73045  22477365.2664                   22477363.4064
  -4636226.89147  -3592315.83644  23730818.1804                   23730819.1644
 11  8 25 17 53  0.0000000  0  9G07G08G11G13G19G26G24G28G17
  -1140187.69548   -857294.39547  20306005.8984                   20306003.3524
  -3597398.59448  -2760961.82446  20879633.3914                   20879631.2114
  -2390574.13747  -1825599.71145  21648640.3204                   21648638.7624
   5227782.91047   4072537.20744  22847447.2424                   22847447.0204
   4474975.66847   3490032.11745  22918073.6254   22918070.1644
   3385849.62547   2931590.89143  24043424.6414                   24043424.6564
  -3675480.15247  -2832123.84044  22759175.2344                   22759176.3914
  -1849662.62947  -1407589.02745  22454035.7664                   22454033.7154
  -4827392.80947  -3741276.15244  23694440.4534                   23694441.3244
 11  8 25 17 53 30.0000000  0  9G07G08G11G13G19G26G24G28G17
  -1241909.61748   -936558.24247  20286648.9224                   20286646.1334
  -3749934.15248  -2879820.71146  20850606.6484                   20850604.5274
  -2513248.59047  -1921190.18045  21625295.7974                   21625294.5944
   5240558.73047   4082492.19544  22849877.8204                   22849878.1134
   4475915.51247   3490764.42645  22918252.0784   22918248.9024
   3210451.69147   2794917.24243  24010047.7274                   24010047.1954
  -3829102.77747  -2951829.72744  22729941.6024                   22729942.5084
  -1972283.20747  -1503137.49645  22430702.1414                   22430699.8554
  -5018471.63747  -3890168.61744  23658079.1094                   23658080.1684
 11  8 25 17 54  0.0000000  0  9G07G08G11G13G19G26G24G28G17
  -1343328.87948  -1015586.25847  20267349.3594                   20267346.5554
  -3902330.61348  -2998571.19546  20821606.8754                   20821604.4574
  -2635522.84447  -2016468.81645  21602028.5004                   21602026.3484
   5253376.10947   4092479.56344  22852317.5474                   22852318.4184
   4476984.97347   3491597.70345  22918455.7424   22918452.7664
   3035365.30146   2658486.35543  23976729.4534                   23976728.7504
  -3982550.45747  -3071399.31644  22700741.7814                   22700742.5434
  -2094928.57447  -1598705.28945  22407363.4064                   22407361.5394
  -5209459.83647  -4038990.45744  23621734.7664                   23621735.5704
 11  8 25 17 54 30.0000000  0  9G07G08G11G13G19G26G24G28G17
  -1444446.61748  -1094379.31647  20248107.3444                   20248104.6914
  -4054588.47748  -3117213.69146  20792632.5554                   20792631.1844
  -2757397.95747  -2111436.42245  21578836.6174                   21578834.0744
   5266228.94147   4102494.57444  22854763.6414                   22854763.9494
   4478178.05147   3492527.32445  22918682.9924   22918679.6374
   2860590.25446   2522298.07043  23943470.8834                   23943470.5044
  -4135822.97347  -3190832.40244  22671574.8134                   22671575.6764
  -2217603.03147  -1694295.76244  22384019.5944                   22384016.7584
  -5400358.92647  -4187742.88344  23585407.8984                   23585408.4614
 11  8 25 17 55  0.0000000  0  9G07G08G11G13G19G26G24G28G17
  -1545262.66048  -1172937.28947  20228922.6334                   20228920.1764
  -4206706.62548  -3235747.30146  20763685.9144                   20763683.6804
  -2878873.58248  -2206092.74245  21555720.3914                   21555718.3554
   5279113.53547   4112534.31344  22857215.7424                   22857215.7424
   4479490.64147   3493550.07045  22918933.1954   22918929.0864
   2686127.74646   2386353.35243  23910271.2504                   23910271.8164
  -4288918.92647  -3310127.92244  22642441.8524                   22642442.0594
  -2340308.76647  -1789910.59844  22360669.3284                   22360666.8914
  -5591168.21147  -4336425.34444  23549097.9224                   23549098.7934
 11  8 25 17 55 30.0000000  0  9G07G08G11G13G19G26G24G28G17
  -1645776.55148  -1251259.82047  20209795.6024                   20209792.8014
  -4358683.21548  -3354170.61746  20734765.9144                   20734763.7034
  -2999949.01248  -2300437.22345  21532680.3054                   21532678.3094
   5292025.53947   4122595.40244  22859672.6804                   22859673.0434
   4480919.10547   3494663.09445  22919204.5944   22919201.6214
   2511979.44146   2250653.38743  23877131.4454                   23877132.7424
  -4441836.27047  -3429284.24644  22613342.5164                   22613342.8364
  -2463047.55147  -1885551.21144  22337312.6024                   22337310.5824
  -5781886.99647  -4485037.27344  23512805.5554                   23512806.7304
 11  8 25 17 56  0.0000000  0  9G07G08G11G13G19G26G24G28G17
  -1745985.36748  -1329344.64147  20190726.7734                   20190723.4804
  -4510514.68048  -3472480.85246  20705872.6564                   20705871.1134
  -3120621.37547  -2394467.62545  21509716.8914                   21509715.2814
   5304962.89847   4132676.25444  22862135.0474                   22862135.2464
   4482461.73447   3495865.08645  22919498.6254   22919494.8754
   2338148.84846   2115201.06342  23844053.7274                   23844053.4344
  -4594570.67647  -3548298.05144  22584278.1024                   22584278.7664
  -2585819.02347  -1981217.26244  22313950.2814                   22313947.6844
  -5972512.04347  -4633576.15644  23476531.0004                   23476532.4064
 11  8 25 17 56 30.0000000  0  9G07G08G11G13G19G26G24G28G17
  -1845890.44948  -1407192.78147  20171715.5084                   20171712.3714
  -4662201.58648  -3590678.44146  20677007.8834                   20677006.0514
  -3240891.40247  -2488184.53145  21486830.3754                   21486828.5594
   5317919.70747   4142772.28144  22864600.5234                   22864601.9144
   4484112.80147   3497151.57844  22919812.2814   22919809.1414
   2164635.87546   1979996.19542  23811033.9924                   23811035.1764
  -4747122.19147  -3667169.32844  22555248.8204                   22555249.2664
  -2708626.83647  -2076911.65244  22290580.6024                   22290578.5434
  -6163044.14147  -4782042.62544  23440273.3364                   23440275.5234
 11  8 25 17 57  0.0000000  0  9G07G08G11G13G19G26G24G28G17
   -370068.03548   -257201.31647  20452554.8444                   20452552.5164
  -3238317.05148  -2481158.02746  20947964.0944                   20947962.3134
  -1785334.50847  -1353984.34045  21763813.3284                   21763811.9384
   6906311.74647   5380480.16844  23166861.8054                   23166863.0904
   6061288.75447   4726119.80945  23219938.9924   23219935.6094
   3566868.00846   3072644.66042  24077871.5234                   24077871.3874
  -3324063.45747  -2558292.34044  22826048.0704                   22826048.3714
  -1256048.53147   -945032.45344  22566997.1484                   22566995.1564
  -4778056.16847  -3702831.12144  23703828.1564                   23703830.3554
 11  8 25 17 57 30.0000000  0  9G07G08G11G13G19G26G24G28G17
   -469363.52748   -334574.44947  20433659.6564                   20433657.1724
  -3389708.90248  -2599125.70746  20919155.4924                   20919152.9144
  -1904797.02047  -1447072.00845  21741080.2344                   21741078.6414
   6919296.41447   5390597.87144  23169332.6644                   23169333.9774
   6063146.51647   4727567.35544  23220292.5084   23220289.4534
   3393996.13746   2937939.37942  24044973.9694                   24044975.3674
  -3476242.17647  -2676873.10944  22797088.9304                   22797089.8054
  -1378933.71547  -1040787.13744  22543612.7814                   22543610.0314
  -4968399.10247  -3851150.16444  23667606.9694                   23667608.9144
 11  8 25 17 58  0.0000000  0  9G07G08G11G13G19G26G24G28G17
   -568356.19548   -411711.60947  20414821.8674                   20414819.4614
  -3540953.73448  -2716978.84446  20890374.3674                   20890372.4964
  -2023857.52348  -1539846.41845  21718424.6334                   21718422.3674
   6932286.33247   5400719.66844  23171804.4224                   23171805.0044
   6065099.56647   4729089.14545  23220664.3984   23220661.4184
   3221444.41046   2803483.60542  24012139.7734                   24012139.8244
  -3628234.38747  -2795308.57444  22768165.7734                   22768166.0084
  -1501862.88346  -1136576.08244  22520220.0634                   22520217.8714
  -5158648.91847  -3999396.67644  23631403.3754                   23631404.0984
 11  8 25 17 58 30.0000000  0  9G07G08G11G13G19G26G24G28G17
   -667042.50448   -488610.05547  20396042.6414                   20396040.1454
  -3692046.73048  -2834713.65646  20861622.3054                   20861620.5164
  -2142512.46947  -1632304.81645  21695845.1644                   21695843.1884
   6945280.40247   5410844.73044  23174277.2114                   23174278.1844
   6067146.73047   4730684.29345  23221054.1174   23221050.5204
   3049217.29346   2669280.72742  23979364.1174                   23979366.0354
  -3780034.99647  -2913594.71944  22739278.2974                   22739279.3524
  -1624835.06246  -1232398.57444  22496819.5394                   22496817.5124
  -5348801.49247  -4147567.39544  23595219.0004                   23595218.8714
 11  8 25 17 59  0.0000000  0  9G07G08G11G13G19G26G24G28G17
   -765420.48848   -565268.24647  20377322.0084                   20377319.3094
  -3842985.19548  -2952328.04746  20832899.7584                   20832897.6884
  -2260759.77748  -1724445.57045  21673343.7274                   21673341.6564
   6958275.90247   5420970.88744  23176750.8674                   23176751.0394
   6069285.75447   4732350.98844  23221460.6884   23221457.8594
   2877317.41845   2535332.87542  23946652.7194                   23946655.7584
  -3931640.68047  -3031728.99644  22710429.0314                   22710429.9224
  -1747850.52346  -1328254.77344  22473410.6484                   22473407.8714
  -5538855.08247  -4295660.98044  23559052.6024                   23559052.4344
 11  8 25 17 59 30.0000000  0  9G07G08G11G13G19G26G24G28G17
   -863490.39548   -641686.37547  20358659.7974                   20358656.9184
  -3993768.34448  -3069821.41046  20804206.5944                   20804204.6684
  -2378599.58648  -1816268.78945  21650919.3754                   21650917.2154
   6971268.13347   5431094.48444  23179223.1414                   23179223.6374
   6071512.33247   4734085.94144  23221884.6414   23221882.0084
   2705746.078 6                  23914004.531
  -4083050.33647  -3149710.50844  22681616.2894                   22681617.9264
  -1870912.05546  -1424146.87544  22449992.3054                   22449989.9964
  -5728809.18746  -4443677.03944  23522904.9924                   23522905.4574
 11  8 25 18  0  0.0000000  0  9G07G08G11G13G19G26G24G28G17
   -961249.73448   -717862.52346  20340056.8754                   20340054.4224
  -4144392.48048  -3187190.87146  20775544.0234                   20775541.9924
  -2496029.02348  -1907772.23445  21628573.0634                   21628571.1174
   6984255.35547   5441214.18443  23181695.1884                   23181695.3594
   6073824.87947   4735887.85544  23222325.0704   23222321.8484
   2534506.867 6                  23881418.938
  -4234259.91047  -3267536.12144  22652842.4694                   22652843.7424
  -1994018.95747  -1520074.33244  22426566.4224                   22426563.7114
  -5918660.85946  -4591613.29344  23486777.8364                   23486778.2464
 11  8 25 18  0 30.0000000  0  9G07G08G11G13G19G26G24G28G17
  -1058704.42248   -793801.26247  20321511.8914                   20321509.0824
  -4294862.12148  -3304439.94946  20746910.0944                   20746908.3674
  -2613053.79348  -1998960.36745  21606303.6414                   21606301.7934
   6997227.15647   5451321.84843  23184163.8284                   23184163.5784
   6076213.03947   4737748.68444  23222779.3594   23222776.1954
   2363594.680 5                  23848894.164
  -4385273.48047  -3385208.99244  22624105.4304                   22624107.2194
  -2117179.57847  -1616043.64144  22403129.4454                   22403127.0044
  -6108415.59846  -4739474.02044  23450668.4614                   23450669.2734
 11  8 25 18  1  0.0000000  0  9G07G08G11G13G19G26G24G28G17
  -1155848.75848   -869498.17647  20303025.5004                   20303023.0474
  -4445170.97748  -3421563.74246  20718307.4384                   20718305.5204
  -2729668.48448  -2089828.95745  21584112.8284                   21584110.8714
   7010184.92647   5461418.57844  23186629.1724                   23186630.0594
   6078678.12947   4739669.46544  23223248.2664   23223245.2034
   2193016.223 5                  23816435.328
  -4536084.17247  -3502723.78944  22595407.4844                   22595408.2424
  -2240390.87947  -1712052.42644  22379682.4614                   22379680.6484
  -6298067.66447  -4887254.73044  23414578.7344                   23414579.6644
 11  8 25 18  1 30.0000000  0  9G07G08G11G13G19G26G24G28G17
  -1252681.60548   -944952.36347  20284599.1094                   20284596.6724
  -4595316.41448  -3538560.18746  20689735.7584                   20689733.9024
  -2845871.25448  -2180376.56645  21562000.4614                   21561998.4414
   7023124.44947   5471501.12944  23189091.4304                   23189093.0274
   6081218.01247   4741648.52744  23223732.1804   23223729.1484
   2022773.89846   2329382.84052  23784039.0234                   23784039.2584
  -4686689.18747  -3620078.30544  22566748.3284                   22566749.3014
  -2363652.87147  -1808100.73044  22356227.1024                   22356224.6294
  -6487615.09447  -5034953.91044  23378508.9224                   23378509.9264
 11  8 25 18  2  0.0000000  0  9G07G08G11G13G19G26G24G28G17
  -1349200.29348  -1020161.75047  20266232.4774                   20266229.9414
  -4745294.69548  -3655426.38746  20661196.0004                   20661194.0004
  -2961659.55148  -2270601.21945  21539966.1334                   21539964.7114
   7036044.85547   5481568.75044  23191550.0314                   23191552.1414
   6083830.78547   4743684.36744  23224228.9384   23224226.5864
   1852871.23845   2196991.25842  23751708.1484                   23751708.7154
  -4837084.45747  -3737269.37144  22538128.4224                   22538129.2814
  -2486966.03547  -1904188.89144  22332761.1094                   22332758.7234
  -6677054.69947  -5182569.08644  23342459.4454                   23342460.4344
 11  8 25 18  2 30.0000000  0  9G07G08G11G13G19G26G24G28G17
  -1445402.81648  -1095124.76647  20247925.7734                   20247923.2814
  -4895102.91848  -3772160.07046  20632688.2664                   20632686.2544
  -3077031.43748  -2360501.38745  21518011.8054                   21518009.7854
   7048943.17647   5491619.19944  23194004.5084                   23194007.1724
   6086513.87947   4745775.01244  23224739.3914   23224736.4344
   1683311.16845   2064866.50842  23719440.7814                   23719443.0004
  -4987266.81247  -3854294.54344  22509549.7274                   22509550.2344
  -2610330.59847  -2000317.10544  22309285.8754                   22309283.4304
  -6866384.66447  -5330098.82444  23306431.4614                   23306432.0434
 11  8 25 18  3  0.0000000  0  9G07G08G11G13G19G26G24G28G17
  -1541292.31248  -1169843.87147  20229678.8054                   20229676.1214
  -5044742.46548  -3888762.32846  20604212.7584                   20604211.0274
  -3191989.65248  -2450079.22345  21496136.0634                   21496134.0904
   7061812.64547   5501647.10544  23196454.3134                   23196455.8484
   6089260.64147   4747915.27044  23225263.0234   23225259.6804
   1514091.84046   1933007.34042  23687240.1564                   23687241.3554
  -5137237.28547  -3971154.61344  22481011.2344                   22481011.7774
  -2733751.23047  -2096489.00444  22285799.5864                   22285796.8634
  -7055607.07447  -5477544.78545  23270423.6414                   23270424.1684
 11  8 25 18  3 30.0000000  0  9G07G08G11G13G19G26G24G28G17
  -1636868.49248  -1244318.84047  20211490.7194                   20211488.5864
  -5194212.14548  -4005232.21546  20575769.8444                   20575767.9064
  -3306534.19548  -2539334.69545  21474339.2734                   21474336.7734
   7074649.12147   5511649.30544  23198897.6024                   23198898.3794
   6092067.36347   4750102.25045  23225796.5864   23225793.7424
   1345214.74245   1801414.84042  23655102.7664                   23655104.9024
  -5286994.19947  -4087848.27044  22452513.9384                   22452514.5394
  -2857229.94547  -2192706.18044  22262302.6334                   22262299.7624
  -7244721.46547  -5624906.57444  23234436.2584                   23234436.8954
 11  8 25 18  4  0.0000000  0  9G07G08G11G13G19G26G24G28G17
  -1732124.76248  -1318544.53547  20193364.6484                   20193361.6254
  -5343504.24648  -4121563.72746  20547360.4844                   20547358.5554
  -3420658.27048  -2628262.53945  21452621.9614                   21452619.5044
   7087454.26247   5521627.09444  23201334.3364                   23201335.0744
   6094936.54347   4752337.89844  23226342.7894   23226339.7234
   1176687.17246   1670094.71942  23623032.7504                   23623035.0634
  -5436529.92647  -4204369.58244  22424058.3674                   22424058.7854
  -2980762.21947  -2288965.07444  22238795.4144                   22238793.3364
  -7433721.01247  -5772178.85545  23198470.9454                   23198471.6994
 11  8 25 18  4 30.0000000  0  9G07G08G11G13G19G26G24G28G17
  -1827061.60248  -1392521.32046  20175298.4224                   20175295.6214
  -5492618.12548  -4237756.35946  20518985.2664                   20518983.2934
  -3534362.17648  -2716862.97745  21430985.0634                   21430982.7154
   7100223.59847   5531576.97744  23203764.2974                   23203765.0124
   6097863.52347   4754618.60544  23226899.5394   23226897.1134
   1008509.89146   1539047.54342  23591030.4144                   23591031.5084
  -5585842.80547  -4320717.25444  22395645.0004                   22395646.4264
  -3104350.69947  -2385267.77744  22215276.7114                   22215274.4184
  -7622605.34847  -5919361.37145  23162527.9224                   23162528.1294
 11  8 25 18  5  0.0000000  0  9G07G08G11G13G19G26G24G28G17
  -1921680.57448  -1466250.42247  20157293.0004                   20157290.4384
  -5641553.85248  -4353810.18746  20490643.5944                   20490641.4024
  -3647647.89548  -2805137.56645  21409427.6484                   21409425.1484
   7112950.97347   5541494.16444  23206185.8524                   23206187.9024
   6100842.44147   4756939.76644  23227466.9224   23227463.9384
    840682.03146   1408272.62942  23559094.6804                   23559095.4494
  -5734933.47347  -4436891.77744  22367273.7894                   22367275.1334
  -3227999.58247  -2481617.53144  22191747.1334                   22191744.5864
  -7811375.95347  -6066455.25444  23126605.1094                   23126605.6374
 11  8 25 18  5 30.0000000  0  9G07G08G11G13G19G26G24G28G17
   -440558.16848   -312129.08646  20439141.5474                   20439138.7894
  -4214884.30948  -3242119.63746  20762129.7274                   20762127.8754
  -2185090.56248  -1665482.49645  21687742.5944                   21687740.7154
   8701052.41447   6778975.58244  23508392.1564                   23508393.9844
   7679289.99247   5986898.81344  23527835.6884   23527832.9654
   2248631.17646   2505375.82442  23827018.2664                   23827018.5784
  -4308374.30947  -3325287.21144  22638738.7274                   22638740.1334
  -1776285.69947  -1350411.91044  22467998.8674                   22467996.7234
  -6424605.63747  -4985854.93444  23390498.7894                   23390498.5944
 11  8 25 18  6  0.0000000  0  9G07G08G11G13G19G26G24G28G17
   -534537.47348   -385359.73446  20421257.6024                   20421255.1644
  -4363455.43048  -3357889.34446  20733857.6484                   20733855.3754
  -2297534.92648  -1753101.48445  21666345.3054                   21666343.6374
   8713687.72347   6788820.99643  23510796.9844                   23510798.8444
   7682365.43846   5989295.18044  23528420.2814   23528418.1644
   2081510.12946   2375151.63342  23795216.0784                   23795216.3364
  -4457011.04747  -3441108.03144  22610453.9534                   22610454.7544
  -1900056.25447  -1446856.45744  22444446.2194                   22444443.8874
  -6613143.40247  -5132767.39144  23354621.3834                   23354620.5664
 11  8 25 18  6 30.0000000  0  9G07G08G11G13G19G26G24G28G17
   -628198.16048   -458342.12147  20403435.0394                   20403432.1684
  -4511844.04748  -3473516.85246  20705620.2194                   20705617.7234
  -2409559.90648  -1840393.67246  21645027.7664                   21645025.7234
   8726269.19947   6798624.49643  23513191.5084                   23513192.9184
   7685482.03947   5991723.61344  23529013.5394   23529010.1804
   1914742.66846   2245203.00443  23763480.9924                   23763480.7974
  -4605420.16047  -3556751.46944  22582212.1414                   22582213.6024
  -2023892.26247  -1543352.02744  22420881.2664                   22420878.6564
  -6801565.26647  -5279589.53944  23318765.6254                   23318765.0744
 11  8 25 18  7  0.0000000  0  9G07G08G11G13G19G26G24G28G17
   -721537.78148   -531074.30947  20385673.0004                   20385670.0864
  -4660046.22348  -3588999.06246  20677417.8284                   20677415.9344
  -2521162.94548  -1927357.07845  21623790.1414                   21623788.7274
   8738795.22747   6808384.75843  23515574.8054                   23515576.0594
   7688638.21547   5994182.91044  23529614.0474   23529611.3594
   1748332.00046   2115532.37143  23731814.5234                   23731814.4264
  -4753597.36747  -3672214.18744  22554015.7194                   22554015.8554
  -2147793.22347  -1639898.22345  22397303.1254                   22397301.0274
  -6989868.05547  -5426318.90644  23282932.6954                   23282932.5554
 11  8 25 18  7 30.0000000  0  9G07G08G11G13G19G26G24G28G17
   -814555.06648   -603555.34047  20367972.5474                   20367969.8834
  -4808059.44948  -3704334.05146  20649252.1564                   20649250.5164
  -2632343.00448  -2013990.87545  21602633.3524                   21602631.4534
   8751262.69147   6818099.37943  23517948.2274                   23517948.5514
   7691831.45347   5996671.06644  23530221.8914   23530219.0164
   1582280.71946   1986141.79743  23700216.0234                   23700216.1174
  -4901539.82847  -3787493.95744  22525862.9614                   22525862.5864
  -2271759.85247  -1736495.58644  22373713.6094                   22373710.9494
  -7178050.52047  -5572954.50444  23247122.2114                   23247122.8164
 11  8 25 18  8  0.0000000  0  9G07G08G11G13G19G26G24G28G17
   -907249.95748   -675785.15247  20350333.1804                   20350330.5514
  -4955882.08648  -3819520.51646  20621122.3914                   20621120.4844
  -2743099.89548  -2100294.94145  21581556.8134                   21581555.0784
   8763667.29347   6827765.03943  23520308.3364                   23520309.7584
   7695057.78147   5999185.00444  23530836.7734   23530834.0664
   1416589.72346   1857031.96943  23668686.0554                   23668685.3834
  -5049245.86747  -3902589.54344  22497755.8134                   22497755.5124
  -2395793.86347  -1833145.44144  22350110.2344                   22350107.6334
  -7366111.57047  -5719495.48845  23211335.5784                   23211336.3244
 11  8 25 18  8 30.0000000  0  9G07G08G11G13G19G26G24G28G17
   -999623.18448   -747764.32047  20332754.6254                   20332752.2424
  -5103513.93748  -3934558.32846  20593028.8984                   20593026.9144
  -2853434.34048  -2186269.83245  21560560.8364                   21560558.8094
   8776004.24647   6837378.01243  23522656.0864                   23522658.2664
   7698312.54747   6001721.11744  23531455.8204   23531452.9884
   1251259.45346   1728203.17643  23637225.0084                   23637224.3594
  -5196714.93047  -4017500.45345  22469693.3444                   22469693.3524
  -2519898.34847  -1929850.21144  22326494.4924                   22326491.7034
  -7554051.75447  -5865942.27345  23175571.5084                   23175572.9024
 11  8 25 18  9  0.0000000  0  9G07G08G11G13G19G26G24G28G17
  -1091671.36348   -819490.20747  20315238.8284                   20315236.6644
  -5250949.87148  -4049443.47746  20564972.5784                   20564970.7974
  -2963342.90648  -2271912.87145  21539645.6644                   21539644.0824
   8788272.97347   6846937.82043  23524991.3204                   23524992.9804
   7701595.12547   6004278.88744  23532080.0234   23532077.1054
   1086294.23846   1599658.91043  23605832.5784                   23605832.1484
  -5343941.75847  -4132222.61345  22441677.1644                   22441677.4104
  -2644071.24647  -2026608.29744  22302864.5234                   22302862.2934
  -7741866.99247  -6012291.72345  23139832.1564                   23139832.4964
 11  8 25 18  9 30.0000000  0  9G07G08G11G13G19G26G24G28G17
  -1183395.67248   -890963.72347  20297784.2344                   20297781.5234
  -5398189.89148  -4164175.96546  20536954.1484                   20536952.2734
  -3072826.88348  -2357225.05945  21518811.8204                   21518809.7384
   8800468.02047   6856440.18444  23527312.3754                   23527314.6484
   7704900.95347   6006854.80544  23532709.6174   23532706.5314
    921694.08646   1471399.09043  23574510.0314                   23574510.4574
  -5490926.19147  -4246755.90645  22413706.6484                   22413707.3364
  -2768315.88747  -2123422.29744  22279221.8364                   22279219.5664
  -7929558.23447  -6158544.54745  23104115.3134                   23104115.4804
 11  8 25 18 10  0.0000000  0  9G07G08G11G13G19G26G24G28G17
  -1274797.53548   -962185.98447  20280391.1954                   20280388.4344
  -5545233.54748  -4278755.46146  20508972.3914                   20508969.9884
  -3181887.73048  -2442207.53545  21498059.0314                   21498056.0204
   8812583.92647   6865880.85243  23529618.3054                   23529619.6954
   7708225.21147   6009445.06644  23533341.5004   23533338.6994
    757458.59046   1343423.39843  23543257.0554                   23543256.8554
  -5637667.84047  -4361099.98845  22385782.2274                   22385783.4414
  -2892635.84447  -2220294.98044  22255564.8284                   22255561.6954
  -8117125.98447  -6304701.13345  23068422.0864                   23068422.3134
 11  8 25 18 10 30.0000000  0  9G07G08G11G13G19G26G24G28G17
  -1365878.41048  -1033158.12547  20263058.9614                   20263056.7464
  -5692081.17248  -4393182.19146  20481028.3444                   20481026.6174
  -3290527.30948  -2526861.73845  21477385.1254                   21477382.5474
   8824615.09047   6875255.50443  23531907.1724                   23531909.6484
   7711561.88347   6012044.98844  23533976.8754   23533974.0314
    593587.16446   1215731.42643  23512073.5634                   23512072.6024
  -5784166.75447  -4475254.96545  22357904.4454                   22357905.6094
  -3017034.13347  -2317228.69944  22231892.5004                   22231890.1644
  -8304571.75447  -6450762.66045  23032752.7034                   23032752.5234
 11  8 25 18 11  0.0000000  0  9G07G08G11G13G19G26G24G28G17
  -1456635.72348  -1103878.13347  20245788.4454                   20245786.1644
  -5838728.98048  -4507453.20746  20453122.4614                   20453120.4064
  -3398742.76648  -2611185.45746  21456792.7504                   21456790.2504
   8836559.84047   6884562.80143  23534180.6024                   23534182.4304
   7714910.06347   6014653.87144  23534614.2504   23534611.9654
    430083.33646   1088325.86743  23480959.6804                   23480959.3164
  -5930418.77747  -4589217.52744  22330073.0784                   22330074.9264
  -3141510.12947  -2414222.96544  22208205.4224                   22208202.4534
  -8491892.05947  -6596726.41445  22997106.2194                   22997106.7424
 11  8 25 18 11 30.0000000  0  9G07G08G11G13G19G26G24G28G17
  -1547071.51248  -1174347.60547  20228579.1334                   20228576.9184
  -5985177.37948  -4621568.85246  20425254.0084                   20425252.1884
  -3506536.13748  -2695180.27046  21436280.0634                   21436278.1134
   8848412.26647   6893798.16843  23536436.2814                   23536438.8094
   7718263.96547   6017267.21144  23535253.1094   23535250.0744
    266946.08646    961206.01243  23449915.5784                   23449915.6764
  -6076424.45747  -4702988.15645  22302289.6564                   22302290.4694
  -3266067.78947  -2511280.86744  22184503.0634                   22184500.0124
  -8679088.52747  -6742593.68745  22961483.7974                   22961484.4104
 11  8 25 18 12  0.0000000  0  9G07G08G11G13G19G26G24G28G17
  -1637181.70748  -1244563.37547  20211431.8284                   20211429.4104
  -6131420.67248  -4735524.67246  20397425.0634                   20397423.0164
  -3613903.20348  -2778842.90245  21415848.4224                   21415846.3444
   8860172.29747   6902961.52743  23538674.7424                   23538677.1214
   7721623.74647   6019885.14144  23535892.4064   23535889.4304
    104180.66046    834375.85243  23418941.7584                   23418942.2814
  -6222178.09847  -4816562.35545  22274554.1644                   22274553.7774
  -3390704.78147  -2608400.59044  22160785.7424                   22160782.4384
  -8866156.57447  -6888360.87545  22925886.0944                   22925886.3834
 11  8 25 18 12 30.0000000  0  9G07G08G11G13G19G26G24G28G17
  -1726965.30948  -1314524.64847  20194346.6724                   20194344.2934
  -6277456.77048  -4849319.04746  20369635.3984                   20369633.2194
  -3720843.60548  -2862173.09445  21395498.7424                   21395496.9064
   8871837.16047   6912050.73443  23540894.9304                   23540897.9104
   7724986.98846   6022505.76244  23536531.3914   23536529.4494
    -58210.93446    707836.96943  23388040.1644                   23388039.6994
  -6367676.89847  -4929938.00845  22246866.6564                   22246865.8714
  -3515421.82047  -2705582.69544  22137052.7034                   22137050.2504
  -9053094.40647  -7034026.59445  22890312.4384                   22890312.4614
 11  8 25 18 13  0.0000000  0  9G07G08G11G13G19G26G24G28G17
  -1816423.62548  -1384232.45346  20177323.2584                   20177320.8714
  -6423285.26648  -4962951.63746  20341885.1254                   20341883.1374
  -3827358.53148  -2945171.73445  21375229.3594                   21375227.7194
   8883401.49246   6921061.59843  23543095.4224                   23543097.6684
   7728348.64846   6025125.15244  23537171.2424   23537168.5314
   -220229.26646    581588.94543  23357209.7664                   23357209.6024
  -6512920.87947  -5043115.07445  22219227.5944                   22219227.9024
  -3640221.96147  -2802829.55944  22113303.4844                   22113300.5664
  -9239902.81647  -7179591.48845  22854764.2974                   22854764.4774
 11  8 25 18 13 30.0000000  0  9G07G08G11G13G19G26G24G28G17
   -330137.77048   -226087.65646  20460153.8204                   20460151.2854
  -4993483.82448  -3848820.64146  20613967.1804                   20613965.2664
  -2358028.77348  -1800239.46145  21654833.4844                   21654831.7664
  10470276.80547   8157587.52343  23845067.8054                   23845070.4104
   9307120.87546   7255337.17644  23837602.1334   23837599.7074
   1193548.32046   1683233.84443  23626241.8674                   23626242.1804
  -5082487.72347  -3928491.78545  22491429.8914                   22491430.4534
  -2189687.09047  -1672542.64844  22389331.0784                   22389328.3054
  -7851159.50847  -6097453.71945  23119033.4064                   23119033.2974
 11  8 25 18 14  0.0000000  0  9G07G08G11G13G19G26G24G28G17
   -418953.61748   -295294.84446  20443252.7424                   20443250.4964
  -5138900.73048  -3962132.52746  20586295.4384                   20586293.2934
  -2463701.11748  -1882581.53945  21634724.2664                   21634722.6914
  10481619.97347   8166426.02743  23847226.0704                   23847228.1024
   9310460.61746   7257939.48044  23838236.8754   23838234.8404
   1032271.98046   1557564.00043  23595552.3524                   23595551.3284
  -5227225.25847  -4041274.25845  22463886.6334                   22463887.8754
  -2314666.83647  -1769929.44544  22365548.3134                   22365545.3054
  -8037716.26647  -6242822.51245  23083532.6954                   23083533.3594
 11  8 25 18 14 30.0000000  0  9G07G08G11G13G19G26G24G28G17
   -507447.89548   -364251.45746  20426412.8204                   20426410.5744
  -5284109.41048  -4075282.14546  20558663.1414                   20558660.9304
  -2568952.13348  -1964595.31645  21614696.1484                   21614694.4734
  10492846.83647   8175173.91843  23849363.3984                   23849364.7894
   9313783.94546   7260529.02344  23838869.8834   23838867.4844
    871367.94546   1432184.23843  23564932.9224                   23564933.0004
  -5371706.92647  -4153857.34445  22436392.1564                   22436394.2114
  -2439738.85947  -1867388.15644  22341747.6804                   22341745.0124
  -8224145.94547  -6388092.28145  23048056.1644                   23048056.9224
 11  8 25 18 15  0.0000000  0  9G07G08G11G13G19G26G24G28G17
   -595615.03948   -432953.14847  20409635.3204                   20409632.9024
  -5429102.65248  -4188263.89546  20531071.7974                   20531069.9494
  -2673776.30548  -2046276.48045  21594749.0234                   21594746.5124
  10503958.96547   8183832.41843  23851478.3444                   23851480.5124
   9317093.35946   7263107.73044  23839499.7274   23839497.3244
    710843.35546   1307100.14843  23534386.4614                   23534386.6414
  -5515925.33247  -4266235.28145  22408948.7664                   22408950.0314
  -2564899.08647  -1964915.60244  22317930.9614                   22317928.2034
  -8410442.29347  -6533258.14545  23012605.5314                   23012605.4964
 11  8 25 18 15 30.0000000  0  9G07G08G11G13G19G26G24G28G17
   -683459.27748   -501403.22747  20392919.0474                   20392916.6484
  -5573883.11348  -4301079.83646  20503520.9534                   20503518.9774
  -2778177.91448  -2127628.36745  21574881.7344                   21574879.5314
  10514948.66047   8192395.50443  23853570.4064                   23853572.5124
   9320381.01247   7265669.45744  23840126.6954   23840123.1914
    550694.84846   1182309.12943  23503911.1724                   23503910.5004
  -5659883.09447  -4378410.12945  22381554.6724                   22381555.3444
  -2690153.12147  -2062516.12544  22294095.8054                   22294093.0744
  -8596608.80547  -6678322.84845  22977178.6094                   22977178.2664
 11  8 25 18 16  0.0000000  0  9G07G08G11G13G19G26G24G28G17
   -770982.60948   -569603.24646  20376264.3444                   20376261.5744
  -5718451.53948  -4413730.57846  20476010.4774                   20476008.5354
  -2882159.32448  -2208652.83245  21555094.8984                   21555092.2424
  10525810.02047   8200858.61343  23855636.6174                   23855639.9964
   9323641.06647   7268209.69944  23840746.6174   23840743.6954
    390921.27746   1057810.28143  23473506.5634                   23473507.0824
  -5803580.84047  -4490382.35945  22354209.4614                   22354209.8524
  -2815504.71147  -2160192.67644  22270242.0554                   22270239.1414
  -8782647.13347  -6823287.67245  22941776.6094                   22941776.8984
 11  8 25 18 16 30.0000000  0  9G07G08G11G13G19G26G24G28G17
   -858184.52748   -637552.82447  20359670.2664                   20359667.8054
  -5862805.36348  -4526214.08246  20448540.7114                   20448538.6214
  -2985719.98448  -2289349.43745  21535388.1564                   21535385.5864
  10536539.53147   8209218.96943  23857678.1954                   23857681.6644
   9326870.85547   7270726.35244  23841361.2814   23841358.3324
    231524.23447    933604.80943  23443175.2734                   23443174.6484
  -5947016.27747  -4602150.18745  22326915.3444                   22326914.9344
  -2940954.94947  -2257946.10544  22246369.1804                   22246367.0904
  -8968556.09847  -6968151.71145  22906399.2344                   22906399.6054
 11  8 25 18 17  0.0000000  0  9G07G08G11G13G19G26G24G28G17
   -945062.58648   -705250.04346  20343137.7504                   20343135.3554
  -6006940.87148  -4638527.46946  20421112.6564                   20421110.8794
  -3088857.75848  -2369716.53546  21515761.2034                   21515759.3914
  10547135.44947   8217475.22743  23859695.7584                   23859697.4494
   9330068.59047   7273218.00044  23841969.9304   23841966.9344
     72507.00847    809695.29743  23412914.5784                   23412914.7504
  -6090185.59447  -4713710.66845  22299670.7424                   22299670.2154
  -3066503.35247  -2355776.03944  22222478.9064                   22222475.6334
  -9154332.86347  -7112912.71545  22871047.1724                   22871047.7504
 11  8 25 18 17 30.0000000  0  9G07G08G11G13G19G26G24G28G17
  -1031618.13748   -772695.95746  20326666.7664                   20326664.5824
  -6150857.62148  -4750670.39846  20393726.4384                   20393724.3054
  -3191574.10248  -2449755.23845  21496215.2584                   21496213.2194
  10557593.41046   8225623.95743  23861685.1484                   23861687.5164
   9333230.52047   7275681.74644  23842571.3444   23842568.9024
    -86130.62947    686081.57843  23382726.9064                   23382726.9734
  -6233088.43747  -4825063.48445  22272477.4144                   22272477.1054
  -3192152.60247  -2453684.53144  22198568.0314                   22198565.9304
  -9339977.71547  -7257570.94145  22835719.7114                   22835720.8244
 11  8 25 18 18  0.0000000  0  9G07G08G11G13G19G26G24G28G17
  -1117849.87148   -839889.54346  20310257.3204                   20310255.0514
  -6294552.74248  -4862640.62946  20366382.0314                   20366380.0744
  -3293868.28948  -2529464.99245  21476748.9534                   21476747.2704
  10567910.71146   8233663.07043  23863648.7894                   23863651.5904
   9336354.40647   7278115.85544  23843165.8834   23843163.0594
   -244386.36747    562765.44543  23352611.3914                   23352611.6174
  -6375721.68447  -4936206.23845  22245334.3594                   22245334.9694
  -3317902.62547  -2551671.55544  22174638.5864                   22174636.4964
  -9525488.99247  -7402125.09045  22800417.8364                   22800418.6294
 11  8 25 18 18 30.0000000  0  9G07G08G11G13G19G26G24G28G17
  -1203761.61748   -906833.78946  20293909.1564                   20293906.8364
  -6438028.41448  -4974439.86346  20339079.3054                   20339077.2194
  -3395743.54348  -2608848.31245  21457362.7194                   21457360.9694
  10578079.73846   8241586.62143  23865583.8134                   23865586.7234
   9339432.85246   7280514.57844  23843751.6804   23843748.8714
   -402262.97747    439744.72743  23322568.7504                   23322568.5314
  -6518087.44147  -5047140.59844  22218243.4224                   22218243.5164
  -3443758.66847  -2649741.18444  22150688.8834                   22150686.6564
  -9710869.60947  -7546577.42645  22765141.7504                   22765141.4694
 11  8 25 18 19  0.0000000  0  9G07G08G11G13G19G26G24G28G17
  -1289354.39148   -973529.49246  20277621.1564                   20277618.9384
  -6581284.20748  -5086067.76246  20311818.6564                   20311816.6684
  -3497201.45748  -2687906.42645  21438056.3134                   21438054.1804
  10588095.45746   8249390.77343  23867490.0864                   23867494.2304
   9342461.11746   7282874.16444  23844327.6484   23844325.6994
   -559760.86747    317019.13743  23292598.0474                   23292597.7274
  -6660185.46147  -5157866.28545  22191202.7504                   22191203.8404
  -3569723.47347  -2747895.56244  22126718.9224                   22126716.6334
  -9896120.47347  -7690928.64145  22729889.0474                   22729888.9064
 11  8 25 18 19 30.0000000  0  9G07G08G11G13G19G26G24G28G17
  -1374627.65648  -1039976.23046  20261394.7814                   20261392.0864
  -6724317.51248  -5197522.29346  20284600.6094                   20284598.4614
  -3598241.78148  -2766639.14545  21418828.5704                   21418826.8094
  10597955.08646   8257073.28943  23869366.9534                   23869371.1844
   9345436.59046   7285192.62944  23844894.1954   23844891.7894
   -716878.31247    194589.99244  23262700.0634                   23262699.5514
  -6802013.46147  -5268381.59045  22164214.1094                   22164214.7074
  -3695798.27047  -2846135.66444  22102728.4924                   22102725.4774
 -10081240.15647  -7835177.64845  22694661.6564                   22694661.8914
 11  8 25 18 20  0.0000000  0  9G07G08G11G13G19G26G24G28G17
  -1459581.82448  -1106174.31647  20245228.4844                   20245226.0004
  -6867127.38348  -5308802.72746  20257424.7194                   20257422.6484
  -3698865.14148  -2845046.95745  21399680.8444                   21399678.5124
  10607654.64546   8264631.02043  23871212.5704                   23871216.8404
   9348355.80946   7287467.23444  23845450.2344   23845448.2664
   -873614.78947     72457.71544  23232873.8754                   23232873.2034
  -6943570.12947  -5378685.46145  22137277.2814                   22137277.8324
  -3821984.89147  -2944462.87544  22078715.1254                   22078713.3054
 -10266228.54747  -7979324.34445  22659459.9844                   22659459.8674
 11  8 25 18 20 30.0000000  0  9G07G08G11G13G19G26G24G28G17
  -1544215.03948  -1172122.31247  20229123.1094                   20229120.8524
  -7009710.53548  -5419906.50046  20230292.0864                   20230290.0354
  -3799069.90248  -2923128.58245  21380612.6254                   21380610.0824
  10617191.72746   8272062.17643  23873028.0704                   23873031.5744
   9351217.10546   7289696.73044  23845993.9534   23845992.5784
  -1029967.42247    -49375.46944  23203120.6644                   23203120.9024
  -7084852.35247  -5488775.46545  22110391.5474                   22110392.6254
  -3948282.52047  -3042876.61344  22054681.6254                   22054679.6024
 -10451082.93447  -8123366.62545  22624282.9534                   22624283.0434
 11  8 25 18 21  0.0000000  0  9G07G08G11G13G19G26G24G28G17
  -1628528.41848  -1237821.08647  20213078.7274                   20213076.8054
  -7152066.20748  -5530833.00846  20203202.6334                   20203200.7034
  -3898857.60548  -3000885.21545  21361623.8204                   21361621.1254
  10626561.93446   8279363.30543  23874811.6644                   23874815.1804
   9354015.89146   7291877.50844  23846527.2424   23846524.8014
  -1185936.41447   -170909.73044  23173441.1094                   23173440.2734
  -7225859.50847  -5598651.14145  22083559.0004                   22083559.9614
  -4074693.69547  -3141378.81244  22030626.2584                   22030624.2194
 -10635803.96147  -8267305.01245  22589131.9144                   22589131.8204
 11  8 25 18 21 30.0000000  0  9G07G08G11G13G19G26G24G28G17
   -137096.77748    -75666.59446  20496888.9304                   20496886.9534
  -5718765.46548  -4413975.30546  20475951.0004                   20475948.7974
  -2422802.75448  -1850712.58245  21642507.4064                   21642505.0474
  12211183.87546   9514133.28543  24176355.3054                   24176358.7194
  10932171.64546   8521609.17644  24146840.3204   24146837.7934
    233906.55147    935461.44144  23443627.6254                   23443627.1094
  -5791162.89547  -4480705.69945  22356572.4144                   22356572.7194
  -2625793.41047  -2012365.60244  22306343.3524                   22306340.2814
  -9244962.39847  -7183532.30545  22853800.0784                   22853800.1994
 11  8 25 18 22  0.0000000  0  9G07G08G11G13G19G26G24G28G17
   -220767.14848   -140864.30946  20480966.6564                   20480964.5904
  -5860657.13748  -4524540.25446  20448949.6954                   20448948.0164
  -2521753.12948  -1927816.77745  21623677.9064                   21623675.8714
  12220213.19946   9521168.78543  24178073.3204                   24178076.4734
  10934839.98447   8523688.32044  24147347.9304   24147345.4614
     78711.02747    814529.90244  23414095.0784                   23414094.8594
  -5931611.39847  -4590146.02744  22329846.1484                   22329846.1764
  -2752432.57447  -2111045.46544  22282244.8754                   22282241.3594
  -9429411.20747  -7327258.57845  22818700.6254                   22818700.8554
 11  8 25 18 22 30.0000000  0  9G07G08G11G13G19G26G24G28G17
   -304116.77348   -205812.10246  20465105.7894                   20465103.8014
  -6002315.07848  -4634923.07446  20421993.3754                   20421990.9184
  -2620286.25848  -2004595.84045  21604927.1174                   21604925.3674
  12229065.86346   9528066.62543  24179758.3984                   24179762.9774
  10937437.08647   8525711.95344  24147842.6094   24147839.2584
    -76097.34047    693900.02343  23384635.9304                   23384635.6484
  -6071778.87947  -4699367.39844  22303172.5634                   22303172.8014
  -2879188.37547  -2209816.22344  22258123.6564                   22258120.7114
  -9613723.69947  -7470878.64145  22783627.0634                   22783626.3134
 11  8 25 18 23  0.0000000  0  9G07G08G11G13G19G26G24G28G17
   -387143.94548   -270508.63746  20449306.8444                   20449304.4024
  -6143735.60248  -4745120.90246  20395081.9694                   20395079.8524
  -2718400.32448  -2081048.36745  21586257.2664                   21586255.2734
  12237739.89546   9534825.25043  24181409.3914                   24181414.2704
  10939961.50847   8527678.95344  24148322.2424   24148319.9734
   -230515.55547    573574.17644  23355251.2734                   23355251.0004
  -6211661.84847  -4808367.07044  22276553.7114                   22276554.0664
  -3006060.57447  -2308677.66844  22233980.4384                   22233977.5204
  -9797897.33647  -7614390.49645  22748580.0164                   22748579.6024
 11  8 25 18 23 30.0000000  0  9G07G08G11G13G19G26G24G28G17
   -469848.30148   -334953.63346  20433568.3284                   20433565.9924
  -6284917.42248  -4855132.71546  20368215.6564                   20368213.6604
  -2816095.70348  -2157174.62545  21567666.2974                   21567664.3674
  12246232.13346   9541442.25443  24183026.5084                   24183030.4144
  10942410.97347   8529587.54743  24148789.1254   24148785.9884
   -384542.66847    453553.04743  23325940.9774                   23325939.9694
  -6351258.43447  -4917143.58245  22249990.0314                   22249989.7194
  -3133050.38747  -2407630.75444  22209815.1094                   22209812.2544
  -9981931.38747  -7757793.56645  22713559.2424                   22713558.6374
 11  8 25 18 24  0.0000000  0  9G07G08G11G13G19G26G24G28G17
   -552228.59848   -399146.10246  20417891.9454                   20417890.0164
  -6425857.04348  -4964955.80546  20341395.7504                   20341393.5594
  -2913371.61348  -2232974.02345  21549155.2424                   21549153.6884
  12254540.56646   9547916.05143  24184606.9924                   24184611.3204
  10944783.41447   8531436.12544  24149239.7584   24149237.7544
   -538176.57047    333838.34044  23296705.3134                   23296705.0234
  -6490565.73447  -5025694.68745  22223480.5784                   22223480.3914
  -3260157.62547  -2506675.35944  22185627.2974                   22185624.5554
 -10165823.60547  -7901086.12145  22678565.7584                   22678564.8794
 11  8 25 18 24 30.0000000  0  9G07G08G11G13G19G26G24G28G17
   -634286.24248   -463087.16446  20402276.7584                   20402274.4804
  -6566553.63748  -5074589.52046  20314622.1094                   20314620.4924
  -3010229.05148  -2308447.35545  21530723.8284                   21530722.2974
  12262660.74246   9554243.09443  24186152.6644                   24186156.6954
  10947074.47747   8533221.29744  24149675.7034   24149673.4734
   -691417.09047    214430.16043  23267544.4064                   23267544.0084
  -6629583.15647  -5134019.89845  22197026.4694                   22197026.7304
  -3387384.24247  -2605812.99244  22161416.8674                   22161414.0664
 -10349574.27347  -8044268.36345  22643598.9304                   22643597.9304
 11  8 25 18 25  0.0000000  0  9G07G08G11G13G19G26G24G28G17
   -716021.74648   -526777.19946  20386723.0164                   20386720.8484
  -6707006.52748  -5184033.34046  20287894.7894                   20287892.4614
  -3106668.87548  -2383595.27045  21512371.5314                   21512370.3834
  12270588.37546   9560420.08642  24187661.2974                   24187665.9614
  10949280.66046   8534940.34043  24150095.8444   24150093.0554
   -844264.05947     95328.64144  23238458.6414                   23238457.9224
  -6768309.82047  -5242118.55545  22170627.5784                   22170628.1724
  -3514732.16847  -2705045.13744  22137183.3674                   22137180.5164
 -10533183.70347  -8187340.57845  22608659.4144                   22608659.1564
 11  8 25 18 25 30.0000000  0  9G07G08G11G13G19G26G24G28G17
   -797429.76248   -590212.03546  20371231.6254                   20371229.3284
  -6847208.00448  -5293281.25446  20261215.5084                   20261213.3634
  -3202686.40648  -2458414.12945  21494100.4694                   21494098.3524
  12278325.23046   9566448.53942  24189133.8914                   24189138.7384
  10951404.05146   8536594.84443  24150499.7584   24150497.8524
   -996711.57847    -23461.64544  23209448.8594                   23209448.8634
  -6906738.96147  -5349985.38745  22144285.6804                   22144285.5704
  -3642197.68747  -2804368.91444  22112927.6174                   22112924.5394
 -10716646.01647  -8330298.15645  22573747.8834                   22573747.1214
 11  8 25 18 26  0.0000000  0  9G07G08G11G13G19G26G24G28G17
   -878511.35248   -653392.53146  20355802.6174                   20355800.0704
  -6987157.96148  -5402333.17246  20234583.8134                   20234582.1484
  -3298283.13348  -2532905.09045  21475908.7974                   21475906.5984
  12285866.80546   9572324.73842  24190569.5554                   24190574.6134
  10953439.98846   8538181.22743  24150887.8524   24150885.5394
  -1148759.89847   -141940.82843  23180514.9614                   23180514.1024
  -7044870.37947  -5457620.21545  22117999.2274                   22118000.0984
  -3769783.12147  -2903786.12545  22088648.8364                   22088645.8984
 -10899961.59047  -8473141.40245  22538863.6884                   22538863.9924
 11  8 25 18 26 30.0000000  0  9G07G08G11G13G19G26G24G28G17
   -959267.03548   -716319.08646  20340435.5394                   20340433.1564
  -7126854.70748  -5511187.78546  20208000.5864                   20207997.7704
  -3393459.31248  -2607068.34845  21457797.6094                   21457794.9964
  12293209.52346   9578045.93442  24191967.0084                   24191972.1454
  10955386.15246   8539697.60544  24151257.7034   24151256.0904
  -1300408.04347   -260108.21543  23151657.2734                   23151657.0554
  -7182702.41847  -5565021.77045  22091770.8364                   22091771.4414
  -3897489.35247  -3003297.47345  22064347.1954                   22064344.7424
 -11083129.64147  -8615869.68745  22504007.7974                   22504008.0784
 11  8 25 18 27  0.0000000  0  9G07G08G11G13G19G26G24G28G17
  -1039700.99648   -778994.93746  20325129.4304                   20325127.0904
  -7266300.45748  -5619846.80946  20181464.5704                   20181462.3524
  -3488219.73447  -2680907.64545  21439765.5554                   21439762.6994
  12300346.01246   9583606.52343  24193326.0084                   24193329.7304
  10957235.12546   8541138.27743  24151610.8524   24151607.8794
  -1451659.62546   -377966.54343  23122875.3754                   23122874.7384
  -7320237.46547  -5672191.90644  22065598.9454                   22065598.9024
  -4025321.82447  -3102907.17645  22040021.3834                   22040019.0744
 -11266153.50447  -8758485.62545  22469179.3984                   22469178.8554
 11  8 25 18 27 30.0000000  0  9G07G08G11G13G19G26G24G28G17
  -1119805.23048   -841413.85546  20309885.7664                   20309884.2194
  -7405485.75048  -5728302.89146  20154978.8204                   20154976.5354
  -3582556.97348  -2754417.19145  21421813.4614                   21421811.1134
  12307280.82446   9589009.90643  24194645.3364                   24194649.3054
  10958991.46546   8542506.76243  24151944.5784   24151942.2194
  -1602505.57846   -495508.86343  23094170.2584                   23094170.0004
  -7457466.22747  -5779123.37545  22039485.2504                   22039484.9924
  -4153273.94548  -3202610.10945  22015672.9224                   22015670.6054
 -11449025.27047  -8900983.06245  22434380.0784                   22434379.5204
 11  8 25 18 28  0.0000000  0  9G07G08G11G13G19G26G24G28G17
  -1199585.93748   -903580.67246  20294704.2274                   20294702.2304
  -7544414.69948  -5836559.22346  20128541.2894                   20128539.1414
  -3676477.43048  -2827601.96945  21403940.7584                   21403939.1294
  12314004.32046   9594248.65243  24195925.0704                   24195930.0864
  10960646.42246   8543796.27044  24152259.8364   24152257.4304
  -1752951.50847   -612739.44943  23065541.3364                   23065540.5044
  -7594393.08247  -5885819.58645  22013429.0634                   22013428.7384
  -4281352.78948  -3302411.78945  21991300.2114                   21991297.7894
 -11631749.93747  -9043365.85945  22399609.3594                   22399608.1094
 11  8 25 18 28 30.0000000  0  9G07G08G11G13G19G26G24G28G17
  -1279040.96548   -965493.70346  20279584.0944                   20279582.2034
  -7683083.32448  -5944612.70746  20102153.7274                   20102151.6604
  -3769979.38348  -2900460.64845  21386148.0784                   21386146.1684
  12320515.69947   9599322.07443  24197164.0474                   24197169.0314
  10962199.44146   8545006.30944  24152554.7424   24152553.5554
  -1902994.29347   -729655.90643  23036989.1884                   23036988.7194
  -7731014.46147  -5992277.77045  21987430.9064                   21987430.7734
  -4409557.34448  -3402311.43445  21966903.5704                   21966900.5904
 -11814324.53547  -9185631.71545  22364866.1334                   22364864.9694
 11  8 25 18 29  0.0000000  0  9G07G08G11G13G19G26G24G28G17
    217252.67648    200449.36746  20564319.8054                   20564317.5784
  -6246064.87148  -4824858.07446  20375609.1024                   20375607.1024
  -2287639.64848  -1745390.73845  21668227.9454                   21668226.1884
  13902231.49647  10831827.57843  24498155.0234                   24498160.6994
  12539067.81647   9773734.82044  24452622.8754   24452621.5864
   -477207.61346    381346.69543  23308307.6484                   23308306.9384
  -6291903.57047  -4870892.60945  22261284.5554                   22261284.5354
  -2962463.85248  -2274706.11745  22242276.3284                   22242273.8554
 -10421321.75448  -8100174.93045  22629945.7504                   22629944.9924
 11  8 25 18 29 30.0000000  0  9G07G08G11G13G19G26G24G28G17
    138445.55548    139041.18446  20549323.1254                   20549320.7034
  -6384210.59448  -4932504.10946  20349320.7894                   20349318.9534
  -2380309.15648  -1817600.76645  21650593.5554                   21650591.4494
  13908304.73046  10836559.61743  24499310.1174                   24499316.3714
  12540404.53947   9774776.34444  24452878.2114   24452875.9104
   -626444.82846    265057.96543  23279908.6884                   23279908.2154
  -6427912.19147  -4976873.30945  22235402.9454                   22235402.6334
  -3090926.12948  -2374806.58645  22217830.8984                   22217828.5394
 -10603597.59847  -8242208.00445  22595260.2894                   22595258.9694
 11  8 25 18 30  0.0000000  0  9G07G08G11G13G19G26G24G28G17
     59964.21548     77886.84446  20534388.8204                   20534386.7074
  -6522090.16448  -5039942.73846  20323083.3524                   20323081.3204
  -2472560.84448  -1889485.20745  21633038.6174                   21633036.5474
  13914156.37947  10841118.99643  24500424.3364                   24500429.0124
  12541631.09047   9775732.02044  24453111.4924   24453108.9224
   -775275.91046    149085.71543  23251586.5784                   23251586.0124
  -6563609.93447  -5082611.78145  22209579.8834                   22209580.3164
  -3219516.82848  -2475007.12545  22193360.8284                   22193358.2774
 -10785720.77747  -8384122.11745  22560602.9774                   22560601.9344
 11  8 25 18 30 30.0000000  0  9G07G08G11G13G19G26G24G28G17
    -18194.98848     16983.53146  20519515.5164                   20519513.6094
  -6659705.10548  -5147175.19146  20296895.5704                   20296893.7304
  -2564399.01248  -1961047.43045  21615562.5864                   21615559.8714
  13919779.49247  10845500.29743  24501495.2424                   24501500.1764
  12542740.80147   9776596.68444  24453322.8834   24453320.5044
   -923703.78547     33427.66043  23223341.4924                   23223341.3754
  -6698998.80947  -5188109.56245  22183816.2584                   22183816.3324
  -3348240.35548  -2575311.16845  22168865.5314                   22168863.2464
 -10967694.31247  -8525919.62945  22525974.1024                   22525974.0554
 11  8 25 18 31  0.0000000  0  9G07G08G11G13G19G26G24G28G17
    -96029.90248    -43667.08646  20504704.3444                   20504702.0084
  -6797051.75048  -5254198.55546  20270759.7734                   20270757.8954
  -2655821.84448  -2032286.00845  21598165.6484                   21598163.1414
  13925173.32446  10849702.87943  24502521.8914                   24502526.7114
  12543733.26646   9777369.92644  24453511.7894   24453508.2464
  -1071725.44947    -81913.93043  23195174.1644                   23195174.0554
  -6834075.04747  -5293363.73045  22158112.5084                   22158112.3874
  -3477095.36348  -2675717.66045  22144345.3204                   22144342.6524
 -11149515.32847  -8667598.29345  22491374.6564                   22491373.8594
 11  8 25 18 31 30.0000000  0  9G07G08G11G13G19G26G24G28G17
   -173541.63348   -104065.87546  20489954.0704                   20489951.8674
  -6934129.44548  -5361012.34846  20244675.0164                   20244673.1454
  -2746831.00448  -2103202.23845  21580847.0314                   21580844.7504
  13930333.34046  10853723.32442  24503504.1724                   24503509.3324
  12544604.69946   9778048.89143  24453677.0314   24453674.6054
  -1219341.35547   -196939.30143  23167083.8524                   23167083.4964
  -6968838.48047  -5398374.16445  22132467.7274                   22132468.2664
  -3606084.03148  -2776228.30145  22119799.3914                   22119797.3054
 -11331184.19547  -8809158.38745  22456804.5634                   22456803.7664
 11  8 25 18 32  0.0000000  0  9G07G08G11G13G19G26G24G28G17
   -250734.32848   -164216.05546  20475264.6334                   20475262.5984
  -7070940.00448  -5467617.98446  20218640.1334                   20218638.7704
  -2837430.86748  -2173799.55145  21563606.2734                   21563603.8634
  13935252.46146  10857556.04342  24504440.7344                   24504445.6454
  12545348.10946   9778628.07843  24453818.7424   24453816.5984
  -1366554.52047   -311650.87143  23139070.2664                   23139069.0744
  -7103291.36347  -5503142.61745  22106882.3364                   22106882.7854
  -3735211.13348  -2876846.81645  22095227.6414                   22095224.9104
 -11512703.97747  -8950602.30945  22422262.3594                   22422261.4414
 11  8 25 18 32 30.0000000  0  9G07G08G11G13G19G26G24G28G17
   -327605.20348   -224115.46946  20460636.7974                   20460634.9844
  -7207478.51248  -5574011.64146  20192658.5634                   20192656.3754
  -2927618.99248  -2244076.02345  21546443.5944                   21546441.4614
  13939930.43446  10861200.86742  24505330.4454                   24505336.8244
  12545964.08246   9779107.97343  24453936.1414   24453933.8094
  -1513361.46547   -426045.88743  23111133.8984                   23111133.0744
  -7237429.19947  -5607665.55145  22081356.9384                   22081356.8594
  -3864474.80548  -2977571.74245  22070629.2894                   22070626.6454
 -11694070.92647  -9091927.13745  22387749.1414                   22387748.4144
 11  8 25 18 33  0.0000000  0  9G07G08G11G13G19G26G24G28G17
   -404153.85548   -283763.80546  20446070.4774                   20446067.9184
  -7343743.07448  -5680191.82046  20166728.0784                   20166726.0744
  -3017395.43048  -2314031.69945  21529360.0704                   21529357.9184
  13944365.01245  10864655.96542  24506174.4064                   24506182.5314
  12546450.05546   9779486.58643  24454027.8284   24454027.1024
  -1659760.86347   -540123.34443  23083274.8524                   23083274.3674
  -7371249.83647  -5711941.34445  22055891.3674                   22055890.8794
  -3993875.50048  -3078403.44945  22046005.2194                   22046002.3444
 -11875284.12148  -9233132.15645  22353265.7034                   22353264.9494
 11  8 25 18 33 30.0000000  0  9G07G08G11G13G19G26G24G28G17
   -480375.75448   -343157.52346  20431565.9844                   20431563.1804
  -7479727.03948  -5786153.36746  20140850.9454                   20140849.1484
  -3106756.20747  -2383663.48445  21512354.6254                   21512352.6954
  13948557.39146  10867922.46942  24506973.5474                   24506980.8794
  12546808.01646   9779765.44143  24454096.5864   24454095.4574
  -1805747.30946   -653878.96544  23055494.6564                   23055493.9884
  -7504747.15247  -5815965.17245  22030487.5004                   22030487.8244
  -4123409.24248  -3179338.82845  22021355.6484                   22021353.4024
 -12056338.14847  -9374213.17245  22318812.0704                   22318811.2664
 11  8 25 18 34  0.0000000  0  9G07G08G11G13G19G26G24G28G17
   -556272.88748   -402298.19146  20417123.0164                   20417120.4774
  -7615430.37148  -5891896.23046  20115027.4614                   20115025.5634
  -3195703.69948  -2452973.23445  21495429.3984                   21495427.4774
  13952502.699 6                  24507723.781
  12547033.44946   9779941.03143  24454139.8284   24454138.4884
  -1951322.27747   -767314.00844  23027792.5704                   23027792.3484
  -7637921.78147  -5919737.57445  22005145.5084                   22005145.6334
  -4253078.99648  -3280380.17645  21996680.6174                   21996678.1954
 -12237234.14147  -9515171.03945  22284388.3674                   22284387.9024
 11  8 25 18 34 30.0000000  0  9G07G08G11G13G19G26G24G28G17
   -631838.27048   -461180.34446  20402743.3524                   20402741.1024
  -7750844.00048  -5997413.35946  20089259.2114                   20089257.2194
  -3284231.30548  -2521955.80545  21478582.8594                   21478580.9184
  13956205.13346  10869175.12553  24508428.6724                   24508431.5554
  12547131.08646   9780017.04343  24454159.2114   24454157.6024
  -2096477.55147   -880422.01243  23000170.1804                   23000169.9534
  -7770764.91447  -6023251.67245  21979865.8444                   21979866.0514
  -4382878.00848  -3381522.27046  21971980.7034                   21971977.6454
 -12417964.44548  -9655999.78945  22249997.0084                   22249996.2624
 11  8 25 18 35  0.0000000  0  9G07G08G11G13G19G26G24G28G17
   -707070.98848   -519803.27746  20388426.5944                   20388424.8204
  -7885965.06648  -6102702.52046  20063546.5784                   20063544.4024
  -3372338.62548  -2590610.87145  21461817.0314                   21461814.9264
  13959662.47746  10871868.78543  24509086.9774                   24509091.2154
  12547099.07046   9779992.02743  24454151.9694   24454151.3984
  -2241211.62146   -993201.83244  22972628.0394                   22972628.0704
  -7903273.94947  -6126505.44145  21954650.4224                   21954650.3364
  -4512806.42648  -3482765.17646  21947255.7734                   21947253.0744
 -12598526.95747  -9796697.78145  22215636.8914                   22215635.9924
 11  8 25 18 35 30.0000000  0  9G07G08G11G13G19G26G24G28G17
   -781961.16048   -578159.29346  20374175.6484                   20374173.7344
  -8020781.78148  -6207754.52746  20037891.9614                   20037889.6764
  -3460016.06648  -2658930.97345  21445132.7194                   21445130.2974
  13962881.98446  10874377.14143  24509700.2344                   24509704.8914
  12546945.07846   9779871.96143  24454122.7504   24454121.1334
  -2385513.84047  -1105645.09844  22945169.0234                   22945168.4064
  -8035437.35247  -6229489.89845  21929500.4304                   21929500.5044
  -4642854.71548  -3584101.50845  21922508.6254                   21922506.1484
 -12778910.98447  -9937256.69945  22181310.9844                   22181310.1054
 11  8 25 18 36  0.0000000  0  9G07G08G11G13G19G26G24G28G17
   -856504.02748   -636244.68746  20359990.6024                   20359988.7814
  -8155287.67248  -6312564.32846  20012296.3594                   20012294.3874
  -3547259.90648  -2726913.20745  21428530.6024                   21428529.1294
  13965865.00047  10876701.22343  24510268.0394                   24510273.2304
  12546670.70346   9779658.08244  24454071.1334   24454068.4774
  -2529378.93047  -1217747.73843  22917791.6954                   22917791.6024
  -8167249.26647  -6332200.46145  21904417.7584                   21904417.2074
  -4773019.25848  -3685528.41846  21897739.0394                   21897736.7774
 -12959111.31247 -10077672.47345  22147019.5314                   22147018.9064
 11  8 25 18 36 30.0000000  0  8G07G08G11G19G26G24G28G17
    644731.49248    533549.18846  20645666.5944                   20645664.6094
  -6714046.62548  -5189519.37946  20286555.4454                   20286553.4774
  -2058638.11348  -1566948.18445  21711805.9454                   21711803.8054
  14121703.35546  11006956.17243  24753789.6174   24753787.4654
  -1097372.07847   -101898.25044  23190293.7344                   23190293.6844
  -6723274.17247  -5207025.02045  22179196.5784                   22179196.6414
  -3327866.87948  -2559435.65645  22172742.7424                   22172739.9224
 -11563691.73447  -8990332.50845  22412559.6334                   22412558.5744
 11  8 25 18 37  0.0000000  0  8G07G08G11G19G26G24G28G17
    570909.67248    476025.64846  20631618.8754                   20631616.7894
  -6847896.80948  -5293818.23446  20261084.4224                   20261082.5904
  -2144988.21148  -1634233.97745  21695373.8984                   21695371.6484
  14121209.46947  11006571.24243  24753696.1954   24753693.5234
  -1240333.01247   -213296.35544  23163089.3134                   23163089.1604
  -6854350.10247  -5309162.07445  22154253.6414                   22154253.9614
  -3458237.84848  -2661023.41846  22147933.9384                   22147931.5514
 -11743494.27747  -9130438.32845  22378344.0084                   22378343.1254
 11  8 25 18 37 30.0000000  0  8G07G08G11G19G26G24G28G17
    497461.28948    418793.10546  20617642.1484                   20617640.1414
  -6981403.66448  -5397849.56646  20235679.1334                   20235676.8404
  -2230879.30148  -1701162.11345  21679029.3204                   21679027.4734
  14120614.95346  11006107.89143  24753582.4384   24753580.8054
  -1382827.75047   -324331.21544  23135972.8594                   23135972.4064
  -6985042.80947  -5411000.54345  22129383.3204                   22129383.6844
  -3588700.23447  -2762682.42245  22123107.9064                   22123104.6604
 -11923083.98448  -9270378.28946  22344169.3284                   22344168.3244
 11  8 25 18 38  0.0000000  0  8G07G08G11G19G26G24G28G17
    424402.51647    361864.16046  20603739.3204                   20603737.1374
  -7114549.11348  -5501599.28146  20210342.2734                   20210340.4344
  -2316296.15648  -1767720.71945  21662774.9454                   21662773.2854
  14119933.46146  11005576.78543  24753453.0704   24753451.5204
  -1524839.83247   -434990.00043  23108949.5704                   23108948.5314
  -7115334.66447  -5512526.64545  22104590.1254                   22104589.9104
  -3719238.32447  -2864400.41445  22098266.9454                   22098264.1684
 -12102443.78548  -9410139.12945  22310038.2894                   22310037.0664
 11  8 25 18 38 30.0000000  0  8G07G08G11G19G26G24G28G17
    351742.24248    305245.72746  20589912.5164                   20589910.6994
  -7247321.71948  -5605058.47746  20185076.0474                   20185074.4494
  -2401229.92648  -1833902.89545  21646612.7114                   21646610.8984
  14119172.08246  11004983.42244  24753308.6254   24753306.6254
  -1666359.00047   -545264.68044  23082019.5554                   23082018.2074
  -7245214.92647  -5613732.04345  22079874.5944                   22079874.5984
  -3849843.62947  -2966170.78145  22073413.7034                   22073411.0594
 -12281563.89847  -9549713.20345  22275952.4304                   22275951.8204
 11  8 25 18 39  0.0000000  0  8G07G08G11G19G26G24G28G17
    279487.97748    248943.66046  20576163.3284                   20576161.0314
  -7379712.33648  -5708219.99646  20159883.2894                   20159881.5354
  -2485673.91848  -1899703.43045  21630543.5784                   21630541.7034
  14118335.74646  11004331.65243  24753149.2974   24753147.4534
  -1807377.48047   -655149.21544  23055183.8594                   23055183.4574
  -7374674.82847  -5714609.87945  22055239.6644                   22055239.7154
  -3980509.21947  -3067988.10945  22048548.8524                   22048546.1724
 -12460435.98048  -9689093.99645  22241914.2424                   22241913.2034
 11  8 25 18 39 30.0000000  0  8G07G08G11G19G26G24G28G17
    207646.85248    192963.52046  20562492.5864                   20562489.8754
  -7511711.48048  -5811076.48446  20134764.6884                   20134763.0354
  -2569621.09048  -1965116.81645  21614569.3524                   21614567.0744
  14117429.44546  11003625.34443  24752976.9384   24752975.0984
  -1947887.00846   -764637.13743  23028446.4534                   23028445.9064
  -7503705.14547  -5815152.96545  22030686.0864                   22030686.0124
  -4111227.81248  -3169846.74645  22023674.1174                   22023671.2154
 -12639051.54348  -9828274.91845  22207924.2194                   22207924.0864
 11  8 25 18 40  0.0000000  0  8G07G08G11G19G26G24G28G17
    136223.18448    137308.67646  20548901.0084                   20548899.2704
  -7643312.77048  -5913622.94946  20109721.5864                   20109719.8954
  -2653067.89148  -2030140.31245  21598689.5784                   21598687.1454
  14116455.46546  11002866.34043  24752792.1564   24752789.6844
  -2087882.61747   -873724.65644  23001805.7814                   23001805.8524
  -7632300.20747  -5915356.89545  22006215.4924                   22006215.2894
  -4241995.96147  -3271744.00045  21998789.8674                   21998786.7624
 -12817405.70348  -9967252.14145  22173984.8444                   22173983.9494
 11  8 25 18 40 30.0000000  0  8G07G08G11G19G26G24G28G17
     65224.41848     81984.93446  20535390.1094                   20535388.3594
  -7774506.91048  -6015852.16446  20084756.5314                   20084754.6764
  -2736007.30148  -2094768.41845  21582907.0164                   21582904.6914
  14115419.08246  11002058.68043  24752594.2424   24752592.1174
  -2227356.48846   -982405.55544  22975264.4694                   22975264.8594
  -7760451.15647  -6015214.76245  21981828.5314                   21981828.4264
  -4372806.45748  -3373674.25845  21973897.4224                   21973894.5554
 -12995490.13748 -10106019.17645  22140096.6884                   22140095.7584
 11  8 25 18 41  0.0000000  0  8G07G08G11G19G26G24G28G17
     -5341.27748     26998.64846  20521962.0784                   20521960.3594
  -7905283.61348  -6117756.10246  20059870.3524                   20059868.5204
  -2818431.79348  -2158995.29345  21567221.9454                   21567219.6564
  14114326.33646  11001207.07842  24752385.8834   24752385.0664
  -2366299.34846  -1090672.74643  22948825.0164                   22948824.6884
  -7888147.87947  -6114718.69545  21957527.7894                   21957527.8954
  -4503651.50448  -3475631.42645  21948997.9924                   21948995.6174
 -13173295.42248 -10244568.69146  22106261.7194                   22106260.7814
 11  8 25 18 41 30.0000000  0  7G07G08G11G26G24G28G17
    -75465.45748    -27643.60546  20508617.8754                   20508615.6844
  -8035632.16448  -6219326.41846  20035066.0084                   20035064.3674
  -2900333.27348  -2222814.64845  21551636.5394                   21551634.3914
  -2504701.86746  -1198518.86344  22922487.7194                   22922487.4844
  -8015380.42647  -6213860.91045  21933317.0084                   21933316.5984
  -4634522.95347  -3577609.17245  21924094.0864                   21924091.5704
 -13350812.03548 -10382893.27046  22072480.9694                   22072480.1724
 11  8 25 18 42  0.0000000  0  7G07G08G11G26G24G28G17
   -145142.33248    -81937.31246  20495358.8834                   20495356.7074
  -8165544.41448  -6320556.75446  20010344.5784                   20010342.2664
  -2981706.57848  -2286222.43745  21536151.5864                   21536149.6604
  -2642557.77346  -1305939.05544  22896254.8054                   22896254.1884
  -8142141.19947  -6312635.54345  21909195.0704                   21909194.3674
  -4765415.09047  -3679603.03945  21899186.0314                   21899183.6844
 -13528033.57848 -10520987.94546  22038757.0004                   22038756.4064
 11  8 25 18 42 30.0000000  0  7G07G08G11G26G24G28G17
   -214365.04348   -135877.13346  20482186.4224                   20482184.2584
  -8295011.82048  -6421440.46946  19985707.6484                   19985705.9184
  -3062545.40247  -2349213.74245  21520768.6254                   21520766.8014
  -2779859.54747  -1412927.44143  22870126.5704                   22870126.0594
  -8268421.96547  -6411036.11345  21885164.7344                   21885164.4924
  -4896321.55947  -3781608.07445  21874275.6564                   21874272.5594
 -13704952.32048 -10658846.68745  22005089.8834                   22005090.2114
 11  8 25 18 43  0.0000000  0  7G07G08G11G26G24G28G17
   -283116.70348   -189449.89846  20469103.0784                   20469101.1024
  -8424015.48048  -6521962.81646  19961159.2194                   19961157.3794
  -3142833.33648  -2411775.78545  21505490.5004                   21505488.3204
  -2916589.78146  -1519470.51243  22844107.4454                   22844107.7624
  -8394204.19548  -6509048.22345  21861229.4304                   21861229.1094
  -5027225.66847  -3883611.27745  21849365.3284                   21849363.0864
 -13881550.32847 -10796455.46546  21971484.7274                   21971484.0124
 11  8 25 18 43 30.0000000  0  7G07G08G11G26G24G28G17
   -351385.74648   -242646.58646  20456112.0864                   20456110.0164
  -8552541.48448  -6622112.96146  19936701.3134                   19936699.6954
  -3222559.20348  -2473899.85245  21490318.7034                   21490316.8954
  -3052735.68446  -1625558.23043  22818200.4384                   22818199.7854
  -8519474.44948  -6606661.39545  21837391.5164                   21837390.9884
  -5158115.66848  -3985603.48845  21824457.7814                   21824455.1684
 -14057814.44948 -10933804.09845  21937942.8674                   21937941.9264
 11  8 25 18 44  0.0000000  0  7G07G08G11G26G24G28G17
   1156255.27748    932138.58646  20743006.2584                   20743004.6724
  -7105158.46548  -5494282.05546  20212129.3204                   20212127.4414
  -1726295.98447  -1307980.46945  21775048.4384                   21775046.2274
  -1612867.03946   -503582.67243  23092197.8134                   23092197.7624
  -7068801.85547  -5476267.15245  22113445.0004                   22113445.0474
  -3713562.41447  -2859977.57045  22099347.0704                   22099344.1844
 -12658313.35947  -9843283.71145  22204258.8204                   22204258.0594
 11  8 25 18 44 30.0000000  0  7G07G08G11G26G24G28G17
   1088965.32448    879704.81646  20730201.9064                   20730200.1054
  -7232708.77348  -5593671.91046  20187856.9384                   20187855.6564
  -1804885.60548  -1369219.14845  21760093.1804                   21760091.7544
  -1747828.69146   -608747.60543  23066515.9614                   23066515.8364
  -7193029.52047  -5573067.92245  22089805.1954                   22089805.4024
  -3844411.10248  -2961937.59445  22074447.3524                   22074444.7814
 -12833893.89148  -9980099.66045  22170847.1024                   22170846.2704
 11  8 25 18 45  0.0000000  0  7G07G08G11G26G24G28G17
   1022164.45348    827652.15646  20717490.1884                   20717488.2974
  -7359768.74648  -5692679.69546  20163678.5234                   20163677.1604
  -1882908.68448  -1430016.36745  21745246.0784                   21745244.2384
  -1882197.73446   -713450.73843  23040945.8984                   23040946.3754
  -7316734.27747  -5669461.23045  22066264.8524                   22066264.9694
  -3975239.74248  -3063881.99245  22049551.5784                   22049549.2504
 -13009131.83248 -10116648.66845  22137500.5394                   22137499.2194
 11  8 25 18 45 30.0000000  0  7G07G08G11G26G24G28G17
    955857.13748    775984.06646  20704872.4304                   20704870.1454
  -7486331.79748  -5791300.26646  20139594.2344                   20139592.6604
  -1960361.14548  -1490368.93445  21730507.5084                   21730504.8874
  -2015969.08246   -817688.14143  23015489.7114                   23015490.1994
  -7439909.80147  -5765442.15245  22042825.1884                   22042825.2774
  -4106044.03948  -3165807.41445  22024660.4304                   22024657.5354
 -13184021.31248 -10252926.12946  22104220.3594                   22104219.3484
 11  8 25 18 46  0.0000000  0  7G07G08G11G26G24G28G17
    890039.48848    724697.54346  20692347.6174                   20692345.6604
  -7612399.69548  -5889535.00046  20115604.3444                   20115602.7034
  -2037247.48448  -1550280.38345  21715876.7034                   21715874.5004
  -2149146.21146   -921462.53943  22990147.8204                   22990147.6724
  -7562558.86347  -5861012.85245  22019485.8054                   22019485.9184
  -4236828.19948  -3267717.14145  21999772.2894                   21999770.6374
 -13358565.49248 -10388934.54346  22071005.7034                   22071004.5904
 11  8 25 18 46 30.0000000  0  7G07G08G11G26G24G28G17
    824711.42248    673792.50846  20679916.3984                   20679913.9694
  -7737969.35948  -5987381.51246  20091709.6254                   20091707.4694
  -2113567.80148  -1609750.77345  21701353.2974                   21701350.7424
  -2281727.70747  -1024772.79743  22964918.9304                   22964917.8834
  -7684679.09447  -5956171.46145  21996246.8524                   21996246.8244
  -4367591.38748  -3369610.54745  21974889.5944                   21974886.8634
 -13532762.79348 -10524672.64846  22037856.7034                   22037855.7074
 11  8 25 18 47  0.0000000  0  7G07G08G11G26G24G28G17
    759871.89548    623268.14846  20667577.5634                   20667575.3204
  -7863040.68748  -6084839.70746  20067909.0784                   20067907.1914
  -2189324.29748  -1668781.80545  21686937.2734                   21686934.6914
  -2413714.87946  -1127619.95743  22939801.9304                   22939801.7114
  -7806270.56247  -6050918.03545  21973109.1484                   21973108.6414
  -4498335.39148  -3471488.99245  21950009.8674                   21950007.2814
 -13706613.96948 -10660141.06245  22004773.5704                   22004772.3714
 11  8 25 18 47 30.0000000  0  7G07G08G11G26G24G28G17
    695517.06648    573121.49246  20655331.4384                   20655329.4804
  -7987614.90648  -6181910.54746  20044203.5704                   20044201.5394
  -2264520.96147  -1727376.62145  21672627.8204                   21672625.3634
  -2545110.13347  -1230005.88743  22914798.7194                   22914797.8954
  -7927335.11747  -6145254.03545  21950071.1724                   21950070.8874
  -4629063.55548  -3573355.09846  21925132.9694                   21925130.3954
 -13880121.07448 -10795341.38746  21971756.8674                   21971755.6134
 11  8 25 18 48  0.0000000  0  7G07G08G11G26G24G28G17
    631642.99248    523349.44946  20643176.8204                   20643174.6994
  -8111694.25848  -6278595.76646  20020592.2424                   20020590.0044
  -2339162.43048  -1785538.81245  21658424.0944                   21658421.7234
  -2675917.07047  -1331933.35243  22889905.9384                   22889906.2074
  -8047875.25447  -6239181.39545  21927133.3364                   21927132.7344
  -4759779.91848  -3675212.00846  21900258.8674                   21900255.6414
 -14053287.41848 -10930276.15646  21938804.1024                   21938802.8954
 11  8 25 18 48 30.0000000  0  7G07G08G11G26G24G28G17
    568246.12548    473949.23846  20631112.6804                   20631110.7854
  -8235279.87148  -6374896.25446  19997074.2734                   19997072.7584
  -2413253.01647  -1843271.76245  21644324.8134                   21644322.8244
  -2806138.64547  -1433404.72343  22865126.3284                   22865126.0594
  -8167892.79747  -6332701.53945  21904294.6484                   21904294.7934
  -4890487.96948  -3777062.43446  21875385.6564                   21875382.8954
 -14226115.49648 -11064947.34445  21905915.8594                   21905914.6644
 11  8 25 18 49  0.0000000  0  7G07G08G11G26G24G28G17
    505320.45748    424916.19546  20619138.5234                   20619136.2504
  -8358375.53148  -6470814.96146  19973649.9844                   19973648.2934
  -2486799.21547  -1900580.50445  21630329.2424                   21630327.8874
  -2935780.33647  -1534424.23844  22840456.3054                   22840455.8324
  -8287392.21547  -6425817.96145  21881554.3364                   21881555.4734
  -5021193.59448  -3878910.96546  21850513.0634                   21850510.6174
 -14398610.20748 -11199358.76245  21873091.4924                   21873090.2504
 11  8 25 18 49 30.0000000  0  7G07G08G11G26G24G28G17
    442863.94148    376248.73846  20607253.1414                   20607251.0354
  -8480981.14548  -6566351.81646  19950319.1254                   19950317.6484
  -2559803.88347  -1957467.27745  21616437.1884                   21616434.7624
  -3064843.65247  -1634993.05143  22815896.3524                   22815895.8834
  -8406374.21947  -6518531.20345  21858913.0864                   21858913.7934
  -5151898.83248  -3980759.19146  21825640.7504                   21825638.3914
 -14570772.75448 -11333511.35946  21840329.6564                   21840328.1334
 11  8 25 18 50  0.0000000  0  7G07G08G11G26G24G28G17
    380868.03548    327940.18446  20595456.1174                   20595453.6374
  -8603102.79748  -6661511.56246  19927080.0394                   19927078.1914
  -2632275.69147  -2013938.82045  21602646.4224                   21602644.1954
  -3193336.20347  -1735117.16844  22791445.5784                   22791445.2974
  -8524845.43447  -6610846.43045  21836369.0234                   21836368.6564
  -5282611.33648  -4082613.08246  21800767.0234                   21800764.5984
 -14742609.80948 -11467410.32446  21807630.4454                   21807629.2774
 11  8 25 18 50 30.0000000  0  7G07G08G11G26G24G28G17
    319330.46148    279988.76646  20583745.6414                   20583743.5124
  -8724741.27348  -6756294.81646  19903933.0864                   19903931.2424
  -2704217.81648  -2069997.62545  21588956.3524                   21588954.0554
  -3321260.01647  -1834798.04743  22767102.4694                   22767101.4454
  -8642807.06247  -6702764.57845  21813921.4304                   21813921.7734
  -5413333.66448  -4184474.62546  21775891.1884                   21775888.5124
 -14914123.77048 -11601057.51646  21774992.6804                   21774991.4414
 11  8 25 18 51  0.0000000  0  7G07G08G11G26G24G28G17
   1833673.73048   1459996.44946  20871915.6564                   20871913.4384
  -7270469.55948  -5623096.08646  20180671.9304                   20180670.0744
  -1200207.85948   -898041.81245  21875160.2814                   21875157.7584
  -1873189.50847   -706431.44543  23042661.1024                   23042660.2304
  -7184832.72347  -5566680.64845  22091364.6884                   22091364.3914
  -3968640.78148  -3058739.90246  22050807.0004                   22050804.7974
 -13509886.60548 -10506846.70346  22042209.6884                   22042209.0084
 11  8 25 18 51 30.0000000  0  7G07G08G11G26G24G28G17
   1773041.99648   1412750.89546  20860378.3134                   20860375.7814
  -7391145.54748  -5717129.35246  20157707.7734                   20157706.5784
  -1271103.30548   -953285.03145  21861668.9534                   21861666.5904
  -1999984.69147   -805232.86343  23018531.9144                   23018532.2544
  -7301780.64547  -5657808.89545  22069110.1644                   22069110.3674
  -4099392.97348  -3160624.71546  22025925.6484                   22025923.3794
 -13680760.95347 -10639995.52045  22009693.3204                   22009692.1684
 11  8 25 18 52  0.0000000  0  7G07G08G11G26G24G28G17
   1712860.32448   1365856.02746  20848925.6094                   20848923.9414
  -7511339.51248  -5810787.00846  20134835.8284                   20134834.2894
  -1341478.79348  -1008123.09845  21848276.8054                   21848274.4574
  -2126217.39147   -903596.02043  22994510.9384                   22994510.8554
  -7418222.26247  -5748542.60545  22046951.9534                   22046951.9064
  -4230162.09048  -3262522.71946  22001041.5474                   22001038.6884
 -13851316.57048 -10772895.95345  21977237.5634                   21977237.0664
 11  8 25 18 52 30.0000000  0  7G07G08G11G26G24G28G17
   1653126.71548   1319310.30546  20837558.7734                   20837556.8364
  -7631051.25448  -5904068.90246  20112055.7894                   20112054.0004
  -1411336.98048  -1062558.04745  21834983.7504                   21834980.8874
  -2251888.96147  -1001521.93443  22970596.4224                   22970595.9924
  -7534157.94947  -5838882.09845  22024889.8364                   22024889.9884
  -4360949.96148  -3364435.34446  21976153.7504                   21976150.8714
 -14021554.32048 -10905548.71146  21944842.3594                   21944841.6764
 11  8 25 18 53  0.0000000  0  7G07G08G11G26G24G28G17
   1593844.35948   1273116.20746  20826277.4144                   20826275.9184
  -7750275.74248  -5996971.12946  20089368.0554                   20089366.2274
  -1480675.81648  -1116588.33245  21821788.3984                   21821786.1254
  -2376995.99647  -1099007.95743  22946789.4384                   22946789.1094
  -7649583.05547  -5928823.71945  22002925.6334                   22002925.7194
  -4491753.07048  -3466359.83246  21951262.3524                   21951259.5474
 -14191470.04348 -11037950.53546  21912508.8204                   21912507.3754
 11  8 25 18 53 30.0000000  0  7G07G08G11G26G24G28G17
   1535018.03948   1227277.46146  20815083.6564                   20815081.8594
  -7869005.71948  -6089488.01646  20066774.1484                   20066772.3094
  -1549490.57047  -1170210.21945  21808693.3914                   21808691.3634
  -2501532.87147  -1196049.69943  22923091.4304                   22923090.3914
  -7764491.26248  -6018362.58245  21981059.1414                   21981059.7464
  -4622566.14547  -3568292.09846  21926369.4774                   21926366.9024
 -14361057.47348 -11170096.52046  21880237.1174                   21880236.0274
 11  8 25 18 54  0.0000000  0  7G07G08G11G26G24G28G17
   1476646.15248   1181792.82446  20803975.9304                   20803974.3594
  -7987240.94548  -6181619.37946  20044274.8914                   20044272.8984
  -1617783.71947  -1223425.66045  21795697.5784                   21795695.2304
  -2625500.78547  -1292648.08644  22899500.8444                   22899500.5744
  -7878882.70347  -6107498.75045  21959291.3284                   21959291.7344
  -4753390.36748  -3670233.04346  21901474.2274                   21901471.7504
 -14530317.32448 -11301987.25446  21848027.8134                   21848026.7584
 11  8 25 18 54 30.0000000  0  7G07G08G11G26G24G28G17
   1418730.35948   1136663.57846  20792954.3834                   20792952.9184
  -8104977.15248  -6273361.91046  20021870.6884                   20021868.4614
  -1685554.02047  -1276233.69545  21782801.3204                   21782798.9414
  -2748897.44547  -1388801.34443  22876018.5704                   22876019.3134
  -7992753.97747  -6196229.60945  21937622.0634                   21937622.5234
  -4884223.55148  -3772180.97745  21876577.5554                   21876574.9774
 -14699246.79748 -11433620.56646  21815881.7734                   21815880.5784
 11  8 25 18 55  0.0000000  0  7G07G08G11G26G24G28G17
   1361277.62948   1091895.16046  20782022.1954                   20782020.2234
  -8222205.61748  -6364708.78546  19999562.3054                   19999560.4774
  -1752795.18748  -1328629.42645  21770005.9534                   21770004.3364
  -2871715.46147  -1484503.70343  22852646.7274                   22852647.0004
  -8106096.79747  -6284548.68445  21916053.9774                   21916054.0984
  -5015058.57448  -3874130.33645  21851680.2194                   21851678.2114
 -14867837.94148 -11564990.25446  21783799.6724                   21783798.7814
 11  8 25 18 55 30.0000000  0  7G07G08G11G26G24G28G17
   1304287.68448   1047487.35546  20771177.4144                   20771175.5864
  -8338923.85548  -6455658.08246  19977351.9304                   19977350.5354
  -1819508.10248  -1380613.54745  21757310.8444                   21757308.8244
  -2993954.20347  -1579754.67644  22829386.3674                   22829385.9224
  -8218909.75047  -6372454.87145  21894586.4694                   21894586.3244
  -5145894.65648  -3976080.52345  21826783.1564                   21826780.2974
 -15036089.57048 -11696095.38346  21751782.3754                   21751781.3874
 11  8 25 18 56  0.0000000  0  7G07G08G11G26G24G28G17
   1247768.30548   1003446.22746  20760422.3524                   20760420.1764
  -8455122.23448  -6546202.30146  19955240.0554                   19955238.3404
  -1885685.89148  -1432180.66045  21744717.6024                   21744715.5554
  -3115605.94147  -1674548.25843  22806236.4774                   22806236.6684
  -8331183.55947  -6459940.94945  21873221.3594                   21873220.6724
  -5276723.77048  -4078025.28945  21801887.5394                   21801884.3714
 -15203993.11748 -11826929.27046  21719831.6484                   21719830.2814
 11  8 25 18 56 30.0000000  0  7G07G08G11G26G24G28G17
   1191720.82448    959772.81346  20749756.3834                   20749754.9574
  -8570797.39148  -6636338.80546  19933228.0394                   19933225.9804
  -1951327.72748  -1483330.16045  21732226.5314                   21732224.6134
  -3236668.75447  -1768882.95343  22783199.5004                   22783198.9264
  -8442915.38747  -6547004.69145  21851959.6644                   21851958.7934
  -5407544.15248  -4179963.25045  21776993.1414                   21776990.6684
 -15371546.03548 -11957489.94546  21687947.3754                   21687945.8204
 11  8 25 18 57  0.0000000  0  7G07G08G11G26G24G28G17
   1136151.69948    916472.13746  20739181.8834                   20739180.7814
  -8685940.37148  -6726060.63746  19911317.0394                   19911314.8914
  -2016427.44548  -1534057.23445  21719838.2664                   21719836.4804
  -3357135.41447  -1862753.12143  22760275.3674                   22760275.3674
  -8554097.34447  -6633639.96945  21830802.3754                   21830801.5354
  -5538348.39848  -4281888.64146  21752101.7734                   21752099.1334
 -15538740.64148 -12087771.41046  21656130.9614                   21656129.7304
 11  8 25 18 57 30.0000000  0  7G07G08G11G26G24G28G17
   1081062.94548    873545.78546  20728699.0394                   20728697.6884
  -8800546.85948  -6815364.42646  19889508.0864                   19889506.1994
  -2080984.08648  -1584361.12145  21707553.6254                   21707551.9534
  -3477003.51247  -1956156.84444  22737464.9144                   22737465.0164
  -8664725.98447  -6719844.07845  21809750.6174                   21809750.3594
  -5669133.98448  -4383799.49245  21727214.5084                   21727211.1054
 -15705573.51648 -12217771.00046  21624383.6484                   21624382.2934
 11  8 25 18 58  0.0000000  0  7G07G08G11G26G24G28G17
   1026461.21948    830998.93046  20718308.8444                   20718306.9924
  -8914608.01248  -6904243.26646  19867802.7194                   19867801.0704
  -2144991.41048  -1634236.98045  21695373.3594                   21695372.1294
  -3596266.23047  -2049088.85543  22714769.8284                   22714769.5864
  -8774793.02747  -6805610.59445  21788805.3754                   21788805.1644
  -5799893.68448  -4485690.16846  21702331.2584                   21702328.4574
 -15872036.76648 -12347482.57846  21592706.8594                   21592705.1564
 11  8 25 18 58 30.0000000  0  7G07G08G11G26G24G28G17
   2547772.87948   2016436.53146  21007804.8524                   21007802.9454
  -7452693.55948  -5765089.16846  20145996.1334                   20145994.6884
   -633023.15248   -456079.91845  21983091.5084                   21983089.9804
  -2139494.18047   -913941.85243  22991984.7424                   22991984.6564
  -7308868.93448  -5663332.05545  22067761.6564                   22067761.4414
  -4355197.82848  -3359953.13746  21977247.6724                   21977245.0044
 -14462699.60948 -11249297.73046  21860894.4454                   21860893.3634
 11  8 25 18 59  0.0000000  0  7G07G08G11G26G24G28G17
   2494152.05948   1974654.02046  20997601.3054                   20997599.0554
  -7565651.15248  -5853108.07846  20124500.9454                   20124499.4884
   -695926.85248   -505095.82445  21971121.3524                   21971119.8444
  -2257537.21147  -1005923.46944  22969521.8914                   22969521.7234
  -7417801.56247  -5748214.62145  22047032.5234                   22047032.1294
  -4485896.58248  -3461796.32446  21952376.7734                   21952374.3054
 -14628413.92248 -11378425.73446  21829360.3914                   21829358.9884
 11  8 25 18 59 30.0000000  0  7G07G08G11G26G24G28G17
   2441029.43048   1933259.69946  20987492.4534                   20987490.6644
  -7678045.64548  -5940688.22746  20103112.9844                   20103111.3984
   -758271.87148   -553676.38345  21959257.3754                   21959256.0434
  -2374961.70347  -1097423.11743  22947176.8674                   22947176.6214
  -7526156.70747  -5832647.18745  22026412.5634                   22026412.5784
  -4616555.78148  -3563608.69146  21927513.2344                   21927510.0204
 -14793743.98847 -11507254.33646  21797899.5864                   21797898.3364
 11  8 25 19  0  0.0000000  0  7G07G08G11G26G24G28G17
   2388413.07048   1892259.87946  20977479.9144                   20977478.2274
  -7789867.32048  -6027822.01646  20081834.0634                   20081832.0784
   -820051.10948   -601816.09445  21947501.5944                   21947499.2934
  -2491759.93747  -1188434.74244  22924950.8284                   22924950.5354
  -7633925.42647  -5916622.80145  22005904.6884                   22005904.9964
  -4747167.01648  -3665383.68746  21902658.6884                   21902655.7234
 -14958681.07447 -11635776.71946  21766512.5864                   21766511.4574
 11  8 25 19  0 30.0000000  0  7G07G08G11G26G24G28G17
   2336305.34048   1851656.39146  20967563.8444                   20967562.3324
  -7901111.12548  -6114505.52346  20060665.0864                   20060663.5354
   -881262.15248   -649513.02345  21935853.5634                   21935851.3834
  -2607928.50847  -1278955.71944  22902844.5704                   22902844.5594
  -7741103.44147  -6000138.12945  21985509.8914                   21985509.8484
  -4877726.78548  -3767118.57046  21877814.0394                   21877810.8634
 -15123221.18447 -11763989.75846  21735201.5864                   21735200.5514
 11  8 25 19  1  0.0000000  0  7G07G08G11G26G24G28G17
   2284716.48848   1811457.23446  20957746.9774                   20957745.6024
  -8011764.65648  -6200729.07846  20039608.4144                   20039606.3754
   -941895.94148   -696760.15245  21924314.9304                   21924313.2154
  -2723456.53547  -1368977.60244  22880860.5164                   22880860.1524
  -7847679.02047  -6083184.02345  21965228.8364                   21965228.6054
  -5008223.95348  -3868804.67646  21852981.0784                   21852977.9964
 -15287352.75847 -11891884.44946  21703968.2974                   21703967.0784
 11  8 25 19  1 30.0000000  0  7G07G08G11G26G24G28G17
   2233646.00448   1771661.99246  20948028.8914                   20948027.1764
  -8121826.53948  -6286491.61346  20018664.3674                   20018662.2734
  -1001953.57848   -743558.34045  21912886.6804                   21912884.9384
  -2838344.79747  -1458500.94944  22858998.2274                   22858997.9144
  -7953651.36747  -6165759.85245  21945063.5554                   21945063.0824
  -5138658.42648  -3970441.93046  21828160.5164                   21828157.5124
 -15451075.21948 -12019460.35246  21672813.0704                   21672811.8984
 11  8 25 19  2  0.0000000  0  7G07G08G11G26G24G28G17
   2183096.35248   1732272.59046  20938409.8054                   20938407.7734
  -8231291.82448  -6371789.25846  19997833.7894                   19997832.3714
  -1061433.09048   -789906.02745  21901568.1644                   21901565.8014
  -2952589.98447  -1547523.19944  22837258.1094                   22837258.0634
  -8059016.62547  -6247862.63345  21925012.6954                   21925012.5274
  -5269026.56648  -4072027.50046  21803352.0394                   21803349.4964
 -15614384.81647 -12146714.53146  21641736.4454                   21641735.2544
 11  8 25 19  2 30.0000000  0  7G07G08G11G26G24G28G17
   2133070.66448   1693291.47346  20928890.1094                   20928888.1214
  -8340155.25048  -6456617.92646  19977117.8054                   19977115.7814
  -1120332.29348   -835801.52745  21890359.8984                   21890357.8674
  -3066188.63747  -1636041.66444  22815640.5234                   22815640.3204
  -8163770.34047  -6329488.89145  21905079.1414                   21905079.1214
  -5399324.75848  -4173558.55546  21778557.1094                   21778554.9064
 -15777277.34448 -12273643.74246  21610738.4534                   21610737.3794
 11  8 25 19  3  0.0000000  0  7G07G08G11G26G24G28G17
   2083563.36748   1654714.29346  20919469.1954                   20919467.0474
  -8448420.00848  -6540980.09846  19956515.6414                   19956514.0944
  -1178656.87948   -881249.28545  21879261.5944                   21879259.1334
  -3179145.75447  -1724060.22344  22794145.5864                   22794144.8714
  -8267916.10947  -6410641.42245  21885260.8594                   21885260.4414
  -5529556.76248  -4275038.03146  21753774.8054                   21753772.0554
 -15939756.84848 -12400251.10246  21579819.7894                   21579818.6454
 11  8 25 19  3 30.0000000  0  7G07G08G11G26G24G28G17
   2034569.75848   1616537.37546  20910145.8444                   20910144.3244
  -8556089.03148  -6624878.05546  19936027.0864                   19936025.1294
  -1236412.34048   -926253.55945  21868270.9534                   21868268.8524
  -3291465.99247  -1811582.54744  22772772.7114                   22772772.3524
  -8371457.74647  -6491323.20745  21865557.2194                   21865556.9304
  -5659726.93748  -4376469.34845  21729004.2274                   21729001.1174
 -16101827.00048 -12526539.48846  21548978.8284                   21548978.1254
 11  8 25 19  4  0.0000000  0  7G07G08G11G26G24G28G17
   1986088.14548   1578759.43446  20900920.2974                   20900918.6994
  -8663161.45748  -6708311.13746  19915652.0864                   19915650.0314
  -1293601.27348   -970816.38745  21857388.0394                   21857386.5634
  -3403150.43747  -1898609.42644  22751519.6094                   22751519.4734
  -8474395.28547  -6571534.25845  21845968.7504                   21845968.9264
  -5789835.89848  -4477852.95745  21704245.2814                   21704242.2034
 -16263488.26247 -12652509.27746  21518215.5164                   21518214.9384
 11  8 25 19  4 30.0000000  0  7G07G08G11G26G24G28G17
   1938113.06348   1541376.18446  20891791.3594                   20891789.6844
  -8769641.08248  -6791282.29746  19895389.4064                   19895387.6724
  -1350229.64848  -1014942.41845  21846612.1724                   21846610.4454
  -3514204.43047  -1985145.04745  22730386.4454                   22730386.0044
  -8576732.91847  -6651277.85945  21826494.4614                   21826494.6454
  -5919887.94947  -4579192.21545  21679496.9064                   21679494.6844
 -16424744.93448 -12778163.80146  21487529.6254                   21487528.5704
 11  8 25 19  5  0.0000000  0  7G07G08G11G26G24G28G17
   1890645.47348   1504388.38346  20882758.5084                   20882757.0474
  -8875524.55548  -6873788.92646  19875240.5704                   19875238.8674
  -1406297.19148  -1058631.42645  21835942.8834                   21835941.2344
  -3624626.60547  -2071188.32845  22709373.5314                   22709373.9264
  -8678468.25047  -6730552.14145  21807135.2734                   21807135.0634
  -6049881.11347  -4680485.58246  21654759.9304                   21654757.4844
 -16585594.98048 -12903501.47746  21456920.7034                   21456919.5474
 11  8 25 19  5 30.0000000  0  7G07G08G11G26G24G28G17
   1843682.28548   1467793.63746  20873821.6724                   20873820.0904
  -8980812.45348  -6955831.48046  19855204.9144                   19855203.3404
  -1461807.45348  -1101886.19945  21825379.3364                   21825377.6524
  -3734419.36347  -2156741.16044  22688480.6884                   22688480.6294
  -8779602.67647  -6809358.18045  21787889.8524                   21787889.0744
  -6179817.19547  -4781734.47745  21630034.5944                   21630031.4694
 -16746039.63348 -13028523.25046  21426389.2424                   21426387.9304
 11  8 25 19  6  0.0000000  0  7G07G08G11G26G24G28G17
   3372641.19548   2659190.13346  21164772.8594                   21164771.2584
  -7510083.27348  -5809808.77046  20135075.2664                   20135073.7194
     58656.71548     82891.06345  22114713.9384                   22114712.2814
  -2268162.82847  -1014203.63344  22967500.1484                   22967499.7814
  -7304715.73047  -5660095.62145  22068551.5784                   22068551.0514
  -4734274.55148  -3655337.61345  21905111.9384                   21905109.6454
 -15330656.87948 -11925627.54746  21695727.6564                   21695726.4574
 11  8 25 19  6 30.0000000  0  7G07G08G11G26G24G28G17
   3326678.61748   2623375.06646  21156026.3914                   21156024.8054
  -7614182.18448  -5890924.83646  20115265.5554                   20115264.4694
      4250.86348     40496.84445  22104361.1804                   22104358.8164
  -2376704.38347  -1098781.50045  22946845.3834                   22946845.9534
  -7404652.89848  -5737968.74245  22049533.9534                   22049534.0274
  -4864101.22748  -3756501.25845  21880406.7034                   21880404.3914
 -15490295.86748 -12050021.51646  21665349.2114                   21665348.5274
 11  8 25 19  7  0.0000000  0  7G07G08G11G26G24G28G17
   3281216.16048   2587949.71946  21147375.2734                   21147373.7304
  -7717683.85248  -5971575.51646  20095570.3754                   20095568.4844
    -49604.14147     -1468.10945  22094112.9774                   22094111.4064
  -2484620.11347  -1182871.71945  22926309.8204                   22926310.0124
  -7503989.78148  -5815374.10545  22030631.5704                   22030630.4654
  -4993872.10547  -3857621.42246  21855712.0634                   21855709.5394
 -15649530.55548 -12174100.44546  21635047.9534                   21635046.8404
 11  8 25 19  7 30.0000000  0  7G07G08G11G26G24G28G17
   3236253.31648   2552913.66846  21138819.1644                   21138817.5554
  -7820586.41048  -6051759.35946  20075988.4454                   20075987.0084
   -102909.43048    -43004.71545  22083969.4064                   22083967.2624
  -2591910.14147  -1266474.35945  22905893.5634                   22905893.0044
  -7602725.42647  -5892310.96145  22011842.1644                   22011842.0944
  -5123586.09047  -3958697.25846  21831028.3204                   21831026.0204
 -15808359.97748 -12297863.59446  21604824.0864                   21604822.6054
 11  8 25 19  8  0.0000000  0  7G07G08G11G26G24G28G17
   3191791.85548   2518268.30546  21130358.6254                   21130357.4104
  -7922885.73448  -6131473.14546  20056521.4774                   20056520.2424
   -155663.91048    -84112.12145  22073930.8914                   22073928.5004
  -2698572.68047  -1349588.03945  22885595.9774                   22885595.8954
  -7700856.58247  -5968776.78545  21993168.4224                   21993168.5204
  -5253240.20347  -4059726.42646  21806355.8364                   21806353.9844
 -15966781.11747 -12421308.60246  21574677.1804                   21574675.7624
 11  8 25 19  8 30.0000000  0  7G07G08G11G26G24G28G17
   3147830.92248   2484012.96546  21121992.9844                   21121991.7734
  -8024580.58248  -6210715.91446  20037169.6954                   20037168.8404
   -207868.80948   -124791.28545  22063996.0234                   22063994.3554
  -2804607.76247  -1432212.81244  22865417.7584                   22865418.1214
  -7798382.29747  -6044770.84845  21974610.1174                   21974610.1764
  -5382833.89547  -4160708.52746  21781695.0864                   21781692.7464
 -16124793.14547 -12544434.83246  21544608.2974                   21544607.1604
 11  8 25 19  9  0.0000000  0  7G07G08G11G26G24G28G17
   3104368.36747   2450145.98846  21113722.1884                   21113721.1724
  -8125671.04748  -6289487.74646  20017933.2114                   20017931.4614
   -259527.10547   -165044.51645  22054165.7344                   22054163.8984
  -2910017.38747  -1514350.21144  22845359.8674                   22845359.6644
  -7895303.53147  -6120293.90245  21956166.3754                   21956166.1914
  -5512368.19548  -4261644.34046  21757045.5314                   21757043.0474
 -16282397.22347 -12667243.17646  21514617.4844                   21514615.9454
 11  8 25 19  9 30.0000000  0  7G07G08G11G26G24G28G17
   3061407.09047   2416669.61346  21105547.2114                   21105546.0234
  -8226152.06648  -6367784.66846  19998812.0164                   19998810.6294
   -310636.46147   -204869.99645  22044440.3284                   22044438.3364
  -3014798.52047  -1595997.86345  22825420.3834                   22825420.2584
  -7991616.53547  -6195342.99645  21937838.5784                   21937838.4264
  -5641838.68448  -4362530.43046  21732408.1954                   21732405.7734
 -16439589.22348 -12789730.41846  21484704.8834                   21484703.3754
 11  8 25 19 10  0.0000000  0  7G07G08G11G26G24G28G17
   3018948.16448   2383584.67246  21097467.7344                   21097466.1174
  -8326020.57048  -6445604.32046  19979807.8364                   19979806.4384
   -361196.33247   -244267.33645  22034819.2424                   22034817.1844
  -3118949.85247  -1677154.78544  22805600.9304                   22805600.8164
  -8087318.58248  -6269916.02045  21919626.7894                   21919626.5474
  -5771243.05148  -4463365.00846  21707783.1564                   21707780.4774
 -16596366.91047 -12911894.81246  21454871.0704                   21454869.7894
 11  8 25 19 10 30.0000000  0  7G07G08G11G26G24G28G17
   2976988.97348   2350889.12146  21089483.3444                   21089481.2424
  -8425276.81248  -6522946.87546  19960919.9064                   19960918.5594
   -411210.11347   -283239.12945  22025301.5784                   22025299.8634
  -3222473.61347  -1757822.68745  22785901.2114                   22785900.5554
  -8182410.94147  -6344013.95745  21901531.5864                   21901530.9264
  -5900582.54748  -4564149.02346  21683170.9144                   21683168.3014
 -16752731.41848 -13033737.25446  21425115.7664                   21425113.7584
 11  8 25 19 11  0.0000000  0  7G07G08G11G26G24G28G17
   2935533.50848   2318586.09046  21081594.4534                   21081592.7194
  -8523914.88748  -6599807.74646  19942149.6884                   19942148.0234
   -460674.35947   -321782.73045  22015888.8134                   22015886.7704
  -3325365.40247  -1837998.15245  22766321.6024                   22766321.0124
  -8276888.31647  -6417632.68045  21883553.2504                   21883552.5594
  -6029851.38348  -4664877.99246  21658571.7814                   21658569.0744
 -16908677.19547 -13155253.40246  21395439.7274                   21395438.3914
 11  8 25 19 11 30.0000000  0  7G07G08G11G26G24G28G17
   2894587.04748   2286679.68446  21073802.6254                   21073801.0434
  -8621927.55548  -6676181.27046  19923498.8134                   19923497.0554
   -509584.43047   -359894.51245  22006581.9304                   22006579.7194
  -3427619.96947  -1917677.07445  22746863.6174                   22746863.3674
  -8370744.21947  -6490767.13745  21865692.5474                   21865692.2974
  -6159043.32048  -4765547.04746  21633987.7814                   21633984.7464
 -17064197.73847 -13276438.21946  21365845.3134                   21365844.0824
 11  8 25 19 12  0.0000000  0  7G07G08G11G26G24G28G17
   2854148.33247   2255168.93046  21066107.6174                   21066106.0864
  -8719313.70748  -6752066.60546  19904966.6724                   19904965.3204
   -557942.43047   -397576.10245  21997379.4454                   21997377.9614
  -3529238.35547  -1996860.24645  22727525.5394                   22727525.8204
  -8463978.52747  -6563417.25045  21847950.5704                   21847950.5664
  -6288157.92648  -4866155.84046  21609417.5554                   21609414.8754
 -17219293.21147 -13397291.81646  21336331.8674                   21336330.2034
 11  8 25 19 12 30.0000000  0  7G07G08G11G26G24G28G17
   2814216.82048   2224053.41046  21058508.5704                   21058507.5864
  -8816071.86748  -6827462.60946  19886554.2584                   19886553.2344
   -605749.73047   -434828.57845  21988282.4844                   21988280.0984
  -3630221.03147  -2075548.09045  22708309.3134                   22708309.7304
  -8556590.81647  -6635582.69145  21830327.5004                   21830327.4344
  -6417194.64148  -4966703.93746  21584862.9384                   21584860.3674
 -17373963.35547 -13517813.97346  21306898.7814                   21306897.5314
 11  8 25 19 13  0.0000000  0  7G07G08G11G26G24G28G17
   4350217.68448   3420937.12146  21350800.2504                   21350799.3634
  -7336772.97748  -5674762.19946  20168055.7584                   20168053.8404
    922418.91447    755952.15645  22279083.2584                   22279081.1954
  -2155140.39147   -926134.64545  22989008.3284                   22989008.1454
  -7073152.57047  -5479656.79745  22112616.7734                   22112616.4454
  -4970723.26648  -3839583.39846  21860117.1254                   21860114.2544
 -15952777.12547 -12410396.10946  21577341.5864                   21577340.6454
 11  8 25 19 13 30.0000000  0  7G07G08G11G26G24G28G17
   4311308.53548   3390618.25046  21343395.9384                   21343394.6024
  -7432260.73048  -5749168.26646  20149884.7584                   20149883.0904
    875720.05148    719563.40245  22270196.8284                   22270194.5984
  -2254842.45347  -1003824.60944  22970035.6804                   22970035.2154
  -7164508.14847  -5550842.96545  22095232.3364                   22095231.3754
  -5099590.53948  -3939999.46546  21835595.1024                   21835592.0274
 -16106583.13347 -12530244.91446  21548073.5234                   21548072.0234
 11  8 25 19 14  0.0000000  0  7G07G08G11G26G24G28G17
   4272910.75448   3360697.82846  21336089.3284                   21336087.7664
  -7527110.18748  -5823076.97746  20131835.5784                   20131833.9064
    829574.12947    683605.50845  22261415.0864                   22261413.3594
  -2353903.71147  -1081015.23045  22951185.3914                   22951185.0354
  -7255233.46147  -5621538.01645  22077967.7274                   22077967.6764
  -5228370.84848  -4040347.77046  21811088.3914                   21811085.6884
 -16259955.13748 -12649755.54346  21518887.6334                   21518886.7154
 11  8 25 19 14 30.0000000  0  7G07G08G11G26G24G28G17
   4235022.08648   3331174.12146  21328879.3524                   21328878.3244
  -7621321.38748  -5896488.32446  20113907.7274                   20113906.0164
    783978.99247    648076.80145  22252739.0634                   22252736.9264
  -2452326.28147  -1157708.19544  22932455.6254                   22932455.5944
  -7345329.53547  -5691742.73845  22060823.2894                   22060822.8984
  -5357064.71148  -4140628.70746  21786599.0944                   21786596.3554
 -16412893.98048 -12768928.62546  21489784.5164                   21489783.1844
 11  8 25 19 15  0.0000000  0  7G07G08G11G26G24G28G17
   4197643.10948   3302047.58246  21321766.0634                   21321765.0664
  -7714892.02748  -5969400.54746  20096101.7344                   20096100.1254
    738934.09848    612976.85545  22244167.0634                   22244164.7034
  -2550109.44947  -1233902.92244  22913848.6564                   22913848.5744
  -7434794.47347  -5761455.67245  22043798.6804                   22043798.5944
  -5485670.02748  -4240840.65646  21762126.0394                   21762123.1604
 -16565397.91448 -12887762.82846  21460763.6094                   21460762.4694
 11  8 25 19 15 30.0000000  0  7G07G08G11G26G24G28G17
   4160774.17247   3273318.46546  21314750.2584                   21314749.2854
  -7807819.50848  -6041811.61346  20078418.4144                   20078416.8874
    694439.07447    578305.37945  22235700.0944                   22235698.0514
  -2647252.82047  -1309599.07844  22895362.4384                   22895362.2304
  -7523626.75847  -5830675.62945  22026894.2274                   22026894.1994
  -5614184.71148  -4340981.97746  21737670.9304                   21737667.9104
 -16717464.96548 -13006256.60246  21431826.4614                   21431825.5044
 11  8 25 19 16  0.0000000  0  7G07G08G11G26G24G28G17
   4124419.48048   3244990.06346  21307832.5084                   21307830.7424
  -7900097.51248  -6113716.58646  20060858.5084                   20060857.0664
    650497.68447    544065.30945  22227338.2274                   22227336.0634
  -2743751.88347  -1384793.19144  22876999.5554                   22876999.5044
  -7611820.91447  -5899398.33645  22010111.1414                   22010111.1954
  -5742602.92647  -4441048.11746  21713233.3134                   21713230.8914
 -16869089.86748 -13124405.85246  21402972.9144                   21402971.7074
 11  8 25 19 16 30.0000000  0  7G07G08G11G26G24G28G17
   4088578.18048   3217061.70746  21301012.2194                   21301011.0044
  -7991724.39548  -6185114.18446  20043422.7274                   20043421.3284
    607108.88347    510255.81645  22219081.5084                   22219080.3754
  -2839607.26246  -1459485.72744  22858758.4144                   22858758.6644
  -7699376.26647  -5967623.30145  21993449.8914                   21993449.5314
  -5870923.48047  -4541038.16046  21688814.6724                   21688812.0354
 -17020271.93048 -13242210.02746  21374203.6954                   21374202.4964
 11  8 25 19 17  0.0000000  0  7G07G08G11G26G24G28G17
   4053248.27348   3189531.84446  21294289.2274                   21294287.7154
  -8082700.59848  -6256004.75446  20026110.1644                   20026108.8914
    564269.50847    476874.45745  22210929.0634                   22210927.7894
  -2934821.00446  -1533678.27044  22840640.2344                   22840640.0864
  -7786293.85947  -6035351.28945  21976910.1644                   21976909.9924
  -5999146.89847  -4640952.50446  21664414.6724                   21664412.4734
 -17171011.90248 -13359669.70746  21345519.3054                   21345517.7304
 11  8 25 19 17 30.0000000  0  7G07G08G11G26G24G28G17
   4018428.80948   3162399.71546  21287663.1564                   21287661.8204
  -8173025.04748  -6326387.47346  20008922.3134                   20008920.9774
    521978.37947    443920.28545  22202882.1724                   22202879.7934
  -3029393.74247  -1607371.34044  22822643.9224                   22822644.1414
  -7872573.43047  -6102582.13745  21960491.7734                   21960491.5164
  -6127271.99648  -4740790.23046  21640033.3204                   21640030.7274
 -17321309.24248 -13476784.50046  21316918.6174                   21316917.0274
 11  8 25 19 18  0.0000000  0  7G07G08G11G26G24G28G17
   3984124.25448   3135668.84446  21281135.1174                   21281134.1884
  -8262690.79348  -6396256.91446  19991859.6804                   19991858.1134
    480239.02347    411396.09444  22194939.4694                   22194936.5434
  -3123321.04747  -1680561.49644  22804769.3914                   22804769.7584
  -7958209.34047  -6169311.41845  21944194.9144                   21944194.9774
  -6255293.12948  -4840546.94946  21615671.6094                   21615669.2584
 -17471158.44548 -13593550.07446  21288402.9224                   21288402.2114
 11  8 25 19 18 30.0000000  0  7G07G08G11G26G24G28G17
   3950333.79748   3109338.55946  21274705.2504                   21274704.5124
  -8351697.31648  -6465612.67646  19974922.2504                   19974920.6524
    439049.89547    379300.64544  22187101.1414                   22187099.1564
  -3216603.45347  -1753249.13744  22787018.7974                   22787019.3444
  -8043201.25447  -6235538.87945  21928022.4614                   21928022.2114
  -6383209.03148  -4940221.67646  21591330.3284                   21591327.4924
 -17620558.74648 -13709965.86746  21259973.3984                   21259971.7544
 11  8 25 19 19  0.0000000  0  7G07G08G11G26G24G28G17
   3917060.05948   3083410.89846  21268373.6954                   21268373.0904
  -8440039.79748  -6534451.00846  19958111.2344                   19958109.7194
    398413.51247    347635.89145  22179368.1644                   22179366.4304
  -3309238.24647  -1825432.11344  22769390.5784                   22769391.2624
  -8127545.27747  -6301261.48045  21911972.1564                   21911972.0904
  -6511015.05948  -5039810.80946  21567009.9844                   21567007.1724
 -17769505.92648 -13826028.57446  21231629.2734                   21231627.4774
 11  8 25 19 19 30.0000000  0  7G07G08G11G26G24G28G17
   3884298.71148   3057882.50046  21262139.5944                   21262138.6024
  -8527720.79348  -6602773.89846  19941426.1174                   19941424.6914
    358324.35547    316397.57045  22171739.8364                   22171737.8094
  -3401229.57847  -1897113.72344  22751885.7584                   22751885.5474
  -8211244.40248  -6366481.57045  21896045.0784                   21896044.8524
  -6638713.87148  -5139316.37546  21542708.9144                   21542706.4924
 -17918003.15648 -13941740.66446  21203371.3204                   21203369.4774
 11  8 25 19 20  0.0000000  0  7G07G08G11G26G24G28G17
   3852049.17248   3032752.90246  21256002.7584                   21256001.4454
  -8614738.90648  -6670580.25046  19924866.7894                   19924865.6254
    318781.14147    285584.64145  22164214.7114                   22164213.5824
  -3492578.48847  -1968294.75444  22734502.3284                   22734502.1024
  -8294298.37147  -6431198.94945  21880239.7344                   21880240.2114
  -6766304.02048  -5238737.27346  21518429.8204                   21518427.1454
 -18066049.82448 -14057101.67646  21175199.0864                   21175197.6524
 11  8 25 19 20 30.0000000  0  7G07G08G11G26G24G28G17
   5395730.58248   4235621.45746  21549755.2664                   21549754.5354
  -7125670.88748  -5510267.53946  20208227.1884                   20208226.0554
   1855203.38347   1482796.71545  22456586.6174                   22456584.5084
  -2007863.11747   -811373.76244  23017034.7504                   23017034.4534
  -6801285.00048  -5267811.90645  22164351.3364                   22164351.2304
  -5318361.28948  -4110470.22346  21793964.0784                   21793961.2584
 -16638221.39548 -12944508.05146  21446905.6334                   21446903.7584
 11  8 25 19 21  0.0000000  0  7G07G08G11G26G24G28G17
   5364502.92648   4211288.14846  21543812.9844                   21543811.9884
  -7211358.04348  -5577036.77346  20191921.5784                   20191920.1484
   1816749.79347   1452832.84845  22449269.4614                   22449267.2664
  -2097927.54747   -881553.89144  22999895.8054                   22999896.2934
  -6883046.65247  -5331522.28145  22148792.4844                   22148791.9344
  -5445730.04348  -4209718.61746  21769726.7894                   21769723.9184
 -16785364.14847 -13059164.70746  21418905.2344                   21418903.3094
 11  8 25 19 21 30.0000000  0  7G07G08G11G26G24G28G17
   5333785.79348   4187352.66046  21537967.6414                   21537966.7504
  -7296377.51248  -5643285.74646  20175743.1094                   20175741.3674
   1778839.29747   1423292.16845  22442055.1804                   22442052.8794
  -2187350.19547   -951233.94944  22982879.5164                   22982879.4344
  -6964160.66048  -5394728.01245  22133357.0234                   22133356.6294
  -5572985.43048  -4308878.67646  21745510.9774                   21745507.8484
 -16932053.30148 -13173467.93046  21390990.8984                   21390989.7854
 11  8 25 19 22  0.0000000  0  7G07G08G11G26G24G28G17
   5303574.39548   4163811.24246  21532219.2814                   21532217.9534
  -7380732.44548  -5709016.89146  20159690.8674                   20159689.4534
   1741466.58647   1394170.53545  22434943.2894                   22434940.9494
  -2276135.98847  -1020417.73444  22965983.5704                   22965983.6724
  -7044630.98847  -5457432.16045  22118044.0234                   22118044.0354
  -5700130.42248  -4407952.69146  21721316.2194                   21721313.3324
 -17078292.62147 -13287420.61746  21363162.6644                   21363160.8794
 11  8 25 19 22 30.0000000  0  7G07G08G11G26G24G28G17
   5273862.95748   4140659.39546  21526565.1334                   21526563.7704
  -7464426.14148  -5774232.78946  20143764.2274                   20143762.7114
   1704625.45347   1365463.11744  22427932.8364                   22427930.1724
  -2364290.35547  -1089109.49644  22949208.7974                   22949209.2074
  -7124462.31648  -5519638.37945  22102853.1484                   22102852.4064
  -5827168.75448  -4506943.60946  21697141.0784                   21697138.7274
 -17224085.98847 -13401025.83646  21335419.0704                   21335417.6684
 11  8 25 19 23  0.0000000  0  7G07G08G11G26G24G28G17
   5244654.54748   4117899.51246  21521006.8444                   21521005.9884
  -7547453.67248  -5838929.59846  20127964.7424                   20127963.1524
   1668318.07047   1337171.62145  22421023.8674                   22421021.6134
  -2451810.48447  -1157307.05544  22932554.3594                   22932554.7894
  -7203650.30147  -5581343.29745  22087783.8834                   22087783.4804
  -5954095.27048  -4605847.41046  21672987.9064                   21672985.2274
 -17369429.24247 -13514280.30946  21307761.1954                   21307759.8164
 11  8 25 19 23 30.0000000  0  7G07G08G11G26G24G28G17
   5215951.63748   4095533.52746  21515544.5944                   21515543.6804
  -7629810.53148  -5903103.81646  20112292.3524                   20112291.3674
   1632546.49647   1309297.60944  22414216.8134                   22414214.6334
  -2538693.55547  -1225008.19544  22916020.9304                   22916021.8094
  -7282191.21147  -5642544.03145  22072837.6334                   22072837.5164
  -6080905.06248  -4704660.22746  21648856.4614                   21648854.2584
 -17514318.30147 -13627180.86746  21280189.8914                   21280188.5234
 11  8 25 19 24  0.0000000  0  7G07G08G11G26G24G28G17
   5187747.24647   4073556.00846  21510177.4924                   21510177.1684
  -7711502.12148  -5966759.63746  20096747.4844                   20096745.8874
   1597303.46947   1281835.48044  22407510.0474                   22407507.7664
  -2624946.46947  -1292218.29744  22899607.2894                   22899607.8284
  -7360091.20747  -5703245.32845  22058013.9224                   22058013.6804
  -6207603.45748  -4803386.25446  21624746.2664                   21624744.1254
 -17658758.72348 -13739731.82846  21252703.3364                   21252702.1374
 11  8 25 19 24 30.0000000  0  7G07G08G11G26G24G28G17
   5160044.18048   4051969.11746  21504905.9454                   21504905.2774
  -7792523.59848  -6029893.28146  20081329.7424                   20081328.2074
   1562590.91047   1254786.68844  22400904.2584                   22400902.1414
  -2710566.61347  -1358935.33644  22883314.6954                   22883315.1524
  -7437346.10247  -5763443.97345  22043312.6174                   22043312.6254
  -6334185.24248  -4902021.41446  21600659.2894                   21600656.7274
 -17802746.52048 -13851930.08246  21225303.5554                   21225302.2894
 11  8 25 19 25  0.0000000  0  7G07G08G11G26G24G28G17
   5132840.93848   4030771.69946  21499729.6174                   21499728.9574
  -7872874.89148  -6092504.71146  20066039.2194                   20066037.2734
   1528406.71147   1228149.61344  22394399.2034                   22394397.0004
  -2795555.67247  -1425160.63345  22867141.7584                   22867142.4494
  -7513956.57047  -5823140.46145  22028733.9224                   22028734.3984
  -6460650.16048  -5000565.50046  21576593.4144                   21576591.4534
 -17946282.02048 -13963775.88746  21197990.1644                   21197988.5594
 11  8 25 19 25 30.0000000  0  7G07G08G11G26G24G28G17
   5106139.15248   4009965.03146  21494648.6484                   21494647.7154
  -7952552.11348  -6154590.89546  20050877.3984                   20050876.4384
   1494752.15247   1201925.23044  22387995.2114                   22387992.8754
  -2879911.51647  -1490892.50444  22851089.5084                   22851089.6684
  -7589919.73447  -5882332.54745  22014279.0704                   22014279.0434
  -6586993.71548  -5099015.02746  21552551.3524                   21552548.5084
 -18089361.70748 -14075266.52046  21170762.7114                   21170760.7974
 11  8 25 19 26  0.0000000  0  7G07G08G11G26G24G28G17
   5079935.57848   3989546.58246  21489661.9534                   21489661.0704
  -8031557.07048  -6216153.23046  20035843.0864                   20035841.5394
   1461622.75847   1176110.07844  22381690.7194                   22381688.8324
  -2963638.02347  -1556133.98444  22835156.7734                   22835157.5164
  -7665238.04747  -5941022.15645  21999946.6334                   21999946.4534
  -6713217.52748  -5197371.23446  21528531.4844                   21528529.1214
 -18231987.66848 -14186403.60946  21143621.8914                   21143620.2704
 11  8 25 19 26 30.0000000  0  8G07G08G11G04G26G24G28G17
   5054228.21148   3969514.78146  21484770.7194                   21484769.0044
  -8109890.02048  -6277191.93046  20020936.7114                   20020935.5274
   1429016.37947   1150702.46944  22375486.0704                   22375484.4064
                                  23410035.09817                  24492257.820
  -3046736.90647  -1620886.41844  22819343.9304                   22819344.2814
  -7739912.70747  -5999210.19545  21985736.3284                   21985736.1884
  -6839321.18048  -5295633.82046  21504534.7814                   21504532.2034
 -18374160.71548 -14297187.78546  21116567.3284                   21116565.7234
 11  8 25 19 27  0.0000000  0  8G07G08G11G04G26G24G28G17
   5029017.65247   3949870.11746  21479973.3674                   21479972.0824
  -8187547.70748  -6337704.45746  20006159.0944                   20006157.6024
   1396933.19547   1125702.54344  22369381.2274                   22369378.5274
  23193111.19146  18394856.34453  24450977.9694                   24450983.6994
  -3129207.57847  -1685149.32844  22803650.7424                   22803650.2584
  -7813941.60247  -6056895.06245  21971649.3444                   21971648.6524
  -6965301.82448  -5393800.55546  21480561.5474                   21480559.1484
 -18515878.50048 -14407617.19946  21089599.3054                   21089597.3244
 11  8 25 19 27 30.0000000  0  8G07G08G11G04G26G24G28G17
   5004299.13748   3930608.84846  21475269.1024                   21475268.4454
  -8264533.53948  -6397693.45346  19991509.1954                   19991507.9384
   1365367.55147   1101105.90244  22363374.3754                   22363372.1804
  22976208.61746  18225841.71542  24409702.9454                   24409710.1644
  -3211054.89847  -1748926.46944  22788075.5864                   22788075.7584
  -7887328.64548  -6114079.77745  21957684.2114                   21957683.6564
  -7091161.91448  -5491873.35946  21456610.9224                   21456608.4384
 -18657144.48448 -14517694.58246  21062717.2504                   21062715.5394
 11  8 25 19 28  0.0000000  0  8G07G08G11G04G26G24G28G17
   6555483.03548   5139323.49246  21770449.6094                   21770448.9574
  -6765433.41448  -5229563.52346  20276778.5784                   20276776.7894
   2909730.02347   2304505.18044  22657256.7034
  22657254.2934   24334748.82846  19284444.81342  24668223.9844   24668231.7234
  -1716866.50447   -584623.87544  23072409.7424                   23072410.3204
  -6384660.50048  -4943169.54345  22243632.4064                   22243631.8874
  -5641485.14548  -4362255.10946  21732475.4924                   21732472.6294
 -17222542.83247 -13399823.16046  21335712.8444                   21335711.3404
 11  8 25 19 28 30.0000000  0  8G07G08G11G04G26G24G28G17
   6531727.62547   5120812.68846  21765929.1254                   21765928.4104
  -6841090.91048  -5288517.45346  20262381.6254                   20262380.3164
   2879177.77347   2280698.19944  22651442.5704
  22651441.0124   24117881.37146  19115457.54742  24626954.2664   24626964.0434
  -1797487.93747   -647445.81644  23057068.6024                   23057068.0594
  -6456781.18447  -4999367.49645  22229908.6024                   22229908.3404
  -5767117.74248  -4460150.64546  21708568.2034                   21708565.7704
 -17362921.41448 -13509209.03946  21308999.8914                   21308997.8794
 11  8 25 19 29  0.0000000  0  8G07G08G11G04G26G24G28G17
   6508454.80148   5102677.93046  21761500.7734                   21761499.9804
  -6916080.92248  -5346951.26246  20248111.4694                   20248110.1484
   2849132.13747   2257285.95744  22645725.4534
  22645723.1564   23901038.58246  18946489.58242  24585690.3594   24585700.1294
  -1877495.76647   -709789.61744  23041843.2974                   23041843.6054
  -6528266.82047  -5055070.59445  22216305.0004                   22216305.4184
  -5892632.39148  -4557954.27046  21684683.9224                   21684681.2464
 -17502853.70748 -13618247.17246  21282371.7194                   21282369.6374
 11  8 25 19 29 30.0000000  0  8G07G08G11G04G26G24G28G17
   6485663.03548   5084918.01245  21757163.8674                   21757162.9454
  -6990403.33648  -5404864.86746  20233968.4844                   20233967.1054
   2819590.83647   2234266.74244  22640104.1094
  22640102.0634   23684223.37146  18777543.01242  24544432.5084   24544441.2154
  -1956891.40247   -771656.39144  23026734.1804                   23026734.6844
  -6599117.45348  -5110278.87945  22202822.5554                   22202822.2304
  -6018028.07448  -4655665.21146  21660821.9774                   21660819.6454
 -17642339.64848 -13726937.49246  21255827.9144                   21255826.5314
 11  8 25 19 30  0.0000000  0  8G07G08G11G04G26G24G28G17
   6463352.35548   5067532.96945  21752918.3754                   21752917.6134
  -7064055.68448  -5462256.33246  20219952.6024                   20219951.3674
   2790553.57047   2211640.24644  22634578.8914
  22634576.9304   23467440.35246  18608621.52743  24503179.2584   24503187.7664
  -2035675.08647   -833046.34444  23011742.8834                   23011742.9804
  -6669332.29347  -5164991.77045  22189460.9924                   22189461.4924
  -6143302.22748  -4753281.44546  21636983.0944                   21636980.8134
 -17781377.72748 -13835278.82846  21229369.9694                   21229368.7544
 11  8 25 19 30 30.0000000  0  8G07G08G11G04G26G24G28G17
   6441518.17648   5050519.23046  21748763.3204                   21748762.5004
  -7137040.82848  -5519127.92246  20206063.9614                   20206062.8324
   2762015.51647   2189402.75044  22629147.9304
  22629145.6294   23250689.50446  18439725.08243  24461932.5944   24461940.2854
  -2113851.10947   -893962.78944  22996866.6724                   22996866.6174
  -6738914.82447  -5219211.93445  22176220.1724                   22176220.2074
  -6268457.27348  -4850804.87146  21613166.8754                   21613164.1804
 -17919970.90648 -13943273.49646  21202996.2274                   21202994.8054
 11  8 25 19 31  0.0000000  0  8G07G08G11G04G26G24G28G17
   6420162.06647   5033878.00445  21744699.2274                   21744698.8714
  -7209355.53948  -5575477.07446  20192303.2664                   20192301.9734
   2733977.11747   2167554.60244  22623811.6884
  22623810.6684   23033976.34846  18270858.02343  24420693.8364   24420700.2974
  -2191418.49647   -954404.98444  22982106.0004                   22982105.8554
  -6807862.56647  -5272937.47345  22163099.6094                   22163099.9774
  -6393488.90648  -4948232.12146  21589374.0784                   21589371.1214
 -18058116.71548 -14050919.55546  21176708.2034                   21176706.5664
 11  8 25 19 31 30.0000000  0  8G07G08G11G04G26G24G28G17
   6399276.55547   5017603.50845  21740725.2974                   21740724.5314
  -7281005.60548  -5631308.33646  20178668.8054                   20178667.1994
   2706430.85947   2146089.92644  22618570.1564
  22618568.7734   22817298.30946  18102018.31643  24379461.2974   24379466.4494
  -2268384.46947  -1014378.56244  22967459.9534                   22967459.9534
  -6876181.96547  -5326173.37545  22150098.9534                   22150099.1334
  -6518402.14548  -5045567.11346  21565604.0634                   21565601.1844
 -18195820.64848 -14158221.30146  21150503.9924                   21150502.5124
 11  8 25 19 32  0.0000000  0  8G07G08G11G04G26G24G28G17
   6378861.12547   5001695.30146  21736840.1254                   21736839.7704
  -7351990.31648  -5686621.14146  20165161.0084                   20165159.1524
   2679375.38347   2125007.68444  22613422.0864
  22613419.7624   22600658.75446  17933208.61343  24338235.6484   24338241.9734
  -2344749.66447  -1073883.99244  22952928.5554                   22952928.6844
  -6943872.74247  -5378919.45345  22137217.9774                   22137218.0904
  -6643195.14848  -5142808.43046  21541856.6644                   21541853.7304
 -18333082.02048 -14265178.18746  21124383.9844                   21124382.1294
 11  8 25 19 32 30.0000000  0  8G07G08G11G04G26G24G28G17
   6358902.49248   4986143.02745  21733042.5234                   21733041.7304
  -7422321.03148  -5741424.34846  20151777.1094                   20151775.8244
   2652797.15247   2104297.32044  22608364.0234
  22608362.5234   22384049.43046  17764422.46543  24297016.1024   24297022.4104
  -2420527.62547  -1132931.83244  22938507.9844                   22938508.2154
  -7010947.14847  -5431185.22345  22124453.9534                   22124453.8954
  -6767878.67648  -5239964.43746  21518129.9924                   21518127.4024
 -18469912.82448 -14371799.57846  21098346.0944                   21098344.2934
 11  8 25 19 33  0.0000000  0  8G07G08G11G04G26G24G28G17
   6339398.35548   4970944.89146  21729331.1024                   21729329.8914
  -7491998.19148  -5795718.27746  20138518.2114                   20138516.9304
   2626693.07047   2083956.42244  22603396.8984
  22603394.6844   22167472.32446  17595661.35943  24255802.9924   24255809.2384
  -2495720.72747  -1191523.93044  22924199.4924                   22924200.2664
  -7077406.56247  -5482971.78945  22111806.9384                   22111807.1254
  -6892452.37148  -5337034.84846  21494424.5944                   21494422.3674
 -18606313.75448 -14478085.98846  21072389.3594                   21072388.3484
 11  8 25 19 33 30.0000000  0  8G07G08G11G04G26G24G28G17
   6320345.00847   4956098.00445  21725705.2894                   21725704.1174
  -7561023.87948  -5849504.57846  20125383.1414                   20125381.9224
   2601059.05547   2063981.81644  22598518.8984
  22598516.5704   21950928.16446  17426925.96143  24214595.0164   24214602.3954
  -2570332.80947  -1249663.26644  22910001.0164                   22910002.0044
  -7143253.96547  -5534281.48045  22099276.4774                   22099276.5594
  -7016917.42248  -5434020.62146  21470739.2194                   21470736.9384
 -18742286.73448 -14584038.93446  21046514.6564                   21046512.9884
 11  8 25 19 34  0.0000000  0  8G07G08G11G04G26G24G28G17
   6301732.90647   4941594.96945  21722163.2974                   21722163.0084
  -7629405.55148  -5902789.04346  20112370.3204                   20112369.3134
   2575885.19547   2044365.77044  22593728.4614
  22593726.5984   21734412.36346  17258212.64143  24173393.0864   24173400.3524
  -2644373.35947  -1307357.27044  22895912.0394                   22895912.9574
  -7208497.64147  -5585120.73445  22086861.0944                   22086861.6214
  -7141280.57848  -5530926.97346  21447073.9534                   21447071.4844
 -18877840.45348 -14689665.18746  21020720.2114                   21020718.3794
 11  8 25 19 34 30.0000000  0  8G07G08G11G04G26G24G28G17
   6283557.37147   4927432.12945  21718704.7194                   21718704.7154
  -7697146.94948  -5955574.59846  20099479.8054                   20099478.3364
   2551166.05947   2025104.05944  22589024.6954
  22589022.5084   21517924.44946  17089521.04743  24132196.1644   24132203.6764
  -2717847.39547  -1364609.84844  22881930.1024                   22881930.7624
  -7273141.44547  -5635492.53945  22074559.8364                   22074559.7664
  -7265544.16048  -5627755.73446  21423427.7274                   21423424.6954
 -19012977.96948 -14794967.12146  20995004.0004                   20995002.5704
 11  8 25 19 35  0.0000000  0  8G07G08G11G04G26G24G28G17
   6265813.90248   4913605.97346  21715328.6484                   21715328.5864
  -7764250.83248  -6007863.37546  20086710.1334                   20086708.9144
   2526896.90247   2006192.98844  22584406.3054
  22584404.0704   21301464.59746  16920851.29143  24091006.2274   24091012.1684
  -2790759.59447  -1421424.66044  22868055.7584                   22868056.2194
  -7337189.14848  -5685399.85545  22062372.6804                   22062371.7504
  -7389709.88348  -5724508.25046  21399799.3204                   21399797.1804
 -19147702.11748 -14899946.95346  20969367.0944                   20969365.0944
 11  8 25 19 35 30.0000000  0  8G07G08G11G04G26G24G28G17
   7823916.34048   6127711.68846  22011826.2734                   22011825.6484
  -6255299.54348  -4832057.21946  20373854.3204                   20373853.1954
   4078491.15247   3215227.41444  22879665.6174                   22879662.8554
  22660458.15246  17979807.60942  24349613.2274                   24349619.0864
  -1287694.18447   -250204.89844  23154079.6724                   23154079.7464
  -5825224.26247  -4507245.41045  22350089.7034                   22350089.4774
  -5938357.72748  -4593584.48846  21675983.0004                   21675980.1844
 -17706594.11348 -13777005.63746  21243600.7734                   21243598.7504
 11  8 25 19 36  0.0000000  0  8G07G08G11G04G26G24G28G17
   7807022.94148   6114547.89546  22008611.5474                   22008611.1724
  -6321137.24248  -4883359.37546  20361325.6484                   20361324.5434
   4055105.80547   3197005.02044  22875214.4384                   22875213.0434
  22444054.18446  17811181.45342  24308432.9694                   24308438.0434
  -1359497.34047   -306155.47344  23140415.3444                   23140416.3284
  -5888091.38347  -4556232.79345  22338126.6954                   22338126.1604
  -6062334.10548  -4690189.47346  21652390.7664                   21652388.3954
 -17840502.24648 -13881349.62146  21218118.9694                   21218116.9024
 11  8 25 19 36 30.0000000  0  8G07G08G11G04G26G24G28G17
   7790544.73447   6101707.61346  22005475.7664                   22005475.4654
  -6386349.30548  -4934174.01646  20348916.5704                   20348915.1254
   4032151.80947   3179118.76244  22870846.9064                   22870845.4264
  22227675.42646  17642574.96542  24267257.3674                   24267262.4654
  -1430755.98447   -361681.73844  23126855.7974                   23126856.5204
  -5950376.67247  -4604766.80545  22326274.3444                   22326274.3014
  -6186221.58648  -4786725.18446  21628815.8204                   21628813.1334
 -17974009.81248 -13985381.47746  21192713.3754                   21192711.5124
 11  8 25 19 37  0.0000000  0  8G07G08G11G04G26G24G28G17
   7774480.43047   6089189.85945  22002418.7814                   22002417.7974
  -6450935.35548  -4984500.84846  20336626.0314                   20336625.0704
   4009627.88747   3161567.60544  22866560.3444                   22866559.0004
  22011324.91446  17473990.41843  24226085.9064                   24226092.2154
  -1501471.64547   -416784.93044  23113399.1884                   23113399.3674
  -6012080.52047  -4652847.73845  22314532.2424                   22314531.8554
  -6310018.51648  -4883190.32446  21605258.0634                   21605255.0274
 -18107116.60548 -14089101.04346  21167383.6564                   21167382.1524
 11  8 25 19 37 30.0000000  0  8G07G08G11G04G26G24G28G17
   7758829.34447   6076994.11345  21999440.1174                   21999439.7464
  -6514894.71548  -5034339.35546  20324455.0084                   20324453.5784
   3987532.45347   3144350.32844  22862356.4844                   22862354.9064
  21795006.87146  17305431.21143  24184922.5474                   24184927.4574
  -1571644.99247   -471465.54744  23100045.7344                   23100045.6414
  -6073202.80947  -4700475.53145  22302900.6484                   22302900.0354
  -6433722.81248  -4979583.29746  21581718.0634                   21581715.1254
 -18239821.97348 -14192507.80946  21142130.7344                   21142129.3984
 11  8 25 19 38  0.0000000  0  8G07G08G11G04G26G24G28G17
   7743589.20347   6065118.56345  21996540.1724                   21996539.7504
  -6578227.81648  -5083689.85946  20312403.0314                   20312401.9924
   3965862.89547   3127464.88744  22858232.6484                   22858231.5004
  21578723.79746  17136899.23843  24143764.5634                   24143770.3244
  -1641278.96547   -525725.82844  23086794.7504                   23086795.0864
  -6133744.99647  -4747651.28145  22291380.2114                   22291379.6884
  -6557334.09448  -5075903.79346  21558195.5784                   21558192.8404
 -18372126.60548 -14295602.31246  21116954.2974                   21116952.4924
 11  8 25 19 38 30.0000000  0  8G07G08G11G04G26G24G28G17
   7728755.56347   6053559.77045  21993717.7194                   21993717.5904
  -6640937.88348  -5132554.88346  20300469.7034                   20300469.1454
   3944614.23447   3110907.43044  22854188.9224                   22854188.3324
  21362475.78946  16968394.61343  24102613.9454                   24102619.9344
  -1710377.98047   -579569.28144  23073645.6804                   23073646.4304
  -6193710.86747  -4794377.94945  22279969.0704                   22279968.5434
  -6680854.00048  -5172153.08246  21534690.5314                   21534687.7074
 -18504033.60948 -14398386.96946  21091853.0394                   21091851.1254
 11  8 25 19 39  0.0000000  0  8G07G08G11G04G26G24G28G17
   7714330.95747   6042319.71145  21990973.1724                   21990972.9184
  -6703020.60948  -5180931.07846  20288656.0864                   20288654.8874
   3923788.39147   3094679.44944  22850225.4224                   22850225.3134
  21146270.11346  16799922.96543  24061471.6094                   24061477.7274
  -1778939.99247   -632994.30944  23060598.9924                   23060599.8164
  -6253096.91847  -4840652.82045  22268668.2734                   22268667.9734
  -6804277.37148  -5268327.14846  21511203.8754                   21511201.2704
 -18635539.15648 -14500858.79746  21066828.2194                   21066826.6764
 11  8 25 19 39 30.0000000  0  8G07G08G11G04G26G24G28G17
   7700308.94147   6031393.34445  21988304.8754                   21988304.6564
  -6764481.10548  -5228822.42246  20276960.5784                   20276959.2274
   3903378.90647   3078775.89544  22846342.5164                   22846341.3244
  20930105.34046  16631483.16843  24020336.7114                   24020342.1644
  -1846971.05547   -686005.58244  23047652.9924                   23047654.2624
  -6311909.02047  -4886480.46545  22257477.1334                   22257476.6134
  -6927607.58647  -5364428.62146  21487734.5084                   21487732.2114
 -18766648.23848 -14603021.69946  21041879.3284                   21041877.4064
 11  8 25 19 40  0.0000000  0  8G07G08G11G04G26G24G28G17
   7686691.78947   6020782.44945  21985713.4534                   21985713.4774
  -6825316.28548  -5276226.49246  20265384.0164                   20265383.1724
   3883386.89147   3063197.64544  22842538.2344                   22842537.1604
  20713988.13346  16463080.47743  23979210.6024                   23979215.9384
  -1914469.71547   -738601.98844  23034808.2194                   23034809.5634
  -6370144.09447  -4931858.47745  22246394.9454                   22246395.2154
  -7050839.76648  -5460453.70346  21464284.4614                   21464281.8364
 -18897357.03948 -14704872.70346  21017005.9694                   21017004.1254
 11  8 25 19 40 30.0000000  0  8G07G08G11G04G26G24G28G17
   7673478.00847   6010485.87545  21983199.1804                   21983199.1374
  -6885525.32848  -5323142.68746  20253926.3284                   20253925.4804
   3863811.02747   3047943.66044  22838812.7584                   22838811.6094
  20497921.91846  16294717.48043  23938093.8754                   23938099.7934
  -1981437.21147   -790784.52745  23022065.3364                   23022066.2344
  -6427802.69148  -4976787.27345  22235422.5944                   22235422.3984
  -7173972.28948  -5556401.13346  21440853.2974                   21440850.6414
 -19027665.78948 -14806411.96146  20992208.6804                   20992207.3444
 11  8 25 19 41  0.0000000  0  8G07G08G11G04G26G24G28G17
   7660667.89547   6000503.86745  21980761.6484                   21980760.9574
  -6945106.52048  -5369569.63746  20242588.4614                   20242587.6414
   3844650.75047   3033013.50844  22835167.2114                   22835165.2544
  20281911.87546  16126398.28143  23896988.4144                   23896993.8674
  -2047874.16847   -842553.66045  23009423.1414                   23009424.1884
  -6484883.72748  -5021266.02345  22224560.8834                   22224560.9654
  -7297001.98448  -5652268.43746  21417441.0634                   21417438.8714
 -19157572.61348 -14907638.04746  20967488.9224                   20967487.0474
 11  8 25 19 41 30.0000000  0  8G07G08G11G04G26G24G28G17
   7648259.11747   5990834.57845  21978400.5164                   21978400.2774
  -7004060.48448  -5415507.84446  20231370.0554                   20231369.1214
   3825903.61747   3018405.30144  22831599.6174                   22831598.1094
  20065960.55546  15958124.82443  23855893.6174                   23855899.0234
  -2113782.34847   -893910.76645  22996880.6254                   22996881.8554
  -6541388.70748  -5065295.90645  22213808.1254                   22213808.2934
  -7419928.08248  -5748055.01646  21394049.2114                   21394046.8914
 -19287078.00848 -15008551.33646  20942844.4144                   20942842.4884
 11  8 25 19 42  0.0000000  0  8G07G08G11G04G26G24G28G17
   7636253.41047   5981479.39145  21976115.7664                   21976115.7464
  -7062384.72348  -5460955.34846  20220271.2424                   20220270.4064
   3807570.96547   3004120.07844  22828110.7034                   22828109.2544
  19850074.34046  15789902.09843  23814812.5234                   23814816.9384
  -2179160.85547   -944855.13344  22984439.0784                   22984440.2304
  -6597315.50447  -5108875.26245  22203165.6414                   22203166.2154
  -7542746.45748  -5843757.64146  21370677.8524                   21370675.3244
 -19416179.48448 -15109149.88346  20918277.3834                   20918275.5944
 11  8 25 19 42 30.0000000  0  8G07G08G11G04G26G24G28G17
   7624654.21947   5972440.94945  21973908.6564                   21973909.3054
  -7120074.18048  -5505908.22746  20209293.1884                   20209293.0394
   3789655.69947   2990160.05944  22824701.9304                   22824700.9884
  19634261.67646  15621736.70343  23773743.8204                   23773749.5204
  -2244006.18747   -995384.04744  22972099.5554                   22972100.7234
  -6652659.43748  -5152000.44545  22192634.1884                   22192634.4224
  -7665450.08648  -5939370.87546  21347328.4924                   21347325.8134
 -19544871.86748 -15209429.65246  20893787.7274                   20893785.8244
 11  8 25 19 43  0.0000000  0  8G07G08G11G04G26G24G28G17
   7613460.45747   5963718.41445  21971778.6644                   21971778.3754
  -7177128.21948  -5550365.96546  20198436.6254                   20198435.9454
   3772156.03147   2976523.87944  22821371.8984                   22821370.4264
  19418526.38746  15453631.61343  23732690.4694                   23732695.4184
  -2308319.86347  -1045498.69544  22959862.1174                   22959862.1414
  -6707421.38747  -5194672.13345  22182213.1094                   22182213.5314
  -7788037.25048  -6034893.33646  21324000.6954                   21323997.9774
 -19673154.82048 -15309390.38346  20869376.7114                   20869374.6414
 11  8 25 19 43 30.0000000  0  8G07G08G11G04G26G24G28G17
   9178092.35547   7182911.96545  22269518.1414                   22269517.4614
  -5658124.43048  -4366726.69946  20487493.3594                   20487492.4224
   5330492.06347   4190811.64544  23117913.6174                   23117912.5594
  20778300.03946  16513195.77743  23991446.8524                   23991451.2114
   -796680.36747    132402.12544  23247517.1024                   23247517.9924
  -5186178.82847  -4009288.37545  22471695.8674                   22471697.0434
  -6335081.40648  -4902719.96546  21600488.8674                   21600486.5354
 -18225602.73448 -14181427.70346  21144836.3524                   21144834.6604
 11  8 25 19 44  0.0000000  0  8G07G08G11G04G26G24G28G17
   9167712.75047   7174823.82845  22267543.0084                   22267542.3094
  -5713901.20748  -4410189.18046  20476879.4614                   20476878.2814
   5313826.09847   4177825.13344  23114741.6174   23114740.9844   20562737.16446
  16345224.97343                  23950426.6174                   23950430.6604
   -859928.55147     83117.72744  23235481.3984                   23235481.8014
  -5239771.05547  -4051048.58245  22461497.5944                   22461498.2544
  -6457423.76648  -4998051.67646  21577208.3364                   21577205.2274
 -18353059.35548 -14280744.54746  21120581.8134                   21120580.3674
 11  8 25 19 44 30.0000000  0  8G07G08G11G04G26G24G28G17
   9157744.59847   7167056.31345  22265646.4774                   22265646.0274
  -5769031.99648  -4453148.28546  20466388.7274                   20466387.3794
   5297581.04347   4165166.58644  23111650.9694   23111649.6054   20347272.50446
  16177330.71143                  23909424.5634                   23909429.6994
   -922639.71947     34251.83244  23223548.4064                   23223548.2274
  -5292772.52347  -4092348.46545  22451412.2274                   22451412.3794
  -6579634.51648  -5093280.83246  21553952.2734                   21553949.4144
 -18480095.91848 -14379734.06246  21096407.7664                   21096406.1884
 11  8 25 19 45  0.0000000  0  8G07G08G11G04G26G24G28G17
   9148193.79747   7159613.99645  22263828.8444                   22263829.6484
  -5823510.43048  -4495599.05946  20456021.6564                   20456020.5944
   5281761.97747   4152840.00044  23108640.8984   23108638.9694   20131916.74246
  16009521.28543                  23868444.2424                   23868448.5474
   -984808.54747    -14191.49244  23211717.3594                   23211718.6174
  -5345177.09047  -4133183.21945  22441439.9144                   22441440.1604
  -6701704.76248  -5188400.50446  21530722.4774                   21530720.0744
 -18606705.39148 -14478390.77746  21072314.9064                   21072313.5394
 11  8 25 19 45 30.0000000  0  8G07G08G11G04G26G24G28G17
   9139059.61347   7152496.34845  22262090.8914                   22262092.2074
  -5877335.91448  -4537541.05146  20445778.8284                   20445778.0474
   5266367.98447   4140844.62944  23105711.1334   23105710.0704   19916674.21947
  15841800.04343                  23827484.1644                   23827488.2624
  -1046435.78947    -62212.81644  23199990.5704                   23199991.4344
  -5396984.69147  -4173552.80945  22431581.3134                   22431581.3834
  -6823631.86748  -5283408.64546  21507520.5554                   21507518.1804
 -18732886.96948 -14576714.07046  21048303.4304                   21048301.4344
 11  8 25 19 46  0.0000000  0  8G07G08G11G04G26G24G28G17
   9130344.18847   7145704.97745  22260432.8754                   22260433.5634
  -5930504.72348  -4578971.34046  20435661.3524                   20435660.5084
   5251400.57847   4129181.63344  23102863.6254   23102862.0164   19701551.71947
  15674172.39143                  23786547.5944                   23786552.4534
  -1107519.92647   -109810.94544  23188367.0004                   23188366.5784
  -5448192.89847  -4213455.32445  22421837.3364                   22421836.7814
  -6945411.39148  -5378301.78146  21484346.5084                   21484344.2344
 -18858637.10548 -14674701.18446  21024373.8204                   21024372.1724
 11  8 25 19 46 30.0000000  0  8G07G08G11G04G26G24G28G17
   9122046.87547   7139239.41045  22258853.7504                   22258854.5704
  -5983016.37548  -4619889.55546  20425668.5084                   20425667.9534
   5236858.72747   4117850.27344  23100095.4454   23100094.3484   19486553.66847
  15506641.66843                  23745634.8284                   23745639.1374
  -1168062.19547   -156986.81644  23176845.9844                   23176846.6484
  -5498801.52747  -4252890.65244  22412206.5554                   22412206.2034
  -7067040.51648  -5473077.73846  21461201.5474                   21461198.9024
 -18983955.30548 -14772351.72346  21000526.6414                   21000525.0984
 11  8 25 19 47  0.0000000  0  8G07G08G11G04G26G24G28G17
   9114169.81347   7133101.30545  22257354.6254                   22257354.6604
  -6034867.66048  -4660293.19946  20415801.7584                   20415800.8244
   5222744.35247   4106851.99243  23097409.7114   23097408.7584   19271687.29747
  15339213.56643                  23704746.4304                   23704751.0554
  -1228060.40647   -203738.75444  23165428.9844                   23165429.9144
  -5548807.75447  -4291856.59844  22402690.1564                   22402690.5664
  -7188513.74648  -5567732.21946  21438086.1644                   21438083.7584
 -19108837.73048 -14869662.68046  20976762.2504                   20976760.5164
 11  8 25 19 47 30.0000000  0  8G07G08G11G04G26G24G28G17
   9106713.58247   7127291.10245  22255936.1724                   22255935.3444
  -6086056.15248  -4700180.38746  20406061.0554                   20406059.8134
   5209057.90647   4096187.17643  23094805.6414   23094804.3524   19056958.37547
  15171892.58243                  23663885.0554                   23663889.5594
  -1287514.21147   -250066.47744  23154115.2974                   23154115.9494
  -5598210.05547  -4330351.93045  22393289.3134                   22393289.6844
  -7309827.45348  -5662262.37946  21415001.2584                   21414998.0984
 -19233282.23848 -14966632.41446  20953081.3204                   20953079.3954
 11  8 25 19 48  0.0000000  0  8G07G08G11G04G26G24G28G17
   9099679.98447   7121810.22745  22254597.8054                   22254597.7384
  -6136579.08248  -4739548.95746  20396446.8284                   20396445.7424
   5195800.61347   4085856.76243  23092282.1024   23092281.2664   18842373.43846
  15004683.78543                  23623049.7114                   23623054.9574
  -1346422.25847   -295968.91844  23142905.3674                   23142905.4774
  -5647006.41447  -4368375.10545  22384003.6094                   22384004.2234
  -7430976.72348  -5756664.43446  21391946.9304                   21391944.5474
 -19357285.80948 -15063258.55146  20929484.1954                   20929482.3134
 11  8 25 19 48 30.0000000  0  8G07G08G11G04G26G24G28G17
   9093067.52747   7116657.51245  22253339.5554                   22253339.6294
  -6186436.97348  -4778399.31246  20386959.3444                   20386958.4734
   5182970.39147   4075859.14144  23089840.8834   23089839.8524   18627936.19946
  14837590.10943                  23582244.1724                   23582249.4734
  -1404786.81247   -341447.87544  23131799.1954                   23131799.4884
  -5695197.72747  -4405926.80945  22374833.2584                   22374833.7814
  -7551959.94548  -5850937.08246  21368924.6954                   21368921.9734
 -19480848.30948 -15159540.99646  20905970.9224                   20905969.4494
 11  8 25 19 49  0.0000000  0  8G07G08G11G04G26G24G28G17
   9086873.97347   7111831.21145  22252161.0394                   22252161.7894
  -6235630.66448  -4816732.11346  20377598.1094                   20377596.8794
   5170564.73447   4066192.32443  23087480.8674   23087479.1054   18413649.43046
  14670613.64843                  23541466.9614                   23541471.5084
  -1462609.73447   -386504.80144  23120796.5314                   23120796.8594
  -5742785.57847  -4443008.28545  22365777.9844                   22365777.8754
  -7672776.03148  -5945079.48846  21345934.2504                   21345931.4184
 -19603970.65648 -15255480.47746  20882541.6334                   20882540.0634
 11  8 25 19 49 30.0000000  0  8G07G08G11G04G26G24G28G17
   9081096.05947   7107328.81645  22251061.4774                   22251062.5434
  -6284161.92248  -4854548.73846  20368363.3284                   20368361.7814
   5158580.44947   4056853.85544  23085199.9844   23085198.5784   18199515.03146
  14503755.94544                  23500718.0864                   23500723.0944
  -1519894.87947   -431142.65244  23109894.9774                   23109895.5004
  -5789772.41447  -4479621.44145  22356836.7344                   22356836.7734
  -7793424.83248  -6039091.55946  21322975.2734                   21322972.0634
 -19726654.64548 -15351078.37546  20859195.7664                   20859194.1994
 11  8 25 19 50  0.0000000  0  8G07G08G11G04G26G24G28G17
   9075734.24647   7103150.63745  22250041.2894                   22250042.1484
  -6332029.14548  -4891847.92246  20359254.1414                   20359253.1024
   5147017.50447   4047843.69544  23082999.6174   23082998.1564   17985538.66046
  14337021.36343                  23459999.6884                   23460004.7384
  -1576642.14547   -475361.36344  23099096.1724                   23099097.4064
  -5836157.13747  -4515765.41445  22348010.2424                   22348010.3204
  -7913902.64148  -6132970.37546  21300049.6024                   21300047.0274
 -19848898.40248 -15446333.24246  20835933.3984                   20835931.5984
 11  8 25 19 50 30.0000000  0  8G07G08G11G04G26G24G28G17
   9070790.64547   7099298.36345  22249100.6804                   22249101.7274
  -6379229.62148  -4928627.56646  20350272.0784                   20350271.4494
   5135877.35947   4039162.97344  23080880.0944   23080878.8914   17771727.15646
  14170415.25443                  23419312.0164                   23419317.3134
  -1632850.12547   -519159.85544  23088399.6174                   23088401.8364
  -5881937.35547  -4551438.34045  22339298.3134                   22339298.4024
  -8034204.41448  -6226712.02346  21277156.6954                   21277154.2424
 -19970698.53548 -15541242.42646  20812755.4924                   20812753.9574
 11  8 25 19 51  0.0000000  0  8G07G08G11G04G26G24G28G17
  10641685.43047   8323372.08245  22548032.6334                   22548032.6024
  -4850340.25848  -3737285.25446  20641210.1024                   20641209.2624
   6700580.08247   5258411.82444  23378633.6254   23378631.7504   19133512.87146
  15231547.23043                  23678450.4774                   23678455.7734
   -113097.07047    665063.21544  23377599.3054                   23377600.5004
  -4351690.78948  -3359038.44945  22630494.7734                   22630494.5824
  -6578902.82448  -5092710.78546  21554091.0004                   21554088.5944
 -18516629.52348 -14408201.62146  21089455.6644                   21089453.8524
 11  8 25 19 51 30.0000000  0  8G07G08G11G04G26G24G28G17
  10637580.25047   8320173.09845  22547251.3054                   22547251.5474
  -4896201.31248  -3773021.18746  20632482.9614                   20632482.2114
   6690286.77047   5250390.97344  23376675.0084   23376674.7584   18920048.84846
  15065211.86744                  23637830.1954                   23637834.1604
   -168225.01247    622106.27344  23367109.1024                   23367109.9614
  -4396257.84847  -3393766.06645  22622013.6724                   22622013.9694
  -6698840.30148  -5186168.56246  21531267.7114                   21531265.1684
 -18637535.60948 -14502414.12946  21066448.1724                   21066446.3634
 11  8 25 19 52  0.0000000  0  8G07G08G11G04G26G24G28G17
  10633892.62947   8317299.46945  22546549.3984                   22546550.0744
  -4941392.71148  -3808235.32446  20623883.9144                   20623882.4454
   6680414.65647   5242698.34044  23374796.2584   23374795.6094   18706764.38347
  14899016.42643                  23597243.3984                   23597247.3754
   -222815.70347    579567.96144  23356721.2974                   23356721.4884
  -4440219.56247  -3428021.99245  22613648.1024                   22613648.5474
  -6818592.66048  -5279482.09046  21508479.8594                   21508477.3164
 -18757994.57848 -14596278.25046  21043525.5474                   21043523.6024
 11  8 25 19 52 30.0000000  0  8G07G08G11G04G26G24G28G17
  10630618.77747   8314748.26645  22545926.7424                   22545927.1564
  -4985916.87148  -3842929.53146  20615411.0864                   20615410.5124
   6670959.78947   5235330.85544  23372996.6644   23372996.1254   18493661.08247
  14732962.16844                  23556691.2114                   23556695.6604
   -276872.57447    537445.59844  23346434.9694                   23346435.9654
  -4483578.64847  -3461808.32044  22605397.1254                   22605397.2384
  -6938159.71948  -5372651.24246  21485726.9694                   21485724.5274
 -18878008.66448 -14689795.70746  21020687.7194                   21020685.9414
 11  8 25 19 53  0.0000000  0  8G07G08G11G04G26G24G28G17
  10627756.77747   8312517.98445  22545381.7814                   22545382.4654
  -5029774.64848  -3877104.48446  20607065.3594                   20607064.7814
   6661920.09047   5228286.85544  23371277.4844   23371276.4024   18280742.41847
  14567051.76244                  23516173.9694                   23516178.4534
   -330398.31647    495737.09044  23336248.9454                   23336249.4494
  -4526336.46147  -3495126.13344  22597260.6484                   22597260.7304
  -7057540.43748  -5465675.18746  21463009.6174                   21463006.9844
 -18997578.01248 -14782966.62546  20997934.4144                   20997932.4774
 11  8 25 19 53 30.0000000  0  8G07G08G11G04G26G24G28G17
  10625307.15247   8310609.05145  22544915.9844                   22544916.1604
  -5072964.23048  -3910758.75846  20598846.4064                   20598846.0234
   6653295.82447   5221566.60244  23369635.6954   23369635.3164   18068014.08247
  14401289.62944                  23475692.4064                   23475697.0394
   -383392.60547    454442.73844  23326164.0474                   23326164.8134
  -4568492.07047  -3527974.68744  22589238.7114                   22589238.7734
  -7176730.64848  -5558550.68046  21440328.3594                   21440325.8594
 -19116700.48848 -14875789.32846  20975265.9064                   20975264.2734
 11  8 25 19 54  0.0000000  0  8G07G08G11G04G26G24G28G17
  10623269.10947   8309020.78545  22544528.6724                   22544529.2424
  -5115485.70748  -3943892.42246  20590754.6954                   20590754.1134
   6645085.46547   5215168.84044  23368073.2114   23368072.6454   17855479.97346
  14235678.86344                  23435248.8444                   23435252.9384
   -435856.62547    413561.57044  23316181.0474                   23316182.2584
  -4610046.11347  -3560354.48844  22581331.0784                   22581331.1054
  -7295728.03948  -5651275.92646  21417684.1024                   21417680.7544
 -19235375.87548 -14968263.64546  20952682.5784                   20952680.8484
 11  8 25 19 54 30.0000000  0  8G07G08G11G04G26G24G28G17
  10621634.18447   8307746.64545  22544217.4304                   22544218.7274
  -5157346.57448  -3976511.34446  20582789.1724                   20582788.4654
   6637280.50846   5209086.99244  23366587.8444   23366588.0554   17643136.95346
  14070216.98843                  23394840.7584                   23394845.1884
   -487799.70747    373086.36344  23306296.6024                   23306297.8834
  -4651006.30147  -3592271.55145  22573537.2424                   22573537.4574
  -7414537.71948  -5743854.90246  21395075.2894                   21395072.3204
 -19353611.29348 -15060395.12546  20930183.3204                   20930181.4064
 11  8 25 19 55  0.0000000  0  8G07G08G11G04G26G24G28G17
  10620399.64547   8306784.49645  22543982.6414                   22543984.4884
  -5198548.21148  -4008616.58246  20574948.8444                   20574948.1054
   6629878.10946   5203318.80943  23365178.9534   23365178.4534   17430987.56647
  13904906.00044                  23354470.2344                   23354473.9884
   -539224.50847    333014.99244  23296510.5784                   23296511.7424
  -4691374.70747  -3623727.49645  22565854.9064                   22565855.5744
  -7533158.77048  -5836286.90246  21372502.3674                   21372499.7934
 -19471407.80148 -15152184.60546  20907767.4924                   20907765.8094
 11  8 25 19 55 30.0000000  0  8G07G08G11G04G26G24G28G17
  10619558.73447   8306129.08645  22543822.3364                   22543824.5394
  -5239096.00848  -4040212.32846  20567233.0634                   20567232.2304
   6622871.21146   5197858.82043  23363846.0944   23363845.1604   17219030.57046
  13739744.94543                  23314135.9224                   23314139.2154
   -590138.51647    293341.66044  23286822.4064                   23286824.0274
  -4731157.77047  -3654727.33244  22558284.4384                   22558285.6024
  -7651594.28548  -5928574.32046  21349965.0314                   21349962.3054
 -19588770.57448 -15243636.10246  20885434.0474                   20885432.2584
 11  8 25 19 56  0.0000000  0  8G07G08G11G04G26G24G28G17
  10619109.93847   8305779.21145  22543737.3984                   22543738.7034
  -5278991.26648  -4071299.62146  20559641.3444                   20559640.6094
   6616257.93446   5192705.55543  23362587.3204   23362586.8834   17007269.41047
  13574736.49244                  23273839.2034                   23273841.8794
   -640543.37547    254065.08644  23277230.0704                   23277232.7274
  -4770356.59847  -3685271.89544  22550824.7424                   22550825.7544
  -7769842.71548  -6020715.95346  21327463.3914                   21327460.5394
 -19705699.97348 -15334749.92246  20863182.8674                   20863180.8984
 11  8 25 19 56 30.0000000  0  8G07G08G11G04G26G24G28G17
  10619048.69547   8305731.32045  22543725.8914                   22543726.7234
  -5318237.69148  -4101881.31246  20552172.5554                   20552171.6094
   6610033.00046   5187854.87543  23361403.6024   23361402.1764   16795704.50047
  13409880.96544                  23233579.6334                   23233582.6804
   -690444.48847    215181.02044  23267734.8674                   23267737.1764
  -4808975.56247  -3715364.63344  22543476.1484                   22543476.7624
  -7887905.50048  -6112712.93046  21304996.4774                   21304994.0474
 -19822198.74248 -15425528.17646  20841013.9534                   20841012.1174
 11  8 25 19 57  0.0000000  0  8G07G08G11G04G26G24G28G17
  10619371.34847   8305982.55545  22543787.3984                   22543787.3594
  -5356837.71148  -4131959.31246  20544827.3754                   20544826.5824
   6604193.08646   5183304.21943  23360292.3984   23360290.6174   16584337.91847
  13245179.96144                  23193357.1804                   23193360.8404
   -739845.62947    176686.52344  23258334.2114                   23258336.2624
  -4847017.26647  -3745007.57445  22536236.8594                   22536237.6564
  -8005782.38748  -6204565.05546  21282565.4384                   21282562.6604
 -19938269.99248 -15515973.30146  20818926.2424                   20818924.7274
 11  8 25 19 57 30.0000000  0  8G07G08G11G04G26G24G28G17
  10620073.03147   8306529.12145  22543921.8754                   22543920.9924
  -5394795.09448  -4161536.55546  20537604.4534                   20537603.9964
   6598732.92247   5179049.46943  23359252.8674   23359251.2344   16373169.82847
  13080633.60944                  23153173.1954                   23153177.2704
   -788752.27747    138577.31344  23249027.9064                   23249029.4534
  -4884486.38347  -3774204.33245  22529107.1174                   22529108.0354
  -8123474.78948  -6296273.42646  21260168.9454                   21260166.4224
 -20053916.67247 -15606087.59046  20796919.2974                   20796917.6054
 11  8 25 19 58  0.0000000  0  8G07G08G11G04G26G24G28G17
  10621149.78147   8307367.96945  22544126.0944                   22544127.2074
  -5432112.94948  -4190615.46946  20530503.5234                   20530502.4224
   6593648.11747   5175087.23843  23358285.7344   23358284.0394   16162201.73047
  12916243.09044                  23113026.9774                   23113031.4884
   -837168.79747    100850.02344  23239814.4224                   23239815.7584
  -4921386.31647  -3802957.57045  22522085.3284                   22522085.9574
  -8240983.16848  -6387838.40246  21237807.7814                   21237805.6954
 -20169141.00448 -15695872.78146  20774993.1954                   20774991.4964
 11  8 25 19 58 30.0000000  0  8G07G08G11G04G26G24G28G17
  10622591.02047   8308490.85545  22544400.7194                   22544402.2894
  -5468800.79748  -4219203.47346  20523521.9224                   20523520.8484
   6588928.05547   5171409.18443  23357388.1804   23357385.7734   15951428.37547
  12752004.32444                  23072918.6724                   23072921.6254
   -885106.04747     63496.19944  23230692.4774                   23230693.1804
  -4957727.31647  -3831275.29344  22515169.4614                   22515170.4964
  -8358314.31248  -6479265.27346  21215480.5554                   21215478.1884
 -20283952.60948 -15785336.35946  20753145.1884                   20753143.2734
 11  8 25 19 59  0.0000000  0  8G07G08G11G04G26G24G28G17
  12199815.08247   9537496.45345  22844535.8444                   22844537.7664
  -3929438.34448  -3019700.32846  20816453.0084                   20816452.3444
   8159991.02047   6395614.02043  23656351.1884   23656349.9454   17316280.22747
  13815525.44544                  23332640.0944                   23332644.1724
    642855.04747   1254115.09843  23521453.3754                   23521454.5354
  -3418089.56247  -2631557.60545  22808153.0944                   22808153.6524
  -6900042.56248  -5342949.63346  21492980.6024                   21492977.5594
 -18822927.77048 -14646875.44946  21031168.9924                   21031167.4534
 11  8 25 19 59 30.0000000  0  8G07G08G11G04G26G24G28G17
  12201975.86347   9539180.00845  22844947.1254                   22844949.1484
  -3964873.53948  -3047312.23046  20809709.7034                   20809709.2544
   8155990.09046   6392496.34043  23655589.8754   23655588.4734   17105902.05947
  13651594.62144                  23292607.1024                   23292610.0664
    595864.87146   1217499.27343  23512511.0864                   23512513.3244
  -3453321.03547  -2659010.72745  22801448.9384                   22801449.2504
  -7017018.93048  -5434100.06246  21470720.5234                   21470718.1054
 -18936918.87548 -14735699.68446  21009477.2194                   21009475.6564
 11  8 25 20  0  0.0000000  0  8G07G08G11G04G26G24G28G17
  12204484.01247   9541134.22745  22845425.2974                   22845426.6174
  -3999693.44148  -3074444.68746  20803083.6174                   20803083.4774
   8152336.18047   6389649.06344  23654894.6174   23654893.5904   16895717.59447
  13487814.71944                  23252610.5004                   23252612.3674
    549335.33647   1181242.39144  23503657.2114                   23503658.8984
  -3488009.23847  -2686040.53944  22794848.4614                   22794848.5474
  -7133824.68448  -5525117.55146  21448493.5234                   21448490.6564
 -19050509.62948 -14824211.94946  20987861.6094                   20987860.0824
 11  8 25 20  0 30.0000000  0  8G07G08G11G04G26G24G28G17
  12207335.84847   9543356.26645  22845968.2734                   22845969.7814
  -4033900.89848  -3101099.90646  20796574.3984                   20796573.8364
   8149025.15647   6387068.97744  23654264.2814   23654264.0164   16685728.12947
  13324186.76644                  23212649.8364                   23212653.1054
    503262.12547   1145341.06644  23494890.5944                   23494892.7814
  -3522157.66047  -2712649.75844  22788350.1564                   22788350.0354
  -7250459.91848  -5616002.15646  21426298.2114                   21426295.7424
 -19163702.82848 -14912414.44146  20966321.4304                   20966320.0084
 11  8 25 20  1  0.0000000  0  8G07G08G11G04G26G24G28G17
  12210522.52347   9545839.19145  22846574.8594                   22846575.9184
  -4067503.85948  -3127284.09846  20790179.7584                   20790179.3634
   8146048.08647   6384749.09443  23653697.5784   23653697.3204   16475930.13747
  13160708.02044                  23172726.9694                   23172729.8134
    457636.15247   1109788.25844  23486208.4774                   23486210.4064
  -3555774.95747  -2738845.07844  22781952.5164                   22781952.8834
  -7366929.94148  -5706758.02346  21404134.8134                   21404131.8324
 -19276505.73448 -15000312.80546  20944856.1024                   20944854.4774
 11  8 25 20  1 30.0000000  0  8G07G08G11G04G26G24G28G17
  12214035.87547   9548576.69145  22847243.4144                   22847244.7194
  -4100509.61348  -3153002.94146  20783899.0704                   20783898.1914
   8143396.84447   6382683.12543  23653192.9614   23653192.4384   16266320.93046
  12997376.35944                  23132838.9694                   23132842.5314
    412448.71147   1074577.16444  23477609.5394                   23477611.4344
  -3588868.74647  -2764632.47345  22775655.5784                   22775655.5474
  -7483239.01648  -5797388.48446  21382001.4224                   21381999.2274
 -19388924.88348 -15087912.14146  20923463.2734                   20923461.5204
 11  8 25 20  2  0.0000000  0  8G07G08G11G04G26G24G28G17
  12217862.93847   9551558.63345  22847971.9384                   22847973.3134
  -4132930.22748  -3178265.84046  20777729.6094                   20777729.1844
   8141058.00446   6380860.56643  23652748.6414   23652747.5514   16056892.73046
  12834185.74644                  23092985.6414                   23092989.8834
    367686.09847   1039697.08244  23469092.2274                   23469093.9414
  -3621451.46947  -2790021.64844  22769455.2424                   22769455.5744
  -7599396.86748  -5887901.09046  21359897.6564                   21359895.3284
 -19500972.03548 -15175221.60547  20902141.6254                   20902139.6884
 11  8 25 20  2 30.0000000  0  8G07G08G11G04G26G24G28G17
  12221993.98847   9554777.46145  22848758.1724                   22848759.0084
  -4164774.83648  -3203079.89146  20771669.9454                   20771669.8674
   8139021.68846   6379273.75843  23652360.0864   23652360.4144   15847641.34846
  12671132.93044                  23053166.1094                   23053170.0944
    323338.62147   1005140.49244  23460652.5554                   23460654.3164
  -3653532.38747  -2815019.80944  22763350.3364                   22763350.8554
  -7715409.69948  -5978300.70746  21337821.4774                   21337819.0434
 -19612655.10948 -15262247.37546  20880888.7974                   20880887.1484
 11  8 25 20  3  0.0000000  0  8G07G08G11G04G26G24G28G17
  12226422.96147   9558228.41845  22849600.8984                   22849602.2424
  -4196048.57848  -3227449.11746  20765719.0784                   20765719.0474
   8137281.85246   6377917.93443  23652030.0634   23652028.9574   15638566.02746
  12508217.30143                  23013380.8674                   23013384.6564
    279399.22347    970901.91444  23452291.3674                   23452293.4144
  -3685117.24647  -2839631.44144  22757340.1644                   22757340.5044
  -7831279.61348  -6068588.95746  21315772.3054                   21315769.6994
 -19723979.19548 -15348993.41046  20859704.7344                   20859703.1484
 11  8 25 20  3 30.0000000  0  8G07G08G11G04G26G24G28G17
  12231144.65647   9561907.44145  22850500.1414                   22850501.0704
  -4226755.90648  -3251376.96946  20759875.6954                   20759875.2234
   8135832.90246   6376788.77743  23651754.1254   23651753.2894   15429666.86347
  12345438.90644                  22973628.5234                   22973631.3404
    235862.28947    936976.91044  23444006.0864                   23444008.4614
  -3716211.22347  -2863860.55144  22751423.5004                   22751422.9884
  -7947008.37948  -6158767.22346  21293749.4844                   21293747.0984
 -19834948.03948 -15435462.63346  20838588.1644                   20838586.3984
 11  8 25 20  4  0.0000000  0  8G07G08G11G04G26G24G28G17
  12236147.29747   9565805.39845  22851452.0554                   22851453.5204
  -4256908.37548  -3274872.45746  20754138.1094                   20754137.7034
   8134662.45746   6375876.67643  23651532.0944   23651530.2624   15220937.48847
  12182792.84444                  22933908.8054                   22933910.8834
    192715.47747    903355.85243  23435795.7664                   23435796.8714
  -3746825.91447  -2887716.18744  22745597.3364                   22745597.1564
  -8062604.23848  -6248841.91046  21271752.5554                   21271750.0784
 -19945572.18448 -15521663.25446  20817537.1024                   20817535.2234
 11  8 25 20  4 30.0000000  0  8G07G08G11G04G26G24G28G17
  12241421.85947   9569915.24645  22852455.8834                   22852457.4454
  -4286513.51648  -3297941.45746  20748504.2344                   20748504.0944
   8133761.98846   6375174.89543  23651360.5234   23651359.6454   15012374.35547
  12020276.35244                  22894220.2504                   22894223.5394
    149949.45347    870031.58243  23427657.4774                   23427659.3324
  -3776969.65247  -2911204.85944  22739860.9454                   22739860.9414
  -8178072.20748  -6338816.96946  21249779.5554                   21249777.2934
 -20055858.94548 -15607600.98046  20796549.9384                   20796548.3164
 11  8 25 20  5  0.0000000  0  8G07G08G11G04G26G24G28G17
  12246962.59047   9574232.52044  22853509.3284                   22853512.0744
  -4315576.46148  -3320587.98446  20742973.9144                   20742973.3244
   8133125.78146   6374679.09043  23651239.6564   23651238.7384   14803977.05147
  11857889.05544                  22854563.4224                   22854566.0944
    107558.07847    836999.21944  23419591.5864                   23419592.7774
  -3806647.73047  -2934330.66844  22734213.6484                   22734213.3284
  -8293414.18448  -6428693.84446  21227830.5474                   21227828.1604
 -20165812.54748 -15693279.10546  20775626.6804                   20775624.6804
 11  8 25 20  5 30.0000000  0  8G07G08G11G04G26G24G28G17
  12252761.75447   9578751.16044  22854613.1564                   22854616.1684
  -4344104.89148  -3342818.00846  20737545.0084                   20737544.4774
   8132745.28946   6374382.55943  23651167.1024   23651166.6724   14595743.02747
  11695628.98044                  22814937.7034                   22814940.2974
     65532.69947    804252.04744  23411594.7344                   23411596.4064
  -3835867.74647  -2957099.55944  22728653.1644                   22728653.2814
  -8408634.65248  -6518476.04346  21205905.1884                   21205902.2734
 -20275439.70348 -15778702.85546  20754765.1094                   20754763.2384
 11  8 25 20  6  0.0000000  0  8G07G08G11G04G26G24G28G17
  12258811.62147   9583465.16444  22855765.0554                   22855767.6054
  -4372105.67248  -3364636.87946  20732216.9384                   20732215.9494
   8132612.77046   6374279.21943  23651141.9774   23651141.4414   14387670.14847
  11533494.46544                  22775342.3524                   22775345.6414
     23865.22747    771783.78944  23403665.4694                   23403666.7974
  -3864637.04747  -2979517.22344  22723178.8284                   22723178.5664
  -8523737.27048  -6608166.41046  21184001.5704                   21183999.0704
 -20384746.55548 -15863877.01246  20733964.9774                   20733963.1414
 11  8 25 20  6 30.0000000  0  8G07G08G11G04G26G24G28G17
  12265103.50447   9588367.71944  22856962.3834                   22856964.4654
  -4399586.52748  -3386050.60946  20726987.0864                   20726987.0944
   8132719.69147   6374362.47343  23651162.4694   23651161.4104   14179755.39147
  11371483.14144                  22735777.2424                   22735780.2234
    -17453.41847    739587.32444  23395802.3204                   23395804.5864
  -3892963.94147  -3001590.16844  22717788.5944                   22717788.2814
  -8638727.12548  -6697768.90246  21162119.8594                   21162117.3134
 -20493740.48448 -15948807.34446  20713223.8674                   20713222.4304
 11  8 25 20  7  0.0000000  0  8G07G08G11G04G26G24G28G17
  13847051.89847  10821054.57044  23157998.2584                   23157999.1484
  -2851131.21948  -2179462.13346  21021648.6094                   21021648.8244
   9708480.65646   7602228.11743  23951019.7194   23951018.6954   15547425.27047
  12437200.12544                  22996036.2734                   22996039.7114
   1516992.21546   1935259.12144  23687797.7504                   23687800.8244
  -2345432.60247  -1795721.63744  23012273.2664                   23012273.3874
  -7178182.00448  -5559681.80946  21440052.5394                   21440050.1844
 -19027001.49648 -14805893.84846  20992335.1174                   20992333.5234
 11  8 25 20  7 30.0000000  0  8G07G08G11G04G26G24G28G17
  13853808.91047  10826319.55944  23159283.9614                   23159284.7854
  -2877589.40648  -2200078.96946  21016614.0004                   21016613.7854
   9709047.08646   7602669.42243  23951127.4224   23951126.8914   15339823.60947
  12275432.79344                  22956531.0474                   22956533.6804
   1476350.68447   1903590.33244  23680064.3984                   23680066.4614
  -2372892.80547  -1817119.23444  23007048.1884                   23007049.0554
  -7292953.72348  -5649114.32446  21418212.1174                   21418209.5474
 -19135383.59448 -14890347.42246  20971710.8364                   20971709.0744
 11  8 25 20  8  0.0000000  0  8G07G08G11G04G26G24G28G17
  13860795.06347  10831763.09844  23160613.5474                   23160614.5904
  -2903538.46548  -2220299.09446  21011676.0084                   21011676.3484
   9709839.76646   7603287.01643  23951278.1724   23951277.0634   15132383.58247
  12113791.37944                  22917056.4614                   22917058.8954
   1436043.44547   1872181.96944  23672394.3594                   23672396.1174
  -2399922.41447  -1838181.34044  23001904.3834                   23001905.2464
  -7407614.19148  -5738460.15246  21396392.9694                   21396390.2854
 -19243461.36748 -14974563.86746  20951143.8364                   20951142.1174
 11  8 25 20  8 30.0000000  0  8G07G08G11G04G26G24G28G17
  13867998.14547  10837375.68044  23161983.5554                   23161985.3094
  -2928990.91848  -2240132.24646  21006832.6644                   21006832.5594
   9710845.88746   7604070.92243  23951470.1954   23951470.0044   14925097.67247
  11952270.09844                  22877610.6174                   22877613.6024
   1396057.58247   1841024.00444  23664785.0784                   23664786.7974
  -2426534.09047  -1858917.73844  22996840.4534                   22996841.3014
  -7522172.14548  -5827726.10246  21374593.3594                   21374590.9184
 -19351245.96948 -15058551.87546  20930633.5314                   20930631.3674
 11  8 25 20  9  0.0000000  0  8G07G08G11G04G26G24G28G17
  13875417.02047  10843156.42644  23163395.6024                   23163398.0744
  -2953946.77748  -2259578.45346  21002083.2424                   21002082.8524
   9712064.34446   7605020.28943  23951701.2734   23951701.0664   14717970.60947
  11790872.55544                  22838195.5554                   22838198.0864
   1356391.48447   1810115.21944  23657237.2194                   23657238.7854
  -2452728.46547  -1879329.00444  22991856.0944                   22991857.3204
  -7636624.74648  -5916909.95746  21352813.7974                   21352811.1484
 -19458736.80148 -15142310.96146  20910178.4844                   20910176.8834
 11  8 25 20  9 30.0000000  0  8G07G08G11G04G26G24G28G17
  13883042.56347  10849098.19144  23164846.9064                   23164849.4924
  -2978414.66848  -2278644.42246  20997427.7424                   20997427.1054
   9713486.02046   7606127.96943  23951972.4224   23951972.2074   14510998.62147
  11629595.84044                  22798809.8444                   22798812.5164
   1317035.66447   1779448.19944  23649748.1724                   23649749.9344
  -2478514.18047  -1899421.82444  22986949.3834                   22986950.1254
  -7750977.38348  -6006015.92246  21331052.9694                   21331050.7814
 -19565941.32848 -15225846.95746  20889778.4614                   20889776.6994
 11  8 25 20 10  0.0000000  0  8G07G08G11G04G26G24G28G17
  13890871.91047  10855198.75045  23166337.6254                   23166340.0434
  -3002396.86748  -2297331.93746  20992864.5314                   20992864.0664
   9715108.32046   7607391.99243  23952281.4534   23952280.7034   14304184.64547
  11468442.25044                  22759454.0004                   22759457.6174
   1277986.64147   1749020.26244  23642317.7034                   23642320.0204
  -2503893.78947  -1919198.19944  22982119.5944                   22982120.5004
  -7865228.83648  -6095043.02746  21309311.4224                   21309309.5274
 -19672861.42248 -15309161.32046  20869431.9844                   20869430.3014
 11  8 25 20 10 30.0000000  0  8G07G08G11G04G26G24G28G17
  13898905.03547  10861458.11345  23167867.0784                   23167868.4734
  -3025892.78148  -2315640.53546  20988393.5084                   20988392.9884
   9716930.94146   7608812.14543  23952627.7814   23952627.7974   14097533.85947
  11307415.79744                  22720130.4454                   22720133.3164
   1239243.82047   1718830.91044  23634945.0634                   23634946.7194
  -2528867.43747  -1938658.25044  22977367.3754                   22977368.0944
  -7979375.25448  -6183988.30146  21287590.2734                   21287587.9884
 -19779495.63748 -15392252.90246  20849139.7894                   20849138.1604
 11  8 25 20 11  0.0000000  0  8G07G08G11G04G26G24G28G17
  13907135.61747  10867871.33645  23169432.9064                   23169435.1254
  -3048908.11348  -2333574.64146  20984013.6804                   20984013.0514
   9718947.57846   7610383.42243  23953011.9224   23953011.5274   13891045.56647
  11146515.98444                  22680837.1414                   22680839.6254
   1200800.55947   1688875.00444  23627629.5864                   23627632.0274
  -2553440.84847  -1957806.39544  22972691.7194                   22972691.7664
  -8093418.87148  -6272853.46946  21265888.7034                   21265886.1724
 -19885848.44148 -15475125.21546  20828901.7194                   20828900.4144
 11  8 25 20 11 30.0000000  0  8G07G08G11G04G26G24G28G17
  13915565.43047  10874439.79744  23171036.7734                   23171038.4454
  -3071440.66848  -2351132.55546  20979725.8674                   20979725.9574
   9721159.78946   7612107.16043  23953433.1724   23953433.0004   13684726.86347
  10985748.32044                  22641575.6644                   22641578.0664
   1162657.84447   1659153.30944  23620371.5474                   23620374.0314
  -2577612.00847  -1976641.12144  22968091.0784                   22968092.5664
  -8207354.42248  -6361634.43446  21244207.6334                   21244204.6684
 -19991917.24248 -15557776.23046  20808717.7194                   20808715.5354
 11  8 25 20 12  0.0000000  0  8G07G08G11G04G26G24G28G17
  13924193.64146  10881162.85544  23172678.2034                   23172680.1294
  -3093490.96947  -2368314.68746  20975529.7194                   20975529.8954
   9723566.65646   7613982.51243  23953890.8284   23953891.2974   13478582.28147
  10825116.31644                  22602347.7974                   22602349.5634
   1124814.12547   1629664.58644  23613170.1724                   23613172.3754
  -2601381.62147  -1995162.95344  22963568.4614                   22963569.9024
  -8321179.23048  -6450329.10246  21222547.5634                   21222545.2304
 -20097701.45748 -15640205.48046  20788587.4064                   20788585.9574
 11  8 25 20 12 30.0000000  0  8G07G08G11G04G26G24G28G17
  13933015.22346  10888036.57044  23174357.3594                   23174359.1644
  -3115063.42648  -2385124.46946  20971424.7584                   20971425.0744
   9726162.92646   7616005.47743  23954384.7274   23954385.3404   13272612.30547
  10664620.37944                  22563153.2584                   22563154.6684
   1087264.03547   1600404.66444  23606024.7974                   23606027.2544
  -2624754.37547  -2013375.53144  22959120.9454                   22959121.5164
  -8434894.27748  -6538938.24246  21200908.3754                   21200905.7274
 -20203204.46948 -15722415.62146  20768510.8284                   20768509.3324
 11  8 25 20 13  0.0000000  0  8G07G08G11G04G26G24G28G17
  13942031.35947  10895061.87944  23176073.6094                   23176075.5004
  -3136156.56648  -2401560.78146  20967410.8284                   20967410.9184
   9728949.83246   7618177.03143  23954915.4454   23954915.1564   13066823.80147
  10504265.83244                  22523992.4064                   22523994.0864
   1050007.94547   1571373.82844  23598935.0314                   23598937.8204
  -2647728.87547  -2031277.80144  22954749.2344                   22954749.5514
  -8548494.65648  -6627458.03946  21179290.7034                   21179288.0864
 -20308423.96148 -15804404.83646  20748488.6724                   20748487.0984
 11  8 25 20 13 30.0000000  0  8G07G08G11G04G26G24G28G17
  13951242.32047  10902239.00844  23177826.2424                   23177828.8874
  -3156769.61348  -2417622.98446  20963488.6094                   20963488.3324
   9731927.85246   7620497.49243  23955482.2034   23955481.7584   12861222.54747
  10344057.21944                  22484867.2344                   22484869.3484
   1013046.04747   1542572.21144  23591901.4064                   23591903.8874
  -2670304.81247  -2048869.50044  22950452.8984                   22950453.1914
  -8661975.57048  -6715884.74646  21157696.2114                   21157693.5434
 -20413357.93048 -15886171.56246  20728520.3594                   20728518.4734
 11  8 25 20 14  0.0000000  0  8G07G08G11G04G26G24G28G17
  13960647.06347  10909567.13744  23179616.7424                   23179619.3554
  -3176903.07048  -2433311.49246  20959657.3364                   20959656.8364
   9735095.68446   7622965.86343  23956085.7664   23956084.8444   12655813.02047
  10183997.98444                  22445778.9304                   22445781.2504
    976376.40247   1513998.34044  23584923.8834                   23584926.2384
  -2692482.92246  -2066151.19144  22946231.8134                   22946233.2384
  -8775334.42648  -6804216.33646  21136124.3524                   21136122.0204
 -20518006.02048 -15967715.53146  20708606.3674                   20708604.4344
 11  8 25 20 14 30.0000000  0  8G07G08G11G04G26G24G28G17
  13970245.17247  10917045.94944  23181443.2194                   23181446.7504
  -3196557.13748  -2448626.44146  20955917.3674                   20955917.1214
   9738452.91046   7625581.80943  23956724.1254   23956723.4224   12450599.93447
  10024091.82444                  22406728.6174                   22406730.3164
    939997.89847   1485651.32444  23578001.0784                   23578002.7894
  -2714263.75447  -2083123.32044  22942087.2894                   22942089.1684
  -8888567.98448  -6892450.28946  21114577.0084                   21114574.7344
 -20622367.87948 -16049036.46546  20688746.5394                   20688744.8094
 11  8 25 20 15  0.0000000  0  8G07G08G11G04G26G24G28G17
  15555456.74247  12152275.51644  23483099.4924                   23483102.9304
  -1640310.48048  -1235966.80946  21252061.1094                   21252060.6484
  11317419.55946   8855945.36343  24257190.8364   24257191.3874   13821016.14847
  11091948.75044                  22667509.6884                   22667511.7814
   2479331.77047   2685132.09444  23870926.9144                   23870928.4804
  -1160225.86747   -872184.78944  23237811.1724                   23237812.3794
  -7426248.00848  -5752980.19546  21392847.2424                   21392844.5434
 -19151017.99248 -14902530.04746  20968735.4064                   20968733.3594
 11  8 25 20 15 30.0000000  0  8G07G08G11G04G26G24G28G17
  15565439.22747  12160053.86344  23484999.0944                   23485002.2504
  -1659006.85548  -1250535.48845  21248503.0314                   21248503.1564
  11321153.16446   8858854.62943  24257902.2274   24257902.3364   13616210.57447
  10932360.12545                  22628536.2504                   22628538.5234
   2443532.06347   2657236.09044  23864113.9774                   23864116.7814
  -1181213.20747   -888538.60544  23233817.6484                   23233818.2234
  -7539221.19148  -5841011.25846  21371348.8984                   21371346.9104
 -19254804.80548 -14983402.88346  20948985.2814                   20948983.7624
 11  8 25 20 16  0.0000000  0  8G07G08G11G04G26G24G28G17
  15575616.82447  12167984.23444  23486934.6254                   23486938.2194
  -1677220.54748  -1264728.06246  21245037.3754                   21245037.8164
  11325078.30146   8861913.10942  24258648.7424   24258649.1294   13411619.94947
  10772938.99644                  22589603.9534                   22589605.9064
   2408023.78947   2629567.14543  23857357.4534                   23857359.4734
  -1201800.78547   -904580.91844  23229900.1954                   23229901.2274
  -7652055.26248  -5928933.92646  21349877.3834                   21349875.2624
 -19358299.05948 -15064047.75046  20929291.3524                   20929289.4344
 11  8 25 20 16 30.0000000  0  8G07G08G11G04G26G24G28G17
  15585985.91447  12176063.84444  23488908.5004                   23488910.8324
  -1694955.33648  -1278547.47746  21241662.6644                   21241663.0904
  11329190.67646   8865117.48043  24259432.4694   24259431.5274   13207245.93047
  10613686.66045                  22550712.6644                   22550715.3794
   2372802.28947   2602121.69944  23850655.3054                   23850657.5664
  -1221992.03947   -920314.41844  23226057.9304                   23226058.4384
  -7764750.18448  -6016748.16846  21328432.5314                   21328430.2034
 -19461503.03548 -15144466.43046  20909652.0394                   20909650.4414
 11  8 25 20 17  0.0000000  0  8G07G08G11G04G26G24G28G17
  15596546.92647  12184292.93844  23490919.1484                   23490920.3594
  -1712210.30148  -1291993.00446  21238379.5634                   21238379.6844
  11333490.93446   8868468.25842  24260249.7664   24260249.2464   13003094.82847
  10454608.01645                  22511864.6564                   22511866.2234
   2337867.94147   2574900.00844  23844007.1254                   23844009.9144
  -1241786.39847   -935738.62544  23222291.6564                   23222291.5744
  -7877301.52748  -6104450.53546  21307014.5164                   21307011.9184
 -19564414.65648 -15224657.29746  20890068.8914                   20890066.9884
 11  8 25 20 17 30.0000000  0  8G07G08G11G04G26G24G28G17
  15607296.71547  12192669.10544  23492965.6414                   23492967.2424
  -1728988.29748  -1305066.85946  21235186.7734                   21235186.7934
  11337976.10546   8871963.10943  24261103.1954   24261103.3524   12799168.91447
  10295704.84045                  22473058.0234                   22473060.0744
   2303216.91846   2547899.09844  23837413.3524                   23837416.2424
  -1261186.98847   -950856.02044  23218599.4454                   23218600.0164
  -7989708.11348  -6192040.10246  21285624.4454                   21285621.5904
 -19667036.55548 -15304622.41446  20870540.5164                   20870538.5394
 11  8 25 20 18  0.0000000  0  8G07G08G11G04G26G24G28G17
  15618235.54347  12201192.60944  23495047.3054                   23495049.8984
  -1745288.68448  -1317768.56246  21232084.9224                   21232085.1174
  11342646.60246   8875602.35543  24261992.7584   24261992.6334   12595473.45347
  10136981.24644                  22434295.9064                   22434297.7344
   2268848.52747   2521118.40644  23830874.0634                   23830877.3164
  -1280193.20747   -965666.14844  23214983.3364                   23214983.7424
  -8101966.01648  -6279513.82446  21264262.3134                   21264260.0164
 -19769366.47348 -15384360.00846  20851067.9454                   20851066.1884
 11  8 25 20 18 30.0000000  0  8G07G08G11G04G26G24G28G17
  15629358.18447  12209859.31644  23497163.9454                   23497167.0984
  -1761116.43748  -1330101.96545  21229072.9144                   21229073.3014
  11347496.68046   8879381.54743  24262915.9924   24262914.7464   12392009.35547
   9978437.93844                  22395578.3984                   22395579.7464
   2234757.60947   2494553.96544  23824386.6564                   23824389.4694
  -1298810.18747   -980172.93744  23211440.2974                   23211441.4614
  -8214076.50048  -6366872.64846  21242928.5634                   21242925.8054
 -19871408.48048 -15463873.26646  20831649.6954                   20831647.7114
 11  8 25 20 19  0.0000000  0  8G07G08G11G04G26G24G28G17
  15640666.33246  12218670.57844  23499315.2344                   23499318.9494
  -1776469.46148  -1342065.44145  21226151.2034                   21226151.5664
  11352528.55546   8883302.37543  24263872.8594   24263872.3014   12188783.54747
   9820080.30545                  22356905.5784                   22356907.9804
   2200944.74247   2468206.14843  23817952.2194                   23817954.4384
  -1317035.98047   -994374.90644  23207971.9454                   23207972.9104
  -8326033.80148  -6454112.12946  21221623.8364                   21221621.6254
 -19973159.37548 -15543159.66446  20812286.9924                   20812285.2544
 11  8 25 20 19 30.0000000  0  8G07G08G11G04G26G24G28G17
  15652160.52346  12227626.81344  23501502.2504                   23501506.5274
  -1791347.16048  -1353658.53946  21223320.4924                   21223320.6724
  11357742.57846   8887365.14543  24264864.9224   24264864.5004   11985802.12947
   9661913.10545                  22318279.4064                   22318281.1684
   2167410.11747   2442075.13343  23811570.7734                   23811573.3164
  -1334870.19147  -1008271.73044  23204578.8834                   23204579.5744
  -8437833.60948  -6541228.88346  21200348.8984                   21200347.0704
 -20074617.22348 -15622217.72746  20792980.3524                   20792978.6524
 11  8 25 20 20  0.0000000  0  9G07G08G11G04G20G26G24G28G17
  15663839.73446  12236727.23044  23503724.3984                   23503728.7704
  -1805749.98048  -1364881.61746  21220579.9144                   21220579.9414
  11363137.75446   8891569.14143  24265892.1094   24265891.3874   11783069.53547
   9503939.78945                  22279700.4064                   22279701.8674
  34513323.02357  26904655.21553  24567223.1884                   24567226.1054
   2134152.12947   2416159.64543  23805242.0864                   23805244.5824
  -1352313.29747  -1021863.82844  23201259.2344                   23201260.6844
  -8549472.62148  -6628220.33646  21179104.7114                   21179102.6844
 -20175781.68048 -15701047.16446  20773729.6644                   20773727.5864
 11  8 25 20 20 30.0000000  0  9G07G08G11G04G20G26G24G28G17
  15675701.21146  12245969.65644  23505981.7274                   23505985.8714
  -1819680.65248  -1375736.78546  21217928.8674                   21217929.3404
  11368711.54346   8895912.27043  24266953.4924   24266952.5944   11580588.68847
   9346162.62945                  22241169.4304                   22241171.3014
  34370519.14147  26793379.60943  24540048.6484                   24540051.1884
   2101167.37947   2390457.10544  23798965.8444                   23798968.2424
  -1369368.00047  -1035153.25844  23198014.0164                   23198014.5004
  -8660949.51248  -6715085.46146  21157891.4924                   21157889.4024
 -20276654.01648 -15779648.98446  20754534.1954                   20754532.7114
 11  8 25 20 21  0.0000000  0  9G07G08G11G04G20G26G24G28G17
  15687738.17247  12255348.77744  23508273.3054                   23508276.0204
  -1833145.58648  -1386229.03545  21215366.9064                   21215367.1214
  11374457.07846   8900389.22743  24268046.1414   24268046.7034   11378358.20747
   9188580.57045                  22202686.1174                   22202687.9344
  34227956.99246  26682292.37543  24512919.4694                   24512921.5394
   2068448.58247   2364961.76644  23792739.5164                   23792741.8364
  -1386041.14147  -1048145.36344  23194840.9694                   23194842.2624
  -8772267.38748  -6801826.68446  21136708.1954                   21136706.5744
 -20377239.91848 -15858027.60946  20735393.1954                   20735391.4454
 11  8 25 20 21 30.0000000  0  9G07G08G11G04G20G26G24G28G17
  15699945.66447  12264860.82044  23510597.5164                   23510599.0634
  -1846149.66447  -1396362.17245  21212892.0554                   21212892.5274
  11380369.59446   8904996.29743  24269171.3444   24269171.1764   11176378.68447
   9031194.03945                  22164250.7664                   22164253.0784
  34085636.74647  26571393.62543  24485836.0864                   24485838.3914
   2035990.12947   2339669.32043  23786562.8834                   23786565.4264
  -1402337.52047  -1060843.89544  23191739.9304                   23191740.1994
  -8883426.93748  -6888444.52746  21115555.5164                   21115553.3674
 -20477543.04348 -15936185.89146  20716306.4614                   20716304.1994
 11  8 25 20 22  0.0000000  0  9G07G08G11G04G20G26G24G28G17
  15712322.00447  12274504.39844  23512953.0784                   23512954.9884
  -1858694.64547  -1406137.57845  21210505.0084                   21210505.4454
  11386447.50846   8909732.26643  24270327.9844   24270327.8484   10974653.64847
   8874005.83645                  22125863.3054                   22125865.3834
  33943561.75447  26460685.99243  24458800.8594                   24458802.5514
   2003789.30147   2314577.64544  23780435.4224                   23780438.2154
  -1418258.85947  -1073250.19944  23188709.8444                   23188711.1334
  -8994426.35248  -6974937.59446  21094433.0394                   21094430.8754
 -20577563.68448 -16014124.05546  20697273.0004                   20697271.1564
 11  8 25 20 22 30.0000000  0  9G07G08G11G04G20G26G24G28G17
  15724869.52747  12284281.37944  23515340.8204                   23515343.8134
  -1870778.03947  -1415553.29345  21208205.7114                   21208206.1804
  11392692.85546   8914598.66843  24271517.1334   24271516.3244   10773191.11347
   8717022.16045                  22087526.3754                   22087527.8404
  33801739.69546  26350175.40243  24431812.7814                   24431814.9104
   1971848.23447   2289688.34044  23774357.0864                   23774360.9694
  -1433802.91447  -1085362.49244  23185752.8204                   23185752.8364
  -9105259.01648  -7061300.72746  21073342.0864                   21073339.6804
 -20677298.14148 -16091839.20746  20678293.7894                   20678292.2154
 11  8 25 20 23  0.0000000  0  9G07G08G11G04G20G26G24G28G17
  17313008.00847  13521791.56644  23817552.8444                   23817557.8914
   -306978.89547   -197008.59446  21505786.4614                   21505787.6884
  12974526.02046  10147195.86742  24572528.6024   24572528.7974   12147423.50847
   9787852.72745                  22349034.5554                   22349034.9964
  35235600.82446  27467469.92643  24704667.3054                   24704669.1914
   3515587.38347   3492601.85544  24068120.9774                   24068124.7384
    126451.29347    130419.95744  23482659.4064                   23482660.1884
  -7640496.80948  -5919927.60246  21352077.1724                   21352074.7774
 -19201321.40248 -14941727.46146  20959163.0234                   20959161.4534
 11  8 25 20 23 30.0000000  0  9G07G08G11G04G20G26G24G28G17
  17325896.68846  13531834.41844  23820005.8524                   23820011.1134
   -318139.29747   -205705.12945  21503663.2504                   21503663.6254
  12981106.09846  10152323.10542  24573781.5634   24573781.4024   11946501.55948
   9631290.27345                  22310800.6724                   22310801.3014
  35094299.56646  27357365.16043  24677778.3364                   24677781.0044
   3484162.85947   3468115.07444  24062140.6414                   24062144.6564
    111661.36747    118895.27344  23479844.6334                   23479845.7424
  -7750984.58648  -6006022.00046  21331052.1094                   21331049.6644
 -19300480.32848 -15018994.14846  20940293.4924                   20940291.6644
 11  8 25 20 24  0.0000000  0  9G07G08G11G04G20G26G24G28G17
  17338956.86746  13542010.94544  23822491.5394                   23822495.6024
   -328836.89847   -214041.04345  21501627.9384                   21501627.6174
  12987854.67645  10157581.60242  24575064.3054   24575065.3404   11745859.10247
   9474945.62945                  22272618.6094                   22272619.8014
  34953267.73546  27247470.35043  24650940.4304                   24650943.8524
   3452996.71947   3443829.63743  24056210.5554                   24056213.5664
     97249.58647    107665.27044  23477102.3364                   23477103.0824
  -7861292.91448  -6091976.55946  21310061.2974                   21310058.8984
 -19399348.48848 -15096034.26646  20921479.5474                   20921477.8284
 11  8 25 20 24 30.0000000  0  9G07G08G11G04G20G26G24G28G17
  17352190.14146  13552322.33243  23825009.5474                   23825013.5514
   -339069.98047   -222014.99245  21499680.7504                   21499680.9304
  12994772.93845  10162972.35242  24576381.6334   24576383.4104   11545503.08247
   9318824.18045                  22234491.8984                   22234493.2464
  34812511.87546  27137790.52743  24624155.2504                   24624158.7934
   3422089.76247   3419746.12944  24050329.3524                   24050332.0944
     83217.49647     96731.10544  23474432.2504                   23474432.9804
  -7971416.17648  -6177786.90646  21289105.3204                   21289103.0044
 -19497923.21148 -15172845.75046  20902721.2034                   20902719.6484
 11  8 25 20 25  0.0000000  0  8G07G08G04G20G26G24G28G17
  17365593.08247  13562765.82444  23827561.3054                   23827564.3674
   -348841.95347   -229629.60945  21497820.7504                   21497821.6374
  11345435.44548   9162927.42645  22196420.6564                   22196421.9304
  34672033.91846  27028327.31643  24597423.5784                   24597426.5274
   3391438.06347   3395861.48843  24044497.3204                   24044499.7274
     69561.87547     86090.31644  23471833.7194                   23471833.7734
  -8081353.87148  -6263452.65646  21268184.7034                   21268182.4304
 -19596206.54748 -15249430.16046  20884018.8204                   20884017.3094
 11  8 25 20 25 30.0000000  0  8G07G08G04G20G26G24G28G17
  17379166.50047  13573342.16444  23830145.4304                   23830147.6844
   -358151.80148   -236884.13745  21496049.8364                   21496050.3594
  11145662.85247   9007260.56645  22158404.6254                   22158406.1644
  34531839.87946  26919085.22742  24570745.4774                   24570749.3244
   3361041.83647   3372175.92644  24038713.0634                   24038716.2974
     56283.74247     75743.64144  23469306.8754                   23469307.9184
  -8191100.97748  -6348969.89546  21247300.5784                   21247298.1644
 -19694196.15248 -15325785.69946  20865372.1024                   20865370.5124
 11  8 25 20 26  0.0000000  0  8G07G08G04G20G26G24G28G17
  17392915.07446  13584055.01244  23832761.5084                   23832763.6524
   -366995.23048   -243775.21945  21494366.3834                   21494367.2114
  10946195.16047   8851831.32045  22120446.6804                   22120448.5394
  34391939.79746  26810072.28542  24544123.1174                   24544127.0274
   3330904.82047   3348692.36344  24032977.8134                   24032981.3244
     43387.67247     65694.68444  23466852.4384                   23466854.1134
  -8300649.14848  -6434332.10546  21226454.5634                   21226451.9694
 -19791886.21148 -15401907.82846  20846782.7114                   20846780.5204
 11  8 25 20 26 30.0000000  0  8G07G08G04G20G26G24G28G17
  17406841.52746  13594906.42644  23835411.1254                   23835414.5784
   -375369.04748   -250300.38345  21492773.3524                   21492773.9964
  10747040.79747   8696646.21545  22082549.3134                   22082551.3484
  34252341.44546  26701294.33242  24517559.4384                   24517562.4264
   3301029.53547   3325412.75044  24027293.2344                   24027296.4574
     30876.32847     55945.52044  23464472.2424                   23464473.3164
  -8409991.12148  -6519533.65646  21205647.2664                   21205644.8754
 -19889272.48448 -15477793.23446  20828250.4144                   20828248.7114
 11  8 25 20 27  0.0000000  0  8G07G08G04G20G26G24G28G17
  17420947.48846  13605897.72344  23838095.1644                   23838100.2894
   -383271.59448   -256458.31245  21491269.8594                   21491269.7624
  10548206.62948   8541710.60945  22044712.6024                   22044713.9654
  34113051.69146  26592756.91042  24491052.4534                   24491056.0434
   3271416.86347   3302337.78544  24021657.5554                   24021661.8134
     18751.39547     46497.43844  23462164.5474                   23462165.1564
  -8519121.44148  -6604570.28546  21184880.4844                   21184877.7974
 -19986352.20748 -15553439.78146  20809776.7034                   20809774.4924
 11  8 25 20 27 30.0000000  0  8G07G08G04G20G26G24G28G17
  17435233.86746  13617029.64144  23840813.7424                   23840819.0554
   -390702.25848   -262248.55545  21489855.8054                   21489856.0084
  10349699.10548   8387029.53945  22006937.7734                   22006939.2934
  33974076.65246  26484464.71542  24464607.4844                   24464609.6804
   3242066.93847   3279467.54344  24016073.1954                   24016077.1174
      7013.85247     37351.23844  23459930.9064                   23459931.3134
  -8628035.10548  -6689438.09446  21164155.0394                   21164152.0084
 -20083123.33248 -15628845.85246  20791361.5864                   20791359.8134
 11  8 25 20 28  0.0000000  0  8G07G08G04G20G26G24G28G17
  17449698.25446  13628300.26644  23843566.3204                   23843572.1094
   -397662.88747   -267672.52345  21488530.8364                   21488531.8914
  10151521.60548   8232605.63745  21969226.0784                   21969227.1094
  33835419.25446  26376420.05542  24438220.7344                   24438223.9574
   3212977.07847   3256799.92244  24010537.0784                   24010541.3554
     -4338.42646     28505.25843  23457770.2114                   23457771.2894
  -8736730.40248  -6774135.74246  21143471.1644                   21143468.5274
 -20179586.35948 -15704011.84847  20773005.0394                   20773003.3874
 11  8 25 20 28 30.0000000  0  8G07G08G04G20G26G24G28G17
  17464341.15647  13639710.01644  23846353.7664                   23846359.3674
   -404153.23847   -272730.03945  21487295.4304                   21487297.4344
   9953680.00048   8078443.46145  21931577.8594                   21931579.0944
  33697085.37146  26268627.50842  24411897.6094                   24411899.6884
   3184146.95347   3234334.69943  24005051.6954                   24005054.9144
    -15305.14147     19959.67243  23455683.9694                   23455684.6024
  -8845202.43748  -6858659.42246  21122829.4224                   21122827.2894
 -20275739.54348 -15778936.39846  20754707.9224                   20754706.4024
 11  8 25 20 29  0.0000000  0  8G07G08G04G20G26G24G28G17
  17479161.68447  13651258.10944  23849175.4224                   23849179.3524
   -410174.15247   -277421.77045  21486150.5634                   21486151.2544
   9756178.89847   7924546.59445  21893994.2034                   21893995.7234
  33559079.28545  26161090.30942  24385633.8134                   24385637.9774
   3155575.06347   3212070.71944  23999614.6724                   23999617.4774
    -25887.27746     11713.76243  23453670.7274                   23453670.9384
  -8953448.28148  -6943006.85246  21102231.0474                   21102228.6054
 -20371582.49648 -15853619.22746  20736469.6644                   20736468.1644
 11  8 25 20 29 30.0000000  0  8G07G08G04G20G26G24G28G17
  17494159.27747  13662944.14844  23852029.4774                   23852032.7974
   -415726.10248   -281748.08645  21485094.0234                   21485094.2114
   9559022.93448   7770918.68445  21856476.7424                   21856478.5904
  33421405.49245  26053812.10542  24359435.4144                   24359440.3134
   3127260.27747   3190007.07043  23994226.7344                   23994229.7424
    -36085.33647      3767.18843  23451729.7034                   23451730.1954
  -9061464.50848  -7027175.35246  21081676.0234                   21081673.8954
 -20467114.58248 -15928059.80547  20718290.4064                   20718288.8054
 11  8 25 20 30  0.0000000  0  8G07G08G04G20G26G24G28G17
  17509334.00847  13674768.24244  23854916.4774                   23854920.0984
   -420809.09448   -285708.98045  21484126.9924                   21484127.4304
   9362217.79747   7617564.14545  21819025.6414                   21819027.0044
  33284068.92246  25946796.67642  24333302.2424                   24333305.2194
   3099202.13746   3168143.42643  23988886.2034                   23988890.8834
    -45899.07046     -3879.95743  23449861.9924                   23449863.2114
  -9169247.04748  -7111161.76246  21061165.5864                   21061163.3404
 -20562334.30148 -16002256.99246  20700170.5004                   20700169.2114
 11  8 25 20 30 30.0000000  0  8G07G08G04G20G26G24G28G17
  17524685.99646  13686730.48444  23857838.4774                   23857842.0394
   -425423.33648   -289304.60945  21483249.0704                   21483249.3404
   9165768.84448   7464487.14845  21781642.8364                   21781643.8244
  33147075.00445  25840048.26242  24307233.0234                   24307236.2814
   3071399.87547   3146479.13743  23983596.8984                   23983600.9184
    -55328.48046    -11227.58244  23448067.1334                   23448068.5314
  -9276791.66048  -7194962.77046  21040700.8914                   21040698.6724
 -20657240.43748 -16076209.82446  20682110.8134                   20682109.0824
 11  8 25 20 31  0.0000000  0  8G07G08G04G20G26G24G28G17
  19115633.62146  14926429.63343  24160584.6484                   24160589.7704
   1145850.17647    935064.24645  21782252.3984   21782252.6884   10545107.17247
   8539296.33645  22044122.4774   22044123.0124   24581022.6094   24581026.1414
   4619272.73847   4352613.66444  24278147.6804                   24278151.8754
   1511045.71547   1209323.66843  23746139.0784                   23746139.1764
  -7808671.49648  -6050973.05546  21320074.9614                   21320072.4414
 -19176409.56648 -14922315.63746  20963903.6564                   20963901.9454

 11  8 25 20 31 30.0000000  0  8G07G08G04G20G26G24G28G17
  19131339.02746  14938667.26243  24163572.9694                   24163580.0314
   1142172.66047    932198.52745  21781552.6564   21781553.8484   10349386.51247
   8386786.85245                  22006877.6414   22006878.4734
  34449558.36746  26854970.63742  24555086.8754                   24555090.7894
   4591979.83247   4331346.28944  24272954.6644                   24272958.0434
   1502384.03947   1202574.28543  23744490.8674                   23744491.4064
  -7915728.53548  -6134394.14846  21299702.4844                   21299700.1414
 -19270685.46948 -14995777.37146  20945963.3594                   20945961.5044
 11  8 25 20 32  0.0000000  0  8G07G08G04G20G26G24G28G17
  19147218.94946  14951040.82843  24166597.1174                   24166602.4384
   1138961.22347    929695.99245  21780941.3444   21780942.6484   10154035.62548
   8234565.48845                  21969703.3914   21969704.8714
  34313619.84045  26749044.60542  24529219.0784                   24529222.8324
   4564938.26247   4310274.75044  24267809.0004                   24267812.2074
   1494103.91847   1196122.16443  23742915.1884                   23742915.8134
  -8022537.81648  -6217622.17646  21279377.4844                   21279375.5084
 -19364646.47348 -15068993.73446  20928082.9694                   20928081.8634
 11  8 25 20 32 30.0000000  0  8G07G08G04G20G26G24G28G17
  19163269.16446  14963547.15643  24169651.0394                   24169656.5124
   1136211.93047    927553.57445  21780419.0004   21780419.3714
   9959056.16047   8082633.54345  21932599.7504   21932600.7274
  34178037.98446  26643396.48442  24503418.5704                   24503421.6094
   4538143.52347   4289395.55943  24262709.9774                   24262713.4734
   1486201.50847   1189964.39843  23741412.0474                   23741412.5044
  -8129099.46148  -6300657.24246  21259099.3204                   21259097.1174
 -19458295.02048 -15141966.62546  20910262.4614                   20910260.7154
 11  8 25 20 33  0.0000000  0  8G07G08G04G20G26G24G28G17
  19179496.63746  14976191.65643  24172739.2894                   24172744.1414
   1133930.77348    925775.92245  21779984.9224   21779985.6374
   9764460.03947   7931000.29745  21895569.2664   21895570.3284
  34042824.51246  26538035.39143  24477688.1804                   24477691.3484
   4511601.47747   4268713.21143  24257658.3984                   24257662.0664
   1478683.36747   1184106.02344  23739981.6484                   23739981.8364
  -8235402.60948  -6383490.87946  21238870.3834                   21238868.0554
 -19551623.53548 -15214690.13346  20892502.6414                   20892500.7154
 11  8 25 20 33 30.0000000  0  8G07G08G04G20G26G24G28G17
  19195899.39846  14988972.56643  24175861.3204                   24175866.0944
   1132116.32848    924361.94145  21779639.4384   21779640.2774
   9570251.06647   7779668.73845  21858612.2504   21858613.6374
  33907982.91046  26432964.11343  24452028.3834                   24452031.5274
   4485309.97347   4248226.11343  24252655.8364                   24252659.2424
   1471547.55547   1178545.59043  23738623.9534                   23738624.1334
  -8341444.91048  -6466121.26646  21218691.5394                   21218689.4454
 -19644632.16448 -15287164.38746  20874803.7424                   20874801.4654
 11  8 25 20 34  0.0000000  0  8G07G08G04G20G26G24G28G17
  19212473.35947  15001886.98843  24179016.1724                   24179020.6484
   1130763.92247    923307.99245  21779382.0944   21779383.1764
   9376430.47347   7628639.81645  21821729.0784   21821730.2504
  33773513.71546  26328183.01242  24426439.3204                   24426442.4884
   4459264.06647   4227930.43443  24247699.4614                   24247703.2934
   1464790.06346   1173279.94943  23737337.3204                   23737338.4614
  -8447226.52348  -6548548.51246  21198561.7424                   21198559.5744
 -19737324.10248 -15359391.86346  20857165.1644                   20857163.0514
 11  8 25 20 34 30.0000000  0  8G07G08G04G20G26G24G28G17
  19229217.47746  15014933.97343  24182202.0084                   24182207.5274
   1129873.02747    922613.65645  21779212.5864   21779213.7074
   9183002.71947   7477916.99645  21784921.3914   21784921.8014
  33639421.58246  26223695.64843  24400922.3134                   24400923.9804
   4433462.30547   4207824.95343  24242789.9924                   24242793.6844
   1458410.14147   1168308.52044  23736123.1414                   23736124.9024
  -8552743.89148  -6630769.85946  21178482.7034                   21178480.2074
 -19829698.59848 -15431371.98446  20839586.6954                   20839585.1214
 11  8 25 20 35  0.0000000  0  8G07G08G04G20G26G24G28G17
  19246135.18846  15028116.25043  24185420.5784                   24185426.2154
   1129446.54347    922281.20345  21779131.3444   21779132.3634
   8989976.55547   7327507.09845  21748190.0554   21748190.4064
  33505714.92646  26119508.72743  24375479.7664                   24375481.5704
   4407907.37147   4187911.83244  24237927.0704                   24237931.5514
   1452410.73046   1163633.58644  23734981.5704                   23734982.9264
  -8657989.98848  -6712779.82046  21158454.7424                   21158452.7074
 -19921751.18448 -15503101.27046  20822069.6724                   20822068.2234
 11  8 25 20 35 30.0000000  0  8G07G08G04G20G26G24G28G17
  19263225.43046  15041432.93043  24188673.1644                   24188678.8444
   1129483.23447    922309.66445  21779138.7194   21779139.6414
   8797356.37948   7177413.57045  21711535.7504   21711536.2154
  33372397.68046  26015625.20743  24350110.4384                   24350112.1374
   4382598.02046   4168190.04743  24233111.5084                   24233115.6994
   1446791.16046   1159254.62144  23733912.3834                   23733913.6954
  -8762961.58648  -6794575.87946  21138479.5554                   21138477.4144
 -20013481.37148 -15574579.34846  20804613.9144                   20804612.3524
 11  8 25 20 36  0.0000000  0  8G07G08G04G20G26G24G28G17
  19280486.66047  15054882.85244  24191959.2894                   24191963.9964
   1129981.17247    922697.52345  21779233.0084   21779234.4414
   8605145.72348   7027639.13745  21674958.8444   21674959.6994
  33239472.95746  25912047.57843  24324814.6884                   24324816.9574
   4357531.18446   4148657.25043  24228340.7664                   24228345.9494
   1441549.24246   1155169.94143  23732914.8834                   23732916.8914
  -8867656.07048  -6876156.00846  21118557.0784                   21118554.3874
 -20104889.63748 -15645806.56646  20787219.7734                   20787218.0784
 11  8 25 20 36 30.0000000  0  8G07G08G04G20G26G24G28G17
  19297916.48847  15068464.12544  24195276.4924                   24195281.7704
   1130938.22347    923443.14545  21779415.6094   21779417.1374
   8413348.00448   6878186.46945  21638460.7734   21638461.3914
  33106943.82046  25808778.17243  24299596.3674                   24299597.8164
   4332704.58247   4129311.63743  24223616.4844                   24223621.1994
   1436682.88746   1151377.90244  23731988.8054                   23731991.0594
  -8972071.76248  -6957518.87546  21098687.3054                   21098684.7974
 -20195977.08248 -15716783.80546  20769886.1024                   20769884.5474
 11  8 25 20 37  0.0000000  0  8G07G08G04G20G26G24G28G17
  19315513.10246  15082175.37544  24198624.6644                   24198631.2704
   1132352.14547    924544.77345  21779685.0314   21779686.6414
   8221966.21947   6729057.89145  21602042.0634   21602043.4804
  32974813.21946  25705819.32843  24274451.5474                   24274454.0744
   4308115.30146   4110150.94143  24218938.1954                   24218942.6254
   1432190.08646   1147876.93843  23731133.6954                   23731135.3794
  -9076206.44948  -7038662.80146  21078870.8134                   21078868.8754
 -20286744.67248 -15787511.79346  20752613.8204                   20752612.0514
 11  8 25 20 37 30.0000000  0  8G07G08G04G20G26G24G28G17
  19333275.44146  15096015.73444  24202005.2814                   24202011.7424
   1134221.58247    926001.36345  21780040.9454   21780042.2384
   8031005.23447   6580257.21945  21565703.2034   21565704.2424
  32843085.52046  25603174.45343  24249383.7814                   24249387.4264
   4283762.10246   4091174.22743  24214303.9454                   24214308.9494
   1428070.03146   1144666.44544  23730350.8364                   23730351.5744
  -9180056.82848  -7119585.18446  21059108.6094                   21059106.6804
 -20377191.39848 -15857989.77346  20735402.3364                   20735400.6914
 11  8 25 20 38  0.0000000  0  8G07G08G04G20G26G24G28G17
  19351201.68846  15109983.86743  24205416.8984                   24205423.9064
   1136545.16447    927811.83245  21780483.3204   21780484.5084
   7840468.65648   6431787.23845  21529445.5784   21529445.8164
  32711764.00846  25500846.07044  24224395.0394                   24224397.8524
   4259642.64146   4072379.61344  24209714.4064                   24209718.4844
   1424321.31346   1141745.27743  23729637.0634                   23729638.6994
  -9283620.46948  -7200284.13746  21039401.6644                   21039399.5704
 -20467317.55148 -15928217.94946  20718251.9144                   20718250.1374
 11  8 25 20 38 30.0000000  0  8G07G08G04G20G26G24G28G17
  19369292.37946  15124080.18443  24208858.8054                   24208866.8554
   1139322.63347    929975.96145  21781011.5704   21781012.8404
   7650362.05948   6283652.31645  21493269.7974   21493270.0944
  32580853.88346  25398838.21943  24199483.5944                   24199486.5474
   4235756.44947   4053766.75043  24205169.9844                   24205172.9574
   1420943.53146   1139113.18843  23728993.9614                   23728995.7074
  -9386893.24648  -7280756.46146  21019749.4614                   21019747.0434
 -20557121.93448 -15998195.39846  20701162.3984                   20701160.8714
 11  8 25 20 39  0.0000000  0  8G07G08G04G20G26G24G28G17
  20962961.97346  16365900.24243  24512124.8444                   24512132.1644
   2717969.07847   2160089.94545  22081418.3364   22081419.6054
   9036112.23448   7363457.74245  21756968.9454   21756969.7774
  34025779.74646  26524754.55544  24474444.1484                   24474446.7544
   5787519.09446   5262932.21543  24500459.8364                   24500464.2304
   2993352.16046   2364366.59443  24028213.4534                   24028214.1884
  -7914451.96548  -6133399.62546  21299945.4144                   21299943.3834
 -19071184.89548 -14840322.37546  20983927.0234                   20983925.1094
 11  8 25 20 39 30.0000000  0  8G07G08G04G20G26G24G28G17
  20981374.03545  16380246.82443  24515628.6254                   24515635.1254
   2721646.39847   2162955.25045  22082117.7894   22082118.7424
   8846874.15648   7215999.59445  21720957.9224   21720958.8054
  33895700.16046  26423393.92244  24449690.8674                   24449693.1254
   5764090.30946   5244675.82443  24496001.7034                   24496006.2934
   2990709.32846   2362307.16443  24027710.7504                   24027711.8984
  -8017137.24648  -6213414.14146  21280405.1954                   21280403.0314
 -19160348.83648 -14909800.77746  20966959.5944                   20966957.8674
 11  8 25 20 40  0.0000000  0  8G07G08G04G20G26G24G28G17
  20999945.22746  16394717.38742  24519162.9924                   24519168.6954
   2725771.65247   2166169.60545  22082902.7274   22082904.0744
   8658076.68447   7068884.75845  21685030.4694   21685031.4804
  33766041.70346  26322361.40643  24425017.3674                   24425019.0084
   5740887.69946   5226595.66443  24491586.7194                   24491590.8324
   2988432.03547   2360532.59843  24027277.5944                   24027278.8054
  -8119524.28548  -6293196.26246  21260921.6724                   21260919.1484
 -19249192.43048 -14979029.55146  20950053.3674                   20950051.3954
 11  8 25 20 40 30.0000000  0  8G07G08G04G20G26G24G28G17
  21018673.66446  16409310.56342  24522728.1174                   24522731.8754
   2730342.77347   2169731.37945  22083772.8754   22083774.5864
   8469723.11347   6922115.81645  21649187.8984   21649188.8834
  33636807.31646  26221659.35943  24400425.1724                   24400426.8714
   5717908.58647   5208689.67244  24487214.2424                   24487218.9494
   2986518.32846   2359041.34043  24026913.4614                   24026915.0394
  -8221610.99248  -6372744.35946  21241495.0704                   21241493.2274
 -19337716.32848 -15048009.21946  20933208.0004                   20933206.2274
 11  8 25 20 41  0.0000000  0  8G07G08G04G20G26G24G28G17
  21037553.55946  16424021.86342  24526320.7664                   24526324.4844
   2735353.79747   2173635.91445  22084726.9694   22084728.7304
   8281813.51648   6775692.83645  21613429.6804   21613430.6024
  33507996.40246  26121287.30543  24375913.3524                   24375915.0704
   5695147.14547   5190953.28544  24482882.9144                   24482887.2034
   2984962.73047   2357829.11343  24026617.5944                   24026619.1884
  -8323398.91448  -6452059.64146  21222125.8524                   21222123.4454
 -19425924.45748 -15116742.82046  20916422.3364                   20916420.8554
 11  8 25 20 41 30.0000000  0  8G07G08G04G20G26G24G28G17
  21056584.14546  16438850.45743  24529942.4304                   24529946.7664
   2740803.12147   2177882.00045  22085764.0234   22085765.6094
   8094351.64848   6629618.73445  21577757.3134   21577758.0354
  33379612.97346  26021248.35944  24351482.6254                   24351484.2664
   5672601.32847   5173384.88744  24478592.6484                   24478597.4144
   2983764.03546   2356895.02043  24026389.7424                   24026390.9104
  -8424884.76648  -6531139.54346  21202813.8754                   21202811.5204
 -19513816.79748 -15185230.35246  20899697.0554                   20899695.6214
 11  8 25 20 42  0.0000000  0  8G07G08G04G20G26G24G28G17
  21075761.53547  16453793.46943  24533592.2034                   24533598.9494
   2746687.30147   2182466.93045  22086884.1564   22086885.8284
   7907339.64548   6483895.18845  21542170.1884   21542170.9534
  33251658.10546  25921543.32044  24327133.7974                   24327134.8794
   5650267.28947   5155981.51243  24474342.7974                   24474347.8794
   2982918.86746   2356236.35243  24026229.0784                   24026231.0004
  -8526068.05948  -6609983.68046  21183559.1174                   21183557.2854
 -19601395.70348 -15253473.65246  20883031.2584                   20883029.6994
 11  8 25 20 42 30.0000000  0  8G07G08G04G20G26G24G28G17
  21095085.52747  16468850.70344  24537269.0164                   24537278.2034
   2753005.52047   2187390.07045  22088086.0234   22088087.5514
   7720782.40248   6338526.00446  21506669.2344   21506669.4064
  33124136.85946  25822176.18443  24302866.9224                   24302868.7154
   5628143.95746   5138742.33243  24470132.6334                   24470137.1024
   2982426.82446   2355852.91043  24026134.0234                   24026136.6214
  -8626944.83248  -6688588.98046  21164362.7424                   21164360.7734
 -19688659.72348 -15321471.59046  20866425.3284                   20866423.8444
 11  8 25 20 43  0.0000000  0  8G07G08G04G20G26G24G28G17
  21114549.79347  16484017.26644  24540973.6884                   24540982.7114
   2759750.89547   2192646.07445  22089369.3594   22089371.0394
   7534678.49648   6193510.05545  21471254.7344   21471254.9534
  32997047.53146  25723145.64143  24278681.7584                   24278684.2504
   5606224.27046   5121661.87543  24465961.7114                   24465966.9844
   2982280.84446   2355739.09443  24026106.8834                   24026109.2704
  -8727517.66048  -6766957.42646  21145224.4614                   21145222.4304
 -19775614.24248 -15389228.35246  20849878.8134                   20849876.8634
 11  8 25 20 43 30.0000000  0  8G07G08G04G20G26G24G28G17
  21134154.23847  16499293.05944  24544705.0864                   24544713.3364
   2766923.35947   2198234.86345  22090734.5554   22090735.9884
   7349033.26248   6048851.50845  21435927.5944   21435928.1644
  32870395.02746  25624455.44143  24254580.4224                   24254583.6294
   5584507.48446   5104739.50043  24461828.7344                   24461834.2154
   2982481.15246   2355895.07043  24026145.5314                   24026146.6294
  -8827782.46948  -6845085.86346  21126144.3754                   21126142.9224
 -19862258.33248 -15456743.22746  20833391.2814                   20833389.1484
 11  8 25 20 44  0.0000000  0  7G08G04G20G26G24G28G17
   2774520.97747   2204154.93045  22092180.8594   22092182.2664
   7163850.66048   5904553.46545  21400688.4064   21400689.3444
  32744182.29746  25526107.93843  24230563.2894                   24230566.2504
   5562991.82846   5087973.84043  24457735.8134                   24457739.8204
   2983026.35546   2356319.85243  24026248.8984                   24026250.3484
  -8927736.44548  -6922972.09846  21107124.0784                   21107121.5204
 -19948591.94948 -15524016.17246  20816962.1174                   20816960.2504
 11  8 25 20 44 30.0000000  0  7G08G04G20G26G24G28G17
   2782538.18448   2210401.95745  22093706.7504   22093708.1484
   6979130.39148   5760615.67645  21365537.1254   21365537.7624
  32618409.07846  25428102.91043  24206629.8284                   24206632.3634
   5541671.10546   5071360.07443  24453678.0314                   24453682.6134
   2983911.03146   2357009.14143  24026417.2664                   24026419.4574
  -9027380.83648  -7000617.10546  21088162.2584                   21088160.1094
 -20034619.04748 -15591050.27046  20800591.7114                   20800589.9494
 11  8 25 20 45  0.0000000  0  7G08G04G20G26G24G28G17
   2790975.93047   2216976.65645  22095312.8204   22095314.1764
   6794879.06648   5617043.28145  21330475.4064   21330475.5434
  32493081.78546  25330445.32443  24182780.8754                   24182783.3754
   5520546.15246   5054898.85943  24449658.2664                   24449662.4494
   2985136.46946   2357963.92243  24026650.1024                   24026652.4884
  -9126710.02748  -7078016.48446  21069260.9224                   21069258.9654
 -20120337.17648 -15657843.61746  20784279.9844                   20784278.2234
 11  8 25 20 45 30.0000000  0  7G08G04G20G26G24G28G17
   2799834.89547   2223879.59045  22096998.4384   22097000.6094
   6611103.03948   5473841.27346  21295504.2894   21295504.7424
  32368206.29346  25233139.77043  24159016.9774                   24159020.0234
   5499617.54746   5038590.62543  24445675.3914                   24445681.2074
   2986703.44546   2359184.87143  24026948.7584                   24026950.5664
  -9225718.87948  -7155166.26646  21050420.2344                   21050417.9924
 -20205743.69148 -15724394.14546  20768027.5704                   20768025.5864
 11  8 25 20 46  0.0000000  0  7G08G04G20G26G24G28G17
   2809117.31347   2231112.50445  22098764.7664   22098767.3404
   6427810.28948   5331015.83645  21260624.5634   21260624.7854
  32243789.96546  25136192.05143  24135342.3134                   24135343.7704
   5478887.32046   5022436.96943  24441731.0394                   24441737.1134
   2988614.62946   2360674.05543  24027313.5554                   24027314.7234
  -9324400.63348  -7232061.16046  21031641.5554                   21031639.5004
 -20290834.58248 -15790698.73046  20751835.1174                   20751833.6414
 11  8 25 20 46 30.0000000  0  7G08G04G20G26G24G28G17
   2818819.28947   2238672.32445  22100610.5474   22100612.9924
   6245002.09848   5188567.97746  21225837.2194   21225837.1954
  32119833.92246  25039603.02043  24111754.2974                   24111755.5984
   5458351.20346   5006434.59043  24437824.1564                   24437829.8014
   2990866.37946   2362428.56343  24027741.1414                   24027743.1844
  -9422754.80548  -7308700.79346  21012925.2814                   21012923.3204
 -20375612.29748 -15856759.28546  20735702.8594                   20735701.2584
 11  8 25 20 47  0.0000000  0  7G08G04G20G26G24G28G17
   4404352.20347   3474152.37545  22402327.9694   22402329.6914
   7638101.88348   6274100.34445  21490934.8054   21490935.3134
  33571759.37146  26170973.58243  24388047.0234                   24388046.2274
   7013421.46146   6218177.38743  24733744.1024                   24733748.9884
   4568870.46147   3592042.06643  24328025.8984                   24328027.7344
  -7945362.07048  -6157485.68746  21294064.0474                   21294062.0744
 -18884660.84048 -14694978.91446  21019421.4304                   21019419.9024
 11  8 25 20 47 30.0000000  0  7G08G04G20G26G24G28G17
   4414871.48047   3482349.03145  22404330.1174   22404331.0664
   7456257.36348   6132403.38745  21456330.7734   21456331.3834
  33448717.55546  26075096.94543  24364632.2814                   24364632.6174
   6993250.72746   6202459.67243  24729906.3134                   24729910.6374
   4571782.06646   3594310.77043  24328579.9454                   24328581.1564
  -8043070.12548  -6233621.83246  21275470.3524                   21275468.4024
 -18968829.60248 -14760564.95346  21003404.7814                   21003402.8594
 11  8 25 20 48  0.0000000  0  7G08G04G20G26G24G28G17
   4425796.71947   3490862.01644  22406409.2734   22406410.4574
   7274900.52748   5991086.44146  21421820.1804   21421821.1454
  33326138.33246  25979580.74243  24341304.9614                   24341307.8014
   6973259.92646   6186882.15643  24726102.0314                   24726106.8594
   4575021.65246   3596835.06343  24329196.5164                   24329197.3594
  -8140450.60248  -6309502.73446  21256939.2344                   21256937.6094
 -19052693.73448 -14825913.62546  20987445.7114                   20987444.0274
 11  8 25 20 48 30.0000000  0  7G08G04G20G26G24G28G17
   4437118.05147   3499683.65244  22408563.6334   22408565.5594
   7094027.04748   5850146.14846  21387401.2194   21387401.3094
  33204016.40646  25884420.85543  24318066.4694                   24318068.4264
   6953438.92246   6171436.97744  24722330.4774                   24722335.9024
   4578579.60246   3599607.43843  24329873.5004                   24329875.2774
  -8237508.88348  -6385132.57046  21238470.3054                   21238467.6214
 -19136261.35948 -14891031.24246  20971543.3984                   20971541.6954
 11  8 25 20 49  0.0000000  0  7G08G04G20G26G24G28G17
   4448834.56647   3508813.21944  22410793.0084   22410795.2544
   6913641.87548   5709586.35546  21353074.8444   21353075.1844
  33082356.59446  25789621.07443  24294915.3674                   24294917.4024
   6933786.92646   6156123.51643  24718590.7274                   24718596.7664
   4582455.47746   3602627.49643  24330610.7894                   24330612.4654
  -8334241.09448  -6460508.34446  21220062.9224                   21220060.5434
 -19219531.72748 -14955917.23846  20955697.4144                   20955696.1054
 11  8 25 20 49 30.0000000  0  7G08G04G20G26G24G28G17
   4460943.02347   3518248.22345  22413097.5314   22413100.6524
   6733746.94548   5569408.57846  21318841.8594   21318842.3834
  32961160.18046  25695182.36743  24271852.5554                   24271854.6054
   6914300.13346   6140938.78543  24714882.0784                   24714888.3634
   4586646.17646   3605892.91043  24331408.3834                   24331409.4734
  -8430646.52348  -6535629.48846  21201717.4064                   21201714.9884
 -19302506.34848 -15020572.78946  20939908.0084                   20939906.2464
 11  8 25 20 50  0.0000000  0  7G08G04G20G26G24G28G17
   4473435.98447   3527982.84845  22415474.9144   22415477.3404
   6554340.48848   5429611.41846  21284701.4774   21284702.7584
  32840425.51646  25601103.42243  24248878.5704                   24248880.2814
   6894971.41846   6125877.23843  24711204.5084                   24711211.2344
   4591144.77046   3609398.22743  24332264.6024                   24332266.2304
  -8526728.02348  -6610498.21946  21183433.5944                   21183431.3834
 -19385191.02348 -15085002.39846  20924173.8444                   20924171.7504
 11  8 25 20 50 30.0000000  0  7G08G04G20G26G24G28G17
   4486308.07047   3538012.87945  22417924.7034   22417926.5944
   6375422.36748   5290194.78146  21250654.7734   21250655.2424
  32720151.69946  25507383.68443  24225990.5234                   24225991.9454
   6875794.91846   6110934.29743  24707556.2194                   24707562.1374
   4595945.85946   3613139.30143  24333178.6094                   24333179.5634
  -8622486.52748  -6685115.24646  21165211.3984                   21165209.3984
 -19467589.43748 -15149208.96146  20908493.7034                   20908491.9574
 11  8 25 20 51  0.0000000  0  7G08G04G20G26G24G28G17
   4499558.48047   3548337.68844  22420446.3524   22420448.3054
   6196997.69548   5151162.64546  21216701.6954   21216702.0634
  32600343.37546  25414026.63343  24203191.2424                   24203193.1954
   6856769.72346   6096109.21944  24703935.0634                   24703941.5124
   4601049.00846   3617115.69543  24334149.3674                   24334150.9774
  -8717917.79748  -6759477.28146  21147051.1334                   21147049.3834
 -19549700.58248 -15213191.66846  20892868.3754                   20892867.1484
 11  8 25 20 51 30.0000000  0  7G08G04G20G26G24G28G17
   4513178.87947   3558950.78945  22423037.8594   22423039.7704
   6019063.41448   5012512.62546  21182841.8594   21182842.2584
  32480997.08246  25321029.57843  24180480.4064                   24180481.9264
   6837887.27746   6081395.35543  24700342.5234                   24700348.0744
   4606446.29346   3621321.31343  24335176.5314                   24335178.4224
  -8813025.94548  -6833587.52746  21128952.8284                   21128950.9534
 -19631530.95748 -15276955.59846  20877297.0554                   20877295.0784
 11  8 25 20 52  0.0000000  0  7G08G04G20G26G24G28G17
   4527168.83247   3569851.88345  22425701.2814   22425702.3364
   5841624.57848   4874248.67646  21149076.1334   21149076.2664
  32362118.01245  25228396.56642  24157857.3984                   24157860.3714
   6819147.55546   6066792.71143  24696777.3054                   24696782.6564
   4612137.81346   3625756.23843  24336259.2974                   24336261.2274
  -8907806.66848  -6907442.65646  21110916.4924                   21110914.4144
 -19713079.23848 -15340499.71946  20861778.5164                   20861776.8134
 11  8 25 20 52 30.0000000  0  8G09G08G04G20G26G24G28G17
  40568542.50416                  24103744.875
   4541518.99647   3581033.62945  22428431.7114   22428434.1994
   5664677.30148   4736367.75846  21115404.5704   21115404.5784
  32243701.50846  25136124.05543  24135323.2584                   24135326.0824
   6800540.57046   6052293.49643  24693235.9144                   24693241.8834
   4618114.68446   3630413.47743  24337397.3834                   24337398.8834
  -9002264.90648  -6981046.50046  21092942.3834                   21092939.6684
 -19794353.01648 -15403829.93446  20846312.7114                   20846311.1644
 11  8 25 20 53  0.0000000  0  8G09G08G04G20G26G24G28G17
  40374816.332 5                  24066879.773
   4556221.04747   3592489.59844  22431229.4304   22431231.9184
   5488219.11748   4598867.94546  21081825.1804   21081825.5124
  32125744.62146  25044209.62942  24112877.9534                   24112879.6294
   6782058.61346   6037891.68443  24689719.5784                   24689725.1374
   4624369.24246   3635287.07443  24338588.4144                   24338589.4184
  -9096404.10548  -7054401.74646  21075028.2584                   21075025.5124
 -19875358.28548 -15466950.91846  20830898.0004                   20830895.9694
 11  8 25 20 53 30.0000000  0  8G09G08G04G20G26G24G28G17
  40181473.168 5                  24030088.766
   4571267.06347   3604213.59444  22434092.3594   22434095.2934
   5312246.85248   4461746.74646  21048338.6884   21048339.1214
  32008243.98446  24952650.73442  24090517.7584                   24090519.6994
   6763692.80946   6023580.40243  24686224.3054                   24686230.3634
   4630893.10946   3640370.55943  24339828.3134                   24339830.7774
  -9190228.40248  -7127511.62146  21057173.6024                   21057171.5474
 -19956102.27348 -15529868.31246  20815532.7894                   20815531.1054
 11  8 25 20 54  0.0000000  0  8G09G08G04G20G26G24G28G17
  39988514.813 5                  23993367.242
   4586652.23447   3616201.85544  22437020.5944   22437022.4884
   5136761.87548   4325005.27046  21014945.1884   21014945.1724
  31891200.27346  24861447.93442  24068245.7814                   24068247.6684
   6745438.44146   6009355.95343  24682750.1564                   24682757.2034
   4637682.46946   3645660.86743  24341120.3674                   24341123.7304
  -9283737.51648  -7200375.88746  21039379.0234                   21039377.7894
 -20036587.55548 -15592584.12146  20800217.0394                   20800215.4064
 11  8 25 20 54 30.0000000  0  9G09G08G02G04G20G26G24G28G17
  39795947.852 5                  23956725.086
   4602377.37147   3628455.02044  22440013.2814   22440015.1024
  40761015.37557  31777116.12153  24604581.5864                   24604588.6644
   4961769.77748   4188647.85946  20981645.0004   20981645.6214
  31774618.34046  24770604.91843  24046061.6804                   24046062.9304
   6727296.50446   5995219.15243  24679298.1094                   24679305.4964
   4644738.13746   3651158.71143  24342463.1564                   24342466.1844
  -9376926.45748  -7272990.67246  21021646.1094                   21021644.2854
 -20116811.84848 -15655096.57446  20784950.8364                   20784949.1994
 11  8 25 20 55  0.0000000  0  9G09G08G02G04G20G26G24G28G17
  39603772.914 5                  23920154.617
   4618436.35947   3640968.30544  22443068.9924   22443070.9654
  40565114.54347  31624466.40243  24567302.7664                   24567309.2544
   4787270.60948   4052674.54346  20948439.2814   20948439.1054
  31658498.26246  24680121.81642  24023963.5634                   24023965.3054
   6709260.91846   5981165.16043  24675868.4224                   24675873.7934
   4652054.79746   3656859.96143  24343855.8284                   24343857.8364
  -9469796.27348  -7345356.77746  21003973.6484                   21003972.0234
 -20196778.98848 -15717408.63346  20769733.7894                   20769731.6684
 11  8 25 20 55 30.0000000  0  9G09G08G02G04G20G26G24G28G17
  40987413.172 5                  24183453.305
   6210239.98847   4881334.56344  22745979.3054   22745981.9774
  41944763.52046  32699517.85243  24829840.5004                   24829847.0234
   6188686.39148   5144686.90646  21215119.5784   21215119.4304
  33118259.65246  25817598.24642  24301745.8444                   24301748.8054
   8266743.39846   7194787.59843  24972246.2034                   24972252.4654
   6235043.51646   4890357.57843  24645088.5944                   24645090.2624
  -7986928.44548  -6189875.37946  21286154.2504                   21286152.2774
 -18701073.30548 -14551923.69946  21054356.8914                   21054355.4344
 11  8 25 20 56  0.0000000  0  9G09G08G02G04G20G26G24G28G17
  40796017.922 5                  24147032.289
   6226945.13347   4894351.34444  22749158.7814   22749161.9454
  41749110.35246  32547061.14143  24792609.1094                   24792614.4454
   6015166.80948   5009476.90246  21182099.7194   21182099.8444
  33003055.80546  25727829.09043  24279823.9924                   24279826.2664
   8248898.46546   7180882.22343  24968850.7114                   24968857.0474
   6242861.11746   4896449.15643  24646577.0944                   24646578.6684
  -8079168.66048  -6261750.89546  21268601.8444                   21268599.8674
 -18780542.75048 -14613847.96146  21039234.4454                   21039232.7544
 11  8 25 20 56 30.0000000  0  9G09G08G02G04G20G26G24G28G17
  40605015.152 5                  24110684.477
   6243966.48047   4907614.54344  22752398.0004   22752400.6254
  41553582.05946  32394701.69143  24755401.6484                   24755406.2774
   5842138.77048   4874649.91446  21149173.5164   21149174.0514
  32888311.10246  25638417.70742  24257989.2114                   24257990.5314
   8231142.33646   7167046.01642  24965471.2584                   24965478.5274
   6250923.42246   4902731.40243  24648110.4924                   24648112.4344
  -8171093.54748  -6333380.71146  21251108.9534                   21251106.5704
 -18859767.14548 -14675581.26646  21024158.4304                   21024156.8244
 11  8 25 20 57  0.0000000  0  9G09G08G02G04G20G26G24G28G17
  40414406.14845  33024526.05952  24074412.2274                   24074413.9804
   6261299.85247   4921120.85244  22755696.9224   22755699.5044
  41358179.24646  32242440.08643  24718217.2584                   24718222.7154
   5669602.88348   4740206.42646  21116341.1334   21116340.9454
  32774025.76246  25549364.19942  24236241.5234                   24236242.6954
   8213470.22346   7153275.32043  24962109.2424                   24962116.1604
   6259226.16846   4909201.02043  24649690.9924                   24649692.2974
  -8262703.34848  -6404765.00046  21233676.0474                   21233674.3054
 -18938749.30948 -14737125.82446  21009128.9924                   21009127.1804
 11  8 25 20 57 30.0000000  0  9G09G08G02G04G20G26G24G28G17
  40224198.83246  32876312.53143  24038217.6884                   24038219.3054
   6278946.13747   4934871.00044  22759054.3984   22759057.5904
  41162908.50446  32090281.35243  24681057.7274                   24681063.9454
   5497566.02348   4606151.78546  21083603.6254   21083603.8874
  32660206.04746  25460673.57043  24214582.6564                   24214583.7034
   8195883.37546   7139571.02343  24958762.9144                   24958769.8484
   6267771.22346   4915859.44143  24651316.0164                   24651318.6294
  -8353992.63348  -6475899.53546  21216304.0314                   21216302.2734
 -19017486.05548 -14798479.14546  20994145.6954                   20994144.2544
 11  8 25 20 58  0.0000000  0  9G09G08G02G04G20G26G24G28G17
  40034394.77046  32728413.27043  24002100.1254                   24002100.8834
   6296901.39147   4948861.90644  22762471.2344   22762474.1054
  40967770.42646  31938226.00443  24643923.6954                   24643930.0204
   5326029.49648   4472487.02046  21050961.2114   21050961.3054
  32546852.78146  25372346.40942  24193011.3444                   24193013.1764
   8178377.89846   7125930.13743  24955432.5234                   24955439.3794
   6276554.82046   4922703.71942  24652987.8134                   24652989.9574
  -8444960.27748  -6546783.43446  21198993.6884                   21198992.0744
 -19095979.78548 -14859643.09846  20979208.7974                   20979207.3914
 11  8 25 20 58 30.0000000  0  9G09G08G02G04G20G26G24G28G17
  39844997.66446  32580831.14143  23966059.4064                   23966059.3054
   6315163.27047   4963091.72344  22765946.8134   22765949.2584
  40772767.52746  31786276.04343  24606816.3364                   24606823.0004
   5154996.13748   4339214.32446  21018414.7344   21018414.5594
  32433968.75446  25284384.85943  24171529.9844                   24171531.8714
   8160951.22746   7112350.64842  24952116.9064                   24952122.3834
   6285574.86346   4929732.26642  24654705.3524                   24654706.0824
  -8535604.32448  -6617415.17646  21181744.8284                   21181742.7464
 -19174230.94948 -14920618.02746  20964318.1174                   20964316.3874
 11  8 25 20 59  0.0000000  0  8G09G08G02G04G20G26G28G17
  39656011.51246  32433569.24643  23930095.7584                   23930096.1914
   6333729.68447   4977558.83244  22769480.2194   22769482.1414
  40577903.35546  31634434.10943  24569734.4924                   24569741.1644
   4984469.25048   4206336.29746  20985964.5394   20985964.9264
  32321556.80946  25196791.16843  24150139.0234                   24150140.6134
   8143601.43046   7098831.04342  24948815.5474                   24948821.2934
  -8625922.35248  -6687792.89146  21164558.1094                   21164555.7894
 -19252239.90248 -14981404.23046  20949473.6724                   20949472.0514
 11  8 25 20 59 30.0000000  0  8G09G08G02G04G20G26G28G17
  39467438.73446  32286629.46943  23894211.0944                   23894212.3674
   6352597.12147   4992260.52044  22773071.0084   22773072.8714
  40383179.21946  31482701.32043  24532679.4144                   24532686.0274
   4814450.57448   4073854.27046  20953610.7664   20953611.0944
  32209618.05146  25109566.19543  24128838.9614                   24128839.1374
   8126325.02746   7085368.59043  24945527.1414                   24945533.5554
  -8715913.27748  -6757915.71146  21147433.6644                   21147431.4494
 -19330008.07848 -15042002.81646  20934674.7114                   20934673.3524
 11  8 25 21  0  0.0000000  0  8G09G08G02G04G20G26G28G17
  39279282.19546  32140014.01243  23858406.0314                   23858407.0594
   6371762.22747   5007194.12544  22776717.8524   22776720.1914
  40188597.08646  31331079.20743  24495651.6954                   24495657.9344
   4644942.48048   3941770.10546  20921354.3754   20921354.5204
  32098154.29346  25022711.41442  24107627.3984                   24107627.8754
   8109118.50046   7071960.69142  24942252.7974                   24942260.4184
  -8805575.71148  -6827782.57846  21130371.0084                   21130369.0594
 -19407536.89848 -15102414.88746  20919921.3204                   20919919.9574
 11  8 25 21  0 30.0000000  0  8G09G08G02G04G20G26G28G17
  39091549.42646  31993728.77343  23822681.8524                   23822683.3914
   6391226.03147   5022360.53144  22780421.5784   22780424.6334
  39994163.43846  31179572.77744  24458651.3054                   24458657.4454
   4475951.14548   3810088.59446  20889196.4454   20889196.1724
  31987171.36346  24936231.28943  24086507.8524                   24086507.9184
   8091983.46146   7058608.43843  24938992.1094                   24938999.1884
  -8894904.08648  -6897389.13346  21113372.8834                   21113370.6294
 -19484823.57448 -15162638.27046  20905214.2664                   20905212.7274
 11  8 25 21  1  0.0000000  0  8G09G08G02G04G20G26G28G17
  38904247.51246  31847779.24243  23787038.7974                   23787040.8674
   6410989.58247   5037760.49244  22784181.9924   22784185.4264
  39799883.54746  31028186.16044  24421681.4924                   24421687.3324
   4307483.07448   3678814.82446  20857137.8284   20857137.6174
  31876675.39146  24850130.57043  24065481.2504                   24065482.1134
   8074920.63346   7045312.48843  24935746.5004                   24935753.4924
  -8983892.89848  -6966731.07846  21096438.2034                   21096436.2854
 -19561865.08248 -15222670.61346  20890554.0314                   20890552.1374
 11  8 25 21  1 30.0000000  0  8G09G08G02G04G20G26G28G17
  38717375.82046  31702164.98043  23751478.9384                   23751479.8244
   6431046.70747   5053389.21544  22787999.6564   22788001.9414
  39605756.93846  30876918.97744  24384739.5164                   24384745.4734
   4139536.92648   3547947.75446  20825178.6254   20825178.7584
  31766664.59846  24764407.93043  24044545.7734                   24044547.9264
   8057923.52047   7032067.70743  24932512.8674                   24932518.9224
  -9072543.95348  -7035809.84046  21079568.5314                   21079566.8324
 -19638666.06648 -15282515.53546  20875939.3834                   20875937.5204
 11  8 25 21  2  0.0000000  0  8G09G08G02G04G20G26G28G17
  38530938.55946  31556889.23843  23716000.9844                   23716002.0314
   6451395.01647   5069244.82444  22791871.7734   22791874.7774
  39411786.53946  30725773.53144  24347828.2894                   24347834.6174
   3972116.14548   3417490.05546  20793319.6644   20793319.7814
  31657141.84046  24679065.56643  24023705.5004                   24023706.3714
   8040990.47746   7018872.86743  24929289.8984                   24929297.4924
  -9160854.68448  -7104623.41046  21062763.2974                   21062762.0274
 -19715226.42248 -15342172.96146  20861370.6024                   20861368.6994
 11  8 25 21  2 30.0000000  0  8G09G08G02G04G20G26G28G17
  38344934.82446  31411951.32844  23680605.9614                   23680606.4064
   6472028.07047   5085322.27344  22795799.4694   22795801.6054
  39217970.32846  30574748.21943  24310945.9694                   24310952.5204
   3805219.15248   3287440.50446  20761560.2424   20761560.2664
  31548105.05946  24594101.89843  24002955.6174                   24002957.4024
   8024114.80546   7005722.73843  24926078.5314                   24926086.0164
  -9248827.55548  -7173173.71546  21046023.1484                   21046021.2464
 -19791551.35248 -15401646.93446  20846845.8914                   20846844.6024
